Date StartTime U_cm/s V_cm/s W_cm/s Ustd_cm/s Vstd_cm/s Wstd_cm/s Uvar_(cm/s)^2 Vvar_(cm/s)^2 Wvar_(cm/s)^2 KE_(m/s)^2 TurbulentKE_(m/s)^2 HorizWindSpeed_cm/s FrictionSpeec_cm/s DragCoef SpeedOfSound_m/s SonicTemperature_C Pressure_mb 
01/04/2015  00:00:00      -42.286      -23.835      -21.855       22.986       22.104       10.421      528.377      488.585      108.604        0.198        0.056       48.541       12.322        0.064      331.946        0.289      867.103
01/04/2015  00:01:00      -91.260      -25.800      -15.859       25.092       14.553        9.481      629.586      211.786       89.883        0.509        0.047       94.837        6.913        0.005      331.762       -0.013      867.134
01/04/2015  00:02:00     -113.215      -27.487       -8.742       22.671       18.646       12.524      513.988      347.686      156.841        0.733        0.051      116.504       12.910        0.012      331.420       -0.576      867.158
01/04/2015  00:03:00      -89.831        9.744      -10.390       17.537       14.173        9.337      307.544      200.864       87.179        0.443        0.030       90.358        7.730        0.007      331.457       -0.515      867.142
01/04/2015  00:04:00      -44.451        0.252       -3.840       12.620       12.116       11.698      159.257      146.802      136.833        0.122        0.022       44.452        8.243        0.034      331.411       -0.591      867.111
01/04/2015  00:05:00      -65.854       -5.662      -12.395       21.278       20.744        8.762      452.767      430.307       76.767        0.274        0.048       66.097        9.659        0.021      331.432       -0.557      867.111
01/04/2015  00:06:00      -59.294      -33.099      -15.750       14.492       14.059       12.156      210.023      197.650      147.764        0.271        0.028       67.907        8.136        0.014      331.215       -0.913      867.124
01/04/2015  00:07:00      -79.619      -23.694       -7.121       17.966       23.971       15.284      322.793      574.614      233.611        0.404        0.057       83.070       11.250        0.018      331.117       -1.076      867.132
01/04/2015  00:08:00      -62.996       10.063      -10.922       19.167       18.433       11.846      367.357      339.793      140.336        0.252        0.042       63.794        9.595        0.023      331.238       -0.878      867.129
01/04/2015  00:09:00      -55.380       -1.362       -8.333       16.782       13.576       12.670      281.627      184.315      160.537        0.188        0.031       55.397       10.350        0.035      331.223       -0.901      867.113
01/04/2015  00:10:00      -54.954        7.666      -10.109       19.005       14.291       13.469      361.196      204.243      181.424        0.196        0.037       55.486       11.595        0.044      331.544       -0.372      867.091
01/04/2015  00:11:00      -39.252      -12.076       -9.173       10.380        9.954       11.530      107.738       99.088      132.944        0.106        0.017       41.068        3.729        0.008      331.542       -0.376      867.076
01/04/2015  00:12:00       -8.058        5.617      -13.363       22.067       10.102        9.710      486.973      102.046       94.292        0.048        0.034        9.823        8.128        0.685      331.704       -0.110      867.062
01/04/2015  00:13:00       -7.572       -5.739       -0.635       16.164       10.213       11.032      261.271      104.308      121.714        0.029        0.024        9.501        9.794        1.063      331.892        0.200      867.052
01/04/2015  00:14:00      -19.458      -16.147       -1.748       16.095        5.961       13.486      259.064       35.536      181.862        0.056        0.024       25.285       13.368        0.280      331.755       -0.025      867.037
01/04/2015  00:15:00      -26.847      -32.815       -7.000       11.980        8.447        7.658      143.512       71.351       58.652        0.106        0.014       42.398        4.360        0.011      331.512       -0.425      867.021
01/04/2015  00:16:00      -35.455      -15.055       -7.119        7.239        9.397        5.147       52.409       88.295       26.488        0.085        0.008       38.519        4.001        0.011      331.420       -0.578      867.026
01/04/2015  00:17:00      -55.845      -12.679      -10.758        9.575        9.175        5.813       91.689       84.184       33.793        0.180        0.010       57.266        3.347        0.003      331.374       -0.652      867.033
01/04/2015  00:18:00      -97.658      -25.623      -12.232       19.820       15.660       11.632      392.813      245.244      135.312        0.556        0.039      100.964        9.580        0.009      331.176       -0.977      867.048
01/04/2015  00:19:00     -123.873      -15.319      -18.944       24.694       23.903       15.061      609.793      571.368      226.824        0.867        0.070      124.817       12.991        0.011      331.073       -1.147      867.078
01/04/2015  00:20:00      -52.298       -4.949       -0.145       48.355       19.835       19.681     2338.230      393.423      387.355        0.294        0.156       52.532       21.862        0.173      331.050       -1.185      867.094
01/04/2015  00:21:00      -42.928      -16.400       -3.820       30.014       27.853       18.741      900.856      775.801      351.231        0.208        0.101       45.954       18.912        0.169      331.109       -1.087      867.095
01/04/2015  00:22:00      -37.337      -25.186       -6.856       16.975       21.024       14.003      288.165      442.011      196.071        0.150        0.046       45.038        9.520        0.045      331.183       -0.967      867.079
01/04/2015  00:23:00      -44.860      -30.676       -5.241       16.465       12.774       12.179      271.108      163.174      148.334        0.178        0.029       54.345        7.943        0.021      331.365       -0.667      867.055
01/04/2015  00:24:00     -114.944      -39.353      -16.763       15.966       18.357       10.683      254.927      336.984      114.121        0.787        0.035      121.494        9.337        0.006      331.184       -0.964      867.067
01/04/2015  00:25:00     -127.767        4.398      -14.441       42.255       33.735       21.957     1785.481     1138.082      482.115        0.998        0.170      127.843       19.112        0.022      331.188       -0.958      867.086
01/04/2015  00:26:00     -133.432       51.485      -12.968       41.054       29.725       22.841     1685.410      883.589      521.702        1.186        0.155      143.020       14.717        0.011      331.606       -0.271      867.095
01/04/2015  00:27:00     -121.984       42.743      -10.448       38.904       32.098       23.290     1513.502     1030.287      542.405        0.995        0.154      129.255       19.152        0.022      331.574       -0.322      867.089
01/04/2015  00:28:00     -154.885       67.362      -15.431       61.299       36.035       29.426     3757.601     1298.498      865.915        1.734        0.296      168.900       11.637        0.005      331.540       -0.380      867.090
01/04/2015  00:29:00     -127.501       46.713      -12.807       45.053       37.400       25.422     2029.779     1398.784      646.284        1.134        0.204      135.789       20.924        0.024      331.518       -0.416      867.120
01/04/2015  00:30:00     -155.562        9.735      -16.028       59.026       44.702       32.005     3484.123     1998.309     1024.339        1.553        0.325      155.866       34.907        0.050      331.533       -0.391      867.140
01/04/2015  00:31:00      -74.628      -39.819       -5.803       36.544       24.115       18.893     1335.486      581.546      356.929        0.473        0.114       84.587       18.557        0.048      331.378       -0.646      867.126
01/04/2015  00:32:00      -59.632      -40.479      -11.377       25.721       16.643       13.913      661.556      276.975      193.580        0.323        0.057       72.073        7.649        0.011      331.298       -0.778      867.112
01/04/2015  00:33:00      -78.701      -50.597      -12.025       24.685       17.763       11.698      609.358      315.510      136.852        0.498        0.053       93.562        3.516        0.001      331.271       -0.822      867.111
01/04/2015  00:34:00     -119.370      -60.690       -9.775       18.770       16.431       13.248      352.319      269.976      175.503        0.941        0.040      133.912        8.713        0.004      331.279       -0.808      867.127
01/04/2015  00:35:00      -91.880      -47.129       -0.801       32.516       25.838       17.007     1057.293      667.585      289.226        0.634        0.101      103.262       15.031        0.021      331.254       -0.850      867.148
01/04/2015  00:36:00     -123.540      -56.268       -1.210       30.762       27.351       19.422      946.306      748.090      377.218        1.025        0.104      135.751       17.498        0.017      331.344       -0.703      867.147
01/04/2015  00:37:00     -121.846      -29.092       -4.364       38.550       24.356       17.626     1486.096      593.238      310.687        0.905        0.120      125.270       15.076        0.014      331.447       -0.532      867.154
01/04/2015  00:38:00      -97.964      -29.076       -2.239       30.955       16.283       13.533      958.213      265.139      183.134        0.593        0.070      102.188       15.555        0.023      331.510       -0.429      867.147
01/04/2015  00:39:00      -53.457      -27.123        1.816       25.897       14.562       15.352      670.629      212.046      235.681        0.236        0.056       59.944       14.127        0.056      331.435       -0.552      867.129
01/04/2015  00:40:00      -83.697      -45.755       -9.426       24.807       11.905       10.160      615.405      141.733      103.234        0.502        0.043       95.387        7.151        0.006      331.520       -0.412      867.118
01/04/2015  00:41:00     -128.325      -52.144       -8.200       19.224       23.047       13.030      369.550      531.144      169.768        1.016        0.054      138.514        7.605        0.003      331.432       -0.558      867.117
01/04/2015  00:42:00     -129.219      -31.768       -9.532       22.683       20.723       15.301      514.514      429.425      234.123        0.949        0.059      133.066       13.264        0.010      331.379       -0.644      867.112
01/04/2015  00:43:00     -115.900      -42.192       -3.183       27.141       18.393       17.413      736.638      338.306      303.197        0.830        0.069      123.341       15.358        0.016      331.413       -0.588      867.094
01/04/2015  00:44:00      -87.752      -47.539       -2.442       32.645       21.328       19.211     1065.711      454.869      369.074        0.593        0.094       99.802       18.271        0.034      331.452       -0.523      867.087
01/04/2015  00:45:00      -98.124      -44.334       -3.546       21.770       19.463       11.357      473.936      378.820      128.989        0.629        0.049      107.674       10.314        0.009      331.456       -0.518      867.081
01/04/2015  00:46:00     -119.352      -24.904       -5.552       28.463       18.099       15.077      810.150      327.580      227.330        0.813        0.068      121.922       11.769        0.009      331.397       -0.615      867.102
01/04/2015  00:47:00     -135.260      -56.672       -2.228       40.122       30.453       21.101     1609.815      927.358      445.261        1.225        0.149      146.653       22.986        0.025      331.287       -0.794      867.135
01/04/2015  00:48:00      -89.773      -64.954        0.747       42.535       25.945       20.093     1809.261      673.161      403.746        0.758        0.144      110.807       16.049        0.021      331.254       -0.849      867.154
01/04/2015  00:49:00      -99.627      -58.696        4.465       45.207       39.428       29.074     2043.659     1554.605      845.320        0.892        0.222      115.632       26.777        0.054      331.325       -0.734      867.167
01/04/2015  00:50:00     -131.465      -71.447       -5.652       30.340       27.518       21.429      920.523      757.226      459.219        1.228        0.107      149.625       15.056        0.010      331.500       -0.443      867.167
01/04/2015  00:51:00     -118.539      -64.503       -2.921       24.626       30.798       16.725      606.423      948.538      279.729        1.003        0.092      134.952       12.926        0.009      331.486       -0.468      867.156
01/04/2015  00:52:00     -121.451      -47.344       -6.559       27.759       22.502       17.421      770.589      506.352      303.505        0.931        0.079      130.352       14.725        0.013      331.568       -0.332      867.141
01/04/2015  00:53:00     -140.976      -58.541      -11.045       27.738       19.011       13.550      769.372      361.414      183.603        1.237        0.066      152.647       11.786        0.006      331.576       -0.321      867.165
01/04/2015  00:54:00     -121.628      -74.184       -1.828       44.743       28.696       19.855     2001.961      823.465      394.206        1.176        0.161      142.466       16.751        0.014      331.505       -0.438      867.205
01/04/2015  00:55:00      -77.536      -50.046        1.881       30.889       22.292       16.027      954.124      496.925      256.854        0.511        0.085       92.285       12.181        0.017      331.504       -0.439      867.227
01/04/2015  00:56:00      -78.420      -32.015       -5.510       12.876       11.679        7.630      165.799      136.389       58.214        0.378        0.018       84.703        5.326        0.004      331.601       -0.279      867.228
01/04/2015  00:57:00     -102.557      -37.371      -10.633       22.539       15.397       11.842      508.010      237.062      140.234        0.646        0.044      109.154        7.658        0.005      331.636       -0.222      867.242
01/04/2015  00:58:00      -96.719      -30.829       -0.726       34.951       17.627       16.767     1221.596      310.716      281.130        0.606        0.091      101.514       15.471        0.023      331.501       -0.444      867.258
01/04/2015  00:59:00      -60.285      -27.785        0.538       23.721       20.035       14.518      562.702      401.400      210.762        0.279        0.059       66.379       12.011        0.033      331.488       -0.465      867.257
01/04/2015  01:00:00      -62.187      -30.393      -12.593       16.406       12.562        9.014      269.160      157.798       81.255        0.273        0.025       69.217        4.113        0.004      331.572       -0.328      867.256
01/04/2015  01:01:00      -46.464      -19.130       -9.940       12.236        9.515        7.987      149.727       90.534       63.791        0.146        0.015       50.247        5.640        0.013      331.631       -0.227      867.255
01/04/2015  01:02:00      -72.638      -43.324      -10.803       26.205       16.894       13.902      686.713      285.416      193.268        0.422        0.058       84.577       12.469        0.022      331.607       -0.269      867.269
01/04/2015  01:03:00      -50.316      -49.377        9.942       46.721       35.071       23.660     2182.844     1229.976      559.784        0.452        0.199       70.497       23.436        0.111      331.567       -0.334      867.285
01/04/2015  01:04:00      -77.475      -48.636        7.194       42.984       26.775       23.787     1847.606      716.886      565.809        0.577        0.157       91.476       24.993        0.075      331.446       -0.534      867.295
01/04/2015  01:05:00      -93.339      -32.479        1.361       29.956       20.185       18.690      897.351      407.446      349.334        0.571        0.083       98.829       14.225        0.021      331.521       -0.410      867.293
01/04/2015  01:06:00      -54.340      -38.304        2.497       33.498       18.850       14.699     1122.098      355.311      216.061        0.306        0.085       66.483       15.074        0.051      331.508       -0.432      867.310
01/04/2015  01:07:00      -35.525      -26.428       -1.200       15.525        8.746       14.605      241.017       76.490      213.293        0.125        0.027       44.277        9.867        0.050      331.663       -0.176      867.315
01/04/2015  01:08:00      -57.147      -13.353       -4.983       11.434        9.718        7.587      130.726       94.430       57.569        0.188        0.014       58.686        3.451        0.003      331.658       -0.183      867.310
01/04/2015  01:09:00      -18.355       -1.694       -3.059       15.151        7.770        6.939      229.553       60.367       48.144        0.034        0.017       18.433        6.376        0.120      331.624       -0.241      867.294
01/04/2015  01:10:00       -9.526       11.811       -0.074       17.817        6.849        6.212      317.458       46.914       38.593        0.032        0.020       15.174        8.025        0.280      331.652       -0.193      867.278
01/04/2015  01:11:00     -102.258      -23.250      -12.942       20.701       19.226        7.079      428.542      369.635       50.112        0.601        0.042      104.868        4.204        0.002      331.618       -0.251      867.315
01/04/2015  01:12:00     -113.373      -38.965       -8.847       16.198       26.001       11.106      262.361      676.068      123.333        0.776        0.053      119.882        8.544        0.005      331.526       -0.401      867.342
01/04/2015  01:13:00      -70.031       -5.426       -2.727       24.264       24.599       18.464      588.724      605.105      340.920        0.324        0.077       70.240       16.837        0.057      331.506       -0.436      867.354
01/04/2015  01:14:00      -41.833       -3.258       -7.087       26.903       18.862       11.198      723.758      355.757      125.390        0.151        0.060       41.960       10.870        0.067      331.371       -0.657      867.364
01/04/2015  01:15:00      -52.021      -37.167        1.217       29.404       19.551       16.711      864.595      382.256      279.242        0.281        0.076       63.934       17.510        0.075      331.484       -0.471      867.386
01/04/2015  01:16:00      -54.364      -23.446       -0.145       27.324       11.955       13.529      746.592      142.929      183.034        0.229        0.054       59.204       14.694        0.062      331.481       -0.475      867.407
01/04/2015  01:17:00       -9.903       -3.268       -3.842        8.797       11.545       10.388       77.392      133.276      107.905        0.022        0.016       10.429        4.592        0.194      331.565       -0.338      867.396
01/04/2015  01:18:00      -65.249      -18.006       -3.977       33.011       15.583        9.163     1089.736      242.817       83.963        0.301        0.071       67.688        8.034        0.014      331.695       -0.125      867.401
01/04/2015  01:19:00     -123.926      -63.156       -9.635       33.796       22.221       15.108     1142.179      493.790      228.258        1.065        0.093      139.091       11.011        0.006      331.530       -0.395      867.440
01/04/2015  01:20:00       -0.879      -25.879       18.471       37.295       25.579       17.259     1390.922      654.265      297.886        0.168        0.117       25.894       21.326        0.678      331.615       -0.255      867.431
01/04/2015  01:21:00       99.743       53.482        8.657       38.141       33.386       23.003     1454.743     1114.603      529.127        0.799        0.155      113.177       13.983        0.015      331.590       -0.298      867.344
01/04/2015  01:22:00       50.439       88.278       58.955       72.489       46.763       47.677     5254.584     2186.750     2273.105        1.176        0.486      101.672       49.209        0.234      331.730       -0.067      867.265
01/04/2015  01:23:00      -37.237        4.660       22.921       35.758       29.298       34.621     1278.661      858.379     1198.590        0.263        0.167       37.527       33.885        0.815      331.731       -0.065      867.337
01/04/2015  01:24:00     -147.883      -34.868       -8.902       55.231       50.444       27.235     3050.456     2544.593      741.741        1.475        0.317      151.938        9.625        0.004      331.634       -0.224      867.418
01/04/2015  01:25:00     -134.719       23.280       -2.008       48.561       42.778       26.623     2358.199     1829.992      708.809        1.180        0.245      136.716       26.532        0.038      331.422       -0.574      867.425
01/04/2015  01:26:00      -14.001       -3.159       -2.504       13.415       15.283       10.807      179.956      233.576      116.781        0.037        0.027       14.353       10.579        0.543      331.584       -0.306      867.401
01/04/2015  01:27:00      -40.424        6.928       -8.893       24.666       14.307        9.147      608.409      204.682       83.665        0.133        0.045       41.013        7.712        0.035      331.770       -0.002      867.431
01/04/2015  01:28:00      -53.156       59.831      -14.644       16.741       20.001       10.758      280.269      400.059      115.739        0.371        0.040       80.033       11.134        0.019      331.776        0.010      867.505
01/04/2015  01:29:00      -60.030      -25.859       -2.350       33.232       31.606       14.658     1104.387      998.923      214.861        0.330        0.116       65.362        7.772        0.014      331.652       -0.193      867.594
01/04/2015  01:30:00      -57.452      -28.468       -2.694       26.715       36.160       15.178      713.702     1307.576      230.375        0.318        0.113       64.119        8.211        0.016      331.447       -0.533      867.640
01/04/2015  01:31:00       -0.389       12.448        9.312        8.545        9.023        7.945       73.010       81.421       63.123        0.023        0.011       12.454        5.664        0.207      331.495       -0.455      867.610
01/04/2015  01:32:00       20.189       36.152        0.856       13.826       16.045       12.816      191.166      257.427      164.239        0.116        0.031       41.407       11.636        0.079      331.555       -0.355      867.608
01/04/2015  01:33:00       -0.580       57.023      -17.662       17.190       15.308        8.543      295.511      234.339       72.985        0.208        0.030       57.026        6.142        0.012      331.424       -0.571      867.626
01/04/2015  01:34:00      -22.256       12.359       -6.518       27.554       27.567       13.694      759.212      759.929      187.538        0.120        0.085       25.457       14.391        0.320      331.455       -0.520      867.653
01/04/2015  01:35:00        5.543        6.800       12.538       20.112       13.786       15.314      404.492      190.063      234.522        0.053        0.041        8.773       14.737        2.821      331.434       -0.553      867.612
01/04/2015  01:36:00       10.590       20.231       -3.990       25.413       12.613        9.551      645.811      159.099       91.214        0.072        0.045       22.835        6.937        0.092      331.440       -0.545      867.582
01/04/2015  01:37:00      -70.243        2.615       -3.470       24.829       18.003       11.566      616.491      324.100      133.773        0.301        0.054       70.292        8.304        0.014      331.498       -0.448      867.622
01/04/2015  01:38:00      -47.969       12.270       -5.970       27.455       20.445       14.951      753.779      417.979      223.530        0.194        0.070       49.514        6.904        0.019      331.380       -0.642      867.638
01/04/2015  01:39:00        7.653       18.807       -2.416       25.312       20.390       11.933      640.696      415.753      142.393        0.081        0.060       20.305       12.314        0.368      331.515       -0.419      867.608
01/04/2015  01:40:00       53.973       30.857      -11.113       18.273       21.321       13.923      333.920      454.581      193.841        0.249        0.049       62.171        7.624        0.015      331.537       -0.384      867.600
01/04/2015  01:41:00       25.470       14.118       -4.893       12.242       11.511       10.508      149.858      132.513      110.419        0.063        0.020       29.121        6.833        0.055      331.563       -0.343      867.633
01/04/2015  01:42:00       10.583       19.006       -4.339       12.018        8.537        6.850      144.437       72.874       46.917        0.038        0.013       21.754        4.582        0.044      331.516       -0.420      867.653
01/04/2015  01:43:00      -22.270        6.338       -4.639        7.820       11.630        5.773       61.149      135.267       33.332        0.039        0.011       23.155        1.974        0.007      331.498       -0.450      867.668
01/04/2015  01:44:00      -31.682       -4.626       -3.808       11.797       11.882        8.723      139.180      141.176       76.084        0.070        0.018       32.018        6.236        0.038      331.460       -0.510      867.661
01/04/2015  01:45:00      -73.918        2.860      -10.496       14.895       13.192       10.277      221.873      174.025      105.625        0.304        0.025       73.973        8.629        0.014      331.488       -0.465      867.708
01/04/2015  01:46:00      -89.247      -11.928      -12.291       23.783       16.348       13.383      565.621      267.241      179.111        0.463        0.051       90.040       14.274        0.025      331.449       -0.529      867.758
01/04/2015  01:47:00      -11.685       -7.720       -0.137       35.501       15.465        8.233     1260.319      239.158       67.778        0.088        0.078       14.005        9.236        0.435      331.475       -0.487      867.721
01/04/2015  01:48:00      -15.730       -4.254       -8.382       34.975       19.289       10.305     1223.251      372.073      106.189        0.102        0.085       16.295       12.110        0.552      331.477       -0.482      867.711
01/04/2015  01:49:00     -154.718      -86.196      -14.061       40.924       26.637       23.590     1674.779      709.507      556.469        1.725        0.147      177.109       19.027        0.012      331.440       -0.545      867.775
01/04/2015  01:50:00      -68.742      -49.769        0.687       55.371       37.279       28.533     3065.924     1389.719      814.123        0.624        0.263       84.867       22.514        0.070      331.440       -0.544      867.806
01/04/2015  01:51:00       29.914       16.144        6.370       35.681       16.490       15.648     1273.165      271.905      244.849        0.149        0.089       33.993        6.862        0.041      331.533       -0.390      867.779
01/04/2015  01:52:00       -3.531        1.712        8.156       15.435       26.683       10.047      238.227      711.979      100.945        0.057        0.053        3.924        7.223        3.388      331.575       -0.320      867.765
01/04/2015  01:53:00      -69.164      -25.627       -5.870       24.901       14.790       10.241      620.080      218.749      104.878        0.321        0.047       73.759        7.832        0.011      331.662       -0.178      867.790
01/04/2015  01:54:00      -16.295       -0.486       10.633       41.704       27.703       14.956     1739.183      767.459      223.690        0.155        0.137       16.302       21.593        1.755      331.640       -0.214      867.796
01/04/2015  01:55:00       52.000       41.989        5.427       14.305       16.960       16.343      204.626      287.645      267.106        0.263        0.038       66.836        7.283        0.012      331.702       -0.111      867.790
01/04/2015  01:56:00       -2.300       21.497       -9.948       33.611        9.483        6.089     1129.674       89.921       37.077        0.091        0.063       21.620       10.750        0.247      331.698       -0.118      867.851
01/04/2015  01:57:00      -90.562      -19.064      -10.428       26.907       24.488       14.355      723.986      599.651      206.077        0.510        0.076       92.547        6.606        0.005      331.616       -0.255      867.936
01/04/2015  01:58:00      -85.885      -35.631       -8.861       42.929       24.668       14.675     1842.878      608.502      215.351        0.569        0.133       92.983        9.445        0.010      331.418       -0.580      867.957
01/04/2015  01:59:00        4.631       -1.895        7.278       22.883       13.576       17.164      523.615      184.300      294.606        0.054        0.050        5.003        7.465        2.226      331.487       -0.465      867.922
01/04/2015  02:00:00      -46.273      -10.902       -4.546       33.820       11.922       11.624     1143.780      142.132      135.121        0.185        0.071       47.540       17.673        0.138      331.648       -0.201      867.929
01/04/2015  02:01:00      -87.197      -17.663      -10.614       22.171       15.332       12.676      491.548      235.074      160.682        0.446        0.044       88.968       11.475        0.017      331.593       -0.290      867.969
01/04/2015  02:02:00      -45.427      -15.194       -2.468       19.312       12.681        7.523      372.957      160.795       56.595        0.145        0.030       47.900        5.540        0.013      331.506       -0.435      867.987
01/04/2015  02:03:00       -6.228      -20.664       -1.716        9.746       11.223        5.200       94.988      125.948       27.042        0.036        0.012       21.582        6.106        0.080      331.698       -0.120      867.996
01/04/2015  02:04:00      -62.109      -14.717       -4.464       27.113       12.477        9.249      735.093      155.685       85.551        0.254        0.049       63.829        8.952        0.020      331.641       -0.213      868.034
01/04/2015  02:05:00      -24.611        9.294       -2.986       21.651        7.823        9.264      468.769       61.198       85.831        0.066        0.031       26.307        4.998        0.036      331.621       -0.245      868.066
01/04/2015  02:06:00       11.966       15.511        5.429        7.067        5.508        5.839       49.939       30.339       34.094        0.026        0.006       19.591        4.252        0.047      331.674       -0.157      868.073
01/04/2015  02:07:00      -21.569       19.196       -3.675       29.872       11.997        7.642      892.326      143.928       58.402        0.097        0.055       28.874       12.081        0.175      331.686       -0.136      868.097
01/04/2015  02:08:00      -87.130       -6.251      -14.378       17.072       14.279       10.472      291.469      203.901      109.661        0.422        0.030       87.353        8.059        0.009      331.448       -0.530      868.109
01/04/2015  02:09:00       -2.655        8.044       -3.259       28.656        7.424        6.788      821.193       55.110       46.070        0.050        0.046        8.471        9.136        1.163      331.638       -0.219      868.098
01/04/2015  02:10:00       14.496      -25.330       -3.391       22.753       23.767        8.116      517.683      564.856       65.871        0.101        0.057       29.185        4.803        0.027      331.729       -0.068      868.112
01/04/2015  02:11:00      -77.559      -29.834        2.608       58.121       25.428       17.383     3378.094      646.605      302.178        0.562        0.216       83.099       21.871        0.069      331.541       -0.378      868.141
01/04/2015  02:12:00      -94.336       -4.509       -8.341       24.801       28.448        9.999      615.066      809.311       99.974        0.526        0.076       94.444        6.727        0.005      331.503       -0.441      868.134
01/04/2015  02:13:00      -75.488       11.279       -7.512       10.678        9.048        7.660      114.020       81.874       58.679        0.307        0.013       76.326        4.904        0.004      331.557       -0.351      868.107
01/04/2015  02:14:00      -74.966      -24.107       -9.959       15.123       14.215        7.412      228.717      202.070       54.932        0.339        0.024       78.746        4.424        0.003      331.617       -0.252      868.081
01/04/2015  02:15:00      -36.472       -9.464       -4.763       15.728       15.232        5.781      247.373      232.007       33.424        0.098        0.026       37.679        8.146        0.047      331.722       -0.079      868.039
01/04/2015  02:16:00      -27.544       10.340       -1.200       18.138        4.484        2.906      328.993       20.103        8.446        0.061        0.018       29.421        4.374        0.022      332.124        0.584      867.992
01/04/2015  02:17:00      -90.857       -2.112       -5.858       16.551       14.579       10.382      273.929      212.540      107.795        0.444        0.030       90.882        8.314        0.008      331.920        0.247      868.002
01/04/2015  02:18:00      -44.932      -34.448        2.924       49.280       17.724       18.341     2428.474      314.133      336.388        0.315        0.154       56.618       21.667        0.146      331.691       -0.130      868.043
01/04/2015  02:19:00       -7.523      -18.214        6.180       25.404       13.361       14.230      645.377      178.505      202.486        0.073        0.051       19.706       15.965        0.656      331.695       -0.122      868.061
01/04/2015  02:20:00      -71.136        3.659       -4.912       14.182        9.211        8.364      201.129       84.849       69.959        0.273        0.018       71.230        9.260        0.017      331.771       -0.000      868.070
01/04/2015  02:21:00     -100.153       14.058       -9.982        7.689        8.246        7.692       59.114       67.990       59.167        0.526        0.009      101.135        5.449        0.003      331.718       -0.085      868.075
01/04/2015  02:22:00      -81.510       14.810       -9.408       20.916        9.910       10.355      437.485       98.199      107.218        0.380        0.032       82.845        6.287        0.006      331.731       -0.065      868.077
01/04/2015  02:23:00      -33.549       13.830       -7.702       14.323       14.124        9.260      205.152      199.480       85.745        0.093        0.025       36.288        7.877        0.047      331.773        0.004      868.094
01/04/2015  02:24:00       38.755       17.896       10.185       29.131       17.710       14.041      848.639      313.661      197.147        0.164        0.068       42.688        5.989        0.020      331.759       -0.017      868.099
01/04/2015  02:25:00       49.252       45.621        3.676       17.353       19.173       18.092      301.119      367.598      327.314        0.276        0.050       67.134       12.143        0.033      331.580       -0.312      868.090
01/04/2015  02:26:00       25.154        4.773       -1.247       17.796       18.014       10.374      316.681      324.509      107.627        0.070        0.037       25.603        9.878        0.149      331.569       -0.332      868.085
01/04/2015  02:27:00       17.318       -6.804        7.240       10.470        7.527        8.942      109.628       56.649       79.956        0.032        0.012       18.606        5.616        0.091      331.619       -0.248      868.089
01/04/2015  02:28:00       -2.823       -3.242        3.013        5.981        3.892        5.281       35.769       15.146       27.890        0.005        0.004        4.299        4.131        0.923      331.672       -0.160      868.088
01/04/2015  02:29:00      -36.258       -5.841       -4.428       16.588       15.185        6.569      275.149      230.589       43.155        0.096        0.027       36.725        1.513        0.002      331.644       -0.207      868.107
01/04/2015  02:30:00      -37.859       15.172       -7.768       14.839        6.823        5.394      220.188       46.556       29.095        0.101        0.015       40.786        4.623        0.013      331.474       -0.489      868.119
01/04/2015  02:31:00       19.483       -1.111        3.302       17.885        5.796        4.750      319.877       33.596       22.558        0.038        0.019       19.514        5.842        0.090      331.716       -0.089      868.104
01/04/2015  02:32:00       15.036       18.519       23.550       21.714       17.000       15.403      471.486      288.987      237.240        0.106        0.050       23.855       18.072        0.574      331.650       -0.197      868.089
01/04/2015  02:33:00       16.238      -17.537        3.593       13.852       33.273       19.650      191.875     1107.124      386.131        0.113        0.084       23.900       23.641        0.978      331.714       -0.094      868.092
01/04/2015  02:34:00      -15.257      -34.096       -3.918       14.642       19.291       20.239      214.395      372.134      409.600        0.120        0.050       37.354       11.529        0.095      331.856        0.140      868.088
01/04/2015  02:35:00        5.437      -63.358       -4.862       29.473       38.163       30.445      868.641     1456.441      926.893        0.366        0.163       63.591       22.496        0.125      331.756       -0.025      868.084
01/04/2015  02:36:00      -20.928      -11.569       -6.600       23.852       50.068       30.642      568.899     2506.766      938.924        0.231        0.201       23.913       27.068        1.281      331.733       -0.061      868.117
01/04/2015  02:37:00      -22.780       21.830       -0.291       11.933       16.189       15.683      142.387      262.087      245.961        0.082        0.033       31.551        8.050        0.065      331.699       -0.115      868.168
01/04/2015  02:38:00        6.120       49.348       -0.608       13.226       24.018       20.131      174.924      576.860      405.240        0.181        0.058       49.726       14.689        0.087      331.697       -0.120      868.224
01/04/2015  02:39:00       10.200       70.353       -8.995       21.766       42.827       19.173      473.752     1834.127      367.615        0.390        0.134       71.089       24.342        0.117      331.536       -0.387      868.261
01/04/2015  02:40:00       58.486       58.106       -7.260       26.633       26.184       18.854      709.296      685.598      355.466        0.430        0.088       82.444       16.676        0.041      331.397       -0.613      868.254
01/04/2015  02:41:00      115.590       59.982       -5.752       24.254       23.148       18.761      588.262      535.839      351.985        0.923        0.074      130.226       11.510        0.008      331.248       -0.859      868.219
01/04/2015  02:42:00       10.737       25.379       -3.373       29.213       20.667       12.791      853.399      427.127      163.609        0.111        0.072       27.556       12.291        0.199      331.205       -0.931      868.233
01/04/2015  02:43:00        8.910       61.208       -5.110        9.188        9.380        5.895       84.422       87.994       34.748        0.203        0.010       61.853        3.550        0.003      331.275       -0.813      868.239
01/04/2015  02:44:00       31.008       50.965       -2.753       10.093        7.729        7.618      101.878       59.744       58.039        0.189        0.011       59.657        6.600        0.012      331.387       -0.631      868.206
01/04/2015  02:45:00       64.718       38.073       -0.438       20.706       11.303        7.905      428.743      127.768       62.492        0.313        0.031       75.087        5.785        0.006      331.363       -0.671      868.179
01/04/2015  02:46:00       41.751       19.897        4.245       18.291        9.528        6.910      334.555       90.790       47.745        0.132        0.024       46.250        7.132        0.024      331.504       -0.440      868.177
01/04/2015  02:47:00      -19.879       -9.512       -1.625       16.357        9.622        7.225      267.544       92.585       52.204        0.045        0.021       22.038        7.189        0.106      331.534       -0.390      868.219
01/04/2015  02:48:00      -27.659      -10.037       -5.061       11.431       18.467       10.168      130.675      341.036      103.395        0.073        0.029       29.424        9.501        0.104      331.504       -0.439      868.270
01/04/2015  02:49:00        8.564       15.002        4.549       17.173       10.061        8.996      294.911      101.219       80.926        0.040        0.024       17.275        7.887        0.208      331.465       -0.503      868.277
01/04/2015  02:50:00       38.052       24.006        5.609       20.835       11.402       13.946      434.082      130.004      194.494        0.141        0.038       44.992        9.740        0.047      331.474       -0.489      868.249
01/04/2015  02:51:00       13.052       14.320      -12.712        6.690       13.765        5.393       44.762      189.463       29.087        0.040        0.013       19.376        4.759        0.060      331.498       -0.448      868.240
01/04/2015  02:52:00       -3.044       -5.612        0.347        9.815       10.567        6.800       96.337      111.658       46.236        0.015        0.013        6.385        2.570        0.162      331.535       -0.388      868.249
01/04/2015  02:53:00      -40.566      -10.925       -2.815       13.965       12.031        8.613      195.034      144.745       74.191        0.109        0.021       42.012        7.167        0.029      331.566       -0.339      868.264
01/04/2015  02:54:00      -63.578        1.697       -6.186       18.870       10.299       11.889      356.074      106.079      141.352        0.234        0.030       63.601       10.442        0.027      331.386       -0.632      868.267
01/04/2015  02:55:00      -33.434       -4.626       -2.635       12.468       11.255        9.443      155.463      126.669       89.163        0.076        0.019       33.753        7.966        0.056      331.327       -0.731      868.245
01/04/2015  02:56:00      -35.889      -14.186       -3.541        7.036        5.998        4.336       49.502       35.971       18.803        0.080        0.005       38.591        2.565        0.004      331.451       -0.526      868.220
01/04/2015  02:57:00      -58.360        4.911       -7.215       10.899       11.622        5.917      118.798      135.076       35.008        0.189        0.014       58.566        4.319        0.005      331.511       -0.428      868.220
01/04/2015  02:58:00      -72.805       28.777      -11.213       10.631        6.366        6.856      113.024       40.529       47.006        0.323        0.010       78.286        4.479        0.003      331.432       -0.557      868.232
01/04/2015  02:59:00      -47.561       15.377       -2.349       14.732       10.269       12.765      217.036      105.459      162.938        0.149        0.024       49.985        5.053        0.010      331.422       -0.574      868.225
01/04/2015  03:00:00      -30.450       10.309       -1.919       13.562       13.447        6.903      183.927      180.811       47.655        0.072        0.021       32.148        4.006        0.016      331.501       -0.444      868.209
01/04/2015  03:01:00      -21.111        0.037       -6.651       13.669        8.837        8.288      186.847       78.098       68.690        0.041        0.017       21.111        5.890        0.078      331.524       -0.404      868.198
01/04/2015  03:02:00      -81.040        3.615      -11.705       16.187       13.705       10.453      262.019      187.840      109.260        0.364        0.028       81.121        7.728        0.009      331.381       -0.642      868.210
01/04/2015  03:03:00      -37.628      -14.372      -12.612       35.301       20.921       10.440     1246.194      437.688      108.996        0.179        0.090       40.279       16.307        0.164      331.254       -0.850      868.217
01/04/2015  03:04:00       -6.435      -49.942      -14.148       24.006       14.289       10.013      576.267      204.178      100.269        0.181        0.044       50.355        7.548        0.022      331.446       -0.534      868.210
01/04/2015  03:05:00      -65.038      -26.221       -4.632       32.497       15.626       14.454     1056.045      244.178      208.932        0.322        0.075       70.125       15.349        0.048      331.436       -0.550      868.223
01/04/2015  03:06:00     -103.783       -0.740      -12.344       21.927       20.230       13.375      480.777      409.255      178.896        0.600        0.053      103.785        8.956        0.007      331.222       -0.902      868.232
01/04/2015  03:07:00      -98.135      -22.286       -9.888       28.374       16.302       14.995      805.089      265.756      224.862        0.576        0.065      100.634       11.583        0.013      331.187       -0.959      868.234
01/04/2015  03:08:00     -128.537      -40.103       -2.757       36.403       30.668       23.041     1325.196      940.543      530.867        1.047        0.140      134.648       21.260        0.025      331.141       -1.036      868.228
01/04/2015  03:09:00     -116.610      -32.424       -7.728       25.469       21.338       15.073      648.663      455.313      227.193        0.802        0.067      121.034        8.458        0.005      331.133       -1.048      868.216
01/04/2015  03:10:00      -91.337        4.174       -8.129       37.338       17.609       14.448     1394.144      310.080      208.741        0.517        0.096       91.432       19.358        0.045      331.137       -1.044      868.186
01/04/2015  03:11:00     -134.945       28.956      -19.577       31.446       24.066       17.755      988.872      579.181      315.257        1.066        0.094      138.017       11.432        0.007      331.185       -0.962      868.167
01/04/2015  03:12:00     -156.197       18.447      -16.505       36.295       27.376       18.063     1317.303      749.454      326.273        1.370        0.120      157.282       19.745        0.016      331.250       -0.856      868.163
01/04/2015  03:13:00     -133.395      -23.960      -14.898       28.689       29.252       15.803      823.081      855.679      249.739        1.026        0.096      135.530       12.000        0.008      331.231       -0.885      868.173
01/04/2015  03:14:00      -92.206      -28.840      -12.207       23.864       26.063       14.162      569.488      679.274      200.558        0.547        0.072       96.611        9.979        0.011      331.194       -0.948      868.173
01/04/2015  03:15:00      -76.286        4.219       -2.751       35.285       19.451       19.976     1245.060      378.332      399.052        0.393        0.101       76.402       22.182        0.084      331.126       -1.059      868.157
01/04/2015  03:16:00     -101.935      -18.251       -9.208       34.848       21.914       19.018     1214.348      480.203      361.695        0.643        0.103      103.556       19.931        0.037      331.255       -0.848      868.152
01/04/2015  03:17:00     -104.467      -23.312       -5.860       37.074       30.493       21.747     1374.496      929.798      472.927        0.713        0.139      107.036       15.865        0.022      331.183       -0.966      868.137
01/04/2015  03:18:00      -64.275      -24.783        5.561       44.406       27.688       29.404     1971.926      766.618      864.608        0.419        0.180       68.887       28.287        0.169      331.157       -1.009      868.107
01/04/2015  03:19:00      -15.453      -18.565       19.973       22.942       22.446       18.500      526.341      503.845      342.259        0.118        0.069       24.155       14.504        0.361      331.241       -0.869      868.083
01/04/2015  03:20:00      -61.214      -39.222        1.495       28.839       24.370       14.315      831.703      593.883      204.916        0.346        0.082       72.702       14.399        0.039      331.213       -0.917      868.069
01/04/2015  03:21:00      -93.255        3.247       -8.957       42.666       39.509       19.655     1820.387     1560.939      386.311        0.628        0.188       93.312       15.668        0.028      331.214       -0.916      868.071
01/04/2015  03:22:00      -66.689       39.175       -9.573       38.748       24.602       20.251     1501.416      605.269      410.088        0.429        0.126       77.344       17.985        0.054      331.307       -0.760      868.070
01/04/2015  03:23:00      -48.759      -10.357       -7.930       21.358       16.581       11.710      456.150      274.931      137.122        0.171        0.043       49.846       12.500        0.063      331.356       -0.681      868.069
01/04/2015  03:24:00      -66.047      -38.279      -12.053       18.462       10.964       13.986      340.835      120.205      195.618        0.331        0.033       76.338        6.188        0.007      331.328       -0.727      868.067
01/04/2015  03:25:00      -79.298      -27.551      -15.144       17.755       15.634        8.136      315.233      244.421       66.194        0.395        0.031       83.948        6.243        0.006      331.240       -0.870      868.067
01/04/2015  03:26:00      -67.556      -47.438       -3.882       38.242       21.771       22.714     1462.450      473.993      515.913        0.464        0.123       82.548       25.404        0.095      331.270       -0.824      868.071
01/04/2015  03:27:00      -44.853      -33.165        2.165       51.010       25.410       25.790     2602.051      645.686      665.118        0.351        0.196       55.782       28.446        0.260      331.226       -0.896      868.080
01/04/2015  03:28:00      -45.702      -11.142        4.885       45.861       26.841       21.966     2103.231      720.463      482.505        0.277        0.165       47.040        9.871        0.044      331.184       -0.965      868.084
01/04/2015  03:29:00      -81.452      -24.460       -6.235       27.278       25.007       18.535      744.105      625.351      343.552        0.449        0.086       85.046       13.789        0.026      331.220       -0.905      868.096
01/04/2015  03:30:00      -56.990      -31.721       -4.739       21.348       14.713       11.394      455.734      216.470      129.826        0.254        0.040       65.223        8.585        0.017      331.282       -0.802      868.107
01/04/2015  03:31:00      -57.587      -20.884       -3.540       14.894       13.279       11.423      221.844      176.326      130.487        0.215        0.026       61.256        9.708        0.025      331.334       -0.717      868.109
01/04/2015  03:32:00      -70.999      -36.369        0.716       24.307       19.207       10.255      590.814      368.904      105.157        0.371        0.053       79.772       10.165        0.016      331.449       -0.529      868.110
01/04/2015  03:33:00      -35.213      -22.879        4.833       37.014       23.830       18.709     1370.029      567.885      350.042        0.204        0.114       41.993       22.445        0.286      331.441       -0.542      868.108
01/04/2015  03:34:00      -74.588      -37.811       -2.455       41.624       22.251       12.254     1732.583      495.089      150.158        0.469        0.119       83.625       14.323        0.029      331.457       -0.516      868.115
01/04/2015  03:35:00      -72.350      -58.662        3.775       40.570       30.692       19.970     1645.934      941.983      398.798        0.584        0.149       93.144       16.909        0.033      331.371       -0.658      868.136
01/04/2015  03:36:00      -63.240      -71.712        0.369       43.077       38.590       21.537     1855.633     1489.215      463.832        0.647        0.190       95.613       21.226        0.049      331.616       -0.254      868.141
01/04/2015  03:37:00      -81.364      -31.956       -8.869       25.611       41.053       18.172      655.936     1685.339      330.229        0.520        0.134       87.414       15.676        0.032      331.570       -0.331      868.137
01/04/2015  03:38:00      -90.180      -28.069       -3.255       41.006       26.919       19.032     1681.514      724.655      362.209        0.585        0.138       94.447       15.497        0.027      331.482       -0.475      868.141
01/04/2015  03:39:00     -105.840       -4.273       -7.095       19.506       24.972       13.851      380.496      623.610      191.844        0.623        0.060      105.926        8.452        0.006      331.336       -0.714      868.145
01/04/2015  03:40:00      -74.771       -0.877       -7.863       22.194       16.540       11.364      492.557      273.562      129.135        0.327        0.045       74.776        5.956        0.006      331.342       -0.704      868.140
01/04/2015  03:41:00      -68.465      -12.069       -9.478       10.447       15.679        8.835      109.133      245.829       78.063        0.268        0.022       69.521        6.223        0.008      331.377       -0.648      868.129
01/04/2015  03:42:00      -86.932      -21.223      -11.373       16.584       10.497        8.600      275.030      110.184       73.968        0.430        0.023       89.485        6.307        0.005      331.393       -0.623      868.129
01/04/2015  03:43:00      -91.053      -35.805       -9.316       12.444        9.566        7.552      154.852       91.503       57.030        0.498        0.015       97.840        6.711        0.005      331.458       -0.515      868.116
01/04/2015  03:44:00      -69.328      -27.077       -1.574       14.135        9.891        8.466      199.805       97.826       71.669        0.296        0.018       74.428        5.096        0.005      331.520       -0.412      868.102
01/04/2015  03:45:00      -67.222      -25.107       -7.917       13.961       11.627        9.666      194.917      135.198       93.427        0.282        0.021       71.757        7.801        0.012      331.543       -0.374      868.089
01/04/2015  03:46:00      -90.314      -17.062      -10.314       12.642       14.201       11.101      159.817      201.671      123.228        0.452        0.024       91.911        4.833        0.003      331.444       -0.537      868.082
01/04/2015  03:47:00      -97.698      -29.889       -9.148       14.325       12.460       10.317      205.195      155.252      106.447        0.549        0.023      102.167        9.466        0.009      331.349       -0.693      868.083
01/04/2015  03:48:00      -70.224      -32.733       -1.005       12.589        7.441       10.127      158.495       55.373      102.552        0.316        0.016       77.478        5.933        0.006      331.436       -0.549      868.065
01/04/2015  03:49:00      -34.730      -22.472        1.299       14.692       10.889        8.317      215.844      118.566       69.169        0.106        0.020       41.366        8.172        0.039      331.525       -0.405      868.043
01/04/2015  03:50:00      -29.271       -9.389       -3.014       16.184        9.870        4.915      261.933       97.413       24.154        0.067        0.019       30.740        3.648        0.014      331.555       -0.355      868.031
01/04/2015  03:51:00      -76.011       -2.112      -10.211       12.368       10.328        6.251      152.964      106.672       39.081        0.309        0.015       76.041        4.589        0.004      331.416       -0.584      868.038
01/04/2015  03:52:00      -32.750       -8.981       -0.946       13.983        8.250        6.388      195.515       68.065       40.809        0.073        0.015       33.959        5.582        0.027      331.372       -0.656      868.040
01/04/2015  03:53:00       -9.254       -0.554        0.033        6.383        4.499        1.768       40.746       20.242        3.124        0.008        0.003        9.271        1.289        0.019      331.468       -0.498      868.043
01/04/2015  03:54:00       -8.365       25.336        3.445       21.988       10.453        9.755      483.479      109.256       95.164        0.071        0.034       26.681       11.350        0.181      331.645       -0.207      868.059
01/04/2015  03:55:00       22.648       36.050       -8.668        8.073       18.182       11.762       65.174      330.601      138.347        0.121        0.027       42.574        8.840        0.043      331.307       -0.760      868.080
01/04/2015  03:56:00        9.531        5.824       -4.375       12.764       13.947        9.022      162.922      194.511       81.400        0.029        0.022       11.170        9.152        0.671      331.254       -0.849      868.105
01/04/2015  03:57:00        5.179       -5.043        6.194        8.764       10.171       10.316       76.801      103.456      106.411        0.019        0.014        7.229        6.827        0.892      331.295       -0.782      868.133
01/04/2015  03:58:00        5.505       23.038       -5.766       10.012       13.760        6.011      100.248      189.346       36.127        0.046        0.016       23.687        6.796        0.082      331.291       -0.789      868.160
01/04/2015  03:59:00        0.731       50.188       -2.347       14.742       29.606       12.536      217.335      876.527      157.157        0.189        0.063       50.193       12.779        0.065      331.309       -0.758      868.157
01/04/2015  04:00:00       16.428       71.896      -10.013       11.911       21.114       15.161      141.863      445.804      229.856        0.318        0.041       73.749       12.870        0.030      331.354       -0.685      868.130
01/04/2015  04:01:00        1.080       59.384      -11.245        9.082       11.048       10.907       82.477      122.061      118.963        0.199        0.016       59.394        8.576        0.021      331.348       -0.694      868.121
01/04/2015  04:02:00        9.727       71.494      -14.362        8.147       12.776        7.152       66.366      163.224       51.156        0.285        0.014       72.152        4.951        0.005      331.430       -0.561      868.106
01/04/2015  04:03:00      -19.494       67.011      -10.369       20.717       20.343        8.219      429.200      413.849       67.554        0.294        0.046       69.789        5.259        0.006      331.542       -0.376      868.100
01/04/2015  04:04:00     -108.851      -21.337      -12.946       33.436       20.141       15.787     1117.944      405.670      249.234        0.712        0.089      110.922       13.589        0.015      331.246       -0.863      868.115
01/04/2015  04:05:00     -139.465      -25.073      -10.221       28.377       18.941       19.596      805.280      358.772      384.015        1.087        0.077      141.701       17.931        0.016      331.171       -0.987      868.138
01/04/2015  04:06:00      -99.031      -34.312       -4.178       12.975       11.494        7.806      168.355      132.114       60.929        0.568        0.018      104.807        2.263        0.000      331.122       -1.066      868.150
01/04/2015  04:07:00      -93.799      -33.575       -1.197       30.949       20.211       15.555      957.830      408.490      241.947        0.577        0.080       99.627       17.367        0.030      331.182       -0.967      868.153
01/04/2015  04:08:00      -71.518      -31.500        4.005       27.041       17.159       14.272      731.191      294.431      203.686        0.368        0.061       78.147       15.132        0.037      331.221       -0.903      868.161
01/04/2015  04:09:00      -53.209      -42.024        4.010       31.816       17.443       16.002     1012.274      304.256      256.049        0.309        0.079       67.802       17.367        0.066      331.338       -0.711      868.164
01/04/2015  04:10:00      -16.530      -18.427        0.475       11.224        8.759        8.689      125.973       76.722       75.499        0.045        0.014       24.755        4.259        0.030      331.443       -0.538      868.156
01/04/2015  04:11:00      -16.405       -9.061       -2.900        6.248        8.455        3.595       39.039       71.485       12.925        0.024        0.006       18.741        3.263        0.030      331.526       -0.403      868.141
01/04/2015  04:12:00      -48.383      -10.401      -10.245       13.843       13.614        5.425      191.629      185.345       29.429        0.148        0.020       49.489        3.178        0.004      331.610       -0.264      868.153
01/04/2015  04:13:00      -55.122      -27.433       -5.248       13.460        7.980        6.942      181.169       63.678       48.198        0.206        0.015       61.572        6.449        0.011      331.493       -0.458      868.155
01/04/2015  04:14:00       -3.735       -4.104        2.249       14.755       11.153        5.852      217.714      124.388       34.250        0.021        0.019        5.549        6.344        1.307      331.426       -0.566      868.179
01/04/2015  04:15:00       18.329       16.017        0.038        7.866       10.282        6.128       61.875      105.727       37.558        0.040        0.010       24.341        6.239        0.066      331.366       -0.664      868.217
01/04/2015  04:16:00       18.240       17.695       -8.836        7.188       15.185        5.779       51.664      230.590       33.394        0.052        0.016       25.412        7.025        0.076      331.220       -0.906      868.256
01/04/2015  04:17:00      -29.054      -11.973       -0.993       31.847        9.350        4.426     1014.258       87.425       19.589        0.105        0.056       31.425        7.519        0.057      331.372       -0.652      868.271
01/04/2015  04:18:00      -90.352      -27.543       -6.025       13.640       14.611        7.723      186.054      213.491       59.645        0.471        0.023       94.457        4.167        0.002      331.354       -0.685      868.268
01/04/2015  04:19:00      -59.401       -8.305       -2.817       20.090       13.490        7.493      403.601      181.989       56.145        0.212        0.032       59.979        7.658        0.016      331.322       -0.738      868.254
01/04/2015  04:20:00       -9.972      -23.669        3.866       12.226        9.352        7.993      149.469       87.464       63.884        0.049        0.015       25.684        6.446        0.063      331.356       -0.681      868.250
01/04/2015  04:21:00      -30.620      -26.900       -1.341       17.766        8.928        6.544      315.639       79.717       42.825        0.105        0.022       40.758        4.354        0.011      331.407       -0.599      868.255
01/04/2015  04:22:00      -47.033      -12.701       -5.483       20.638        8.157        6.591      425.944       66.532       43.437        0.147        0.027       48.718        7.531        0.024      331.398       -0.611      868.265
01/04/2015  04:23:00      -32.182      -14.840        0.685       24.928       14.912       11.335      621.410      222.357      128.485        0.111        0.049       35.439       12.324        0.121      331.306       -0.762      868.274
01/04/2015  04:24:00        2.019      -12.630        9.764       10.301        9.768       12.044      106.110       95.419      145.057        0.030        0.017       12.790        6.298        0.242      331.328       -0.728      868.284
01/04/2015  04:25:00       40.216        9.398        5.305       12.938       12.376       11.818      167.384      153.160      139.659        0.110        0.023       41.299        5.433        0.017      331.307       -0.763      868.290
01/04/2015  04:26:00       35.179       24.070       14.175       28.180       23.292       28.729      794.138      542.495      825.355        0.209        0.108       42.626       29.190        0.469      331.228       -0.894      868.281
01/04/2015  04:27:00        6.426       29.020       28.629       13.714       23.367       15.508      188.060      545.994      240.498        0.134        0.049       29.722       12.371        0.173      331.222       -0.900      868.268
01/04/2015  04:28:00       15.542       17.502        5.965        5.060        4.817        5.719       25.606       23.206       32.703        0.033        0.004       23.407        3.404        0.021      331.406       -0.598      868.266
01/04/2015  04:29:00       32.986       30.852        5.060       13.105       11.906       14.887      171.743      141.743      221.615        0.130        0.027       45.165       10.140        0.050      331.189       -0.957      868.263
01/04/2015  04:30:00       13.964       30.024       12.526       23.087       12.577       15.643      533.024      158.175      244.715        0.109        0.047       33.113       17.524        0.280      331.116       -1.078      868.261
01/04/2015  04:31:00        0.774        9.500       11.765        8.731        8.832       11.365       76.231       78.000      129.174        0.026        0.014        9.532        7.750        0.661      331.069       -1.155      868.257
01/04/2015  04:32:00        6.890        8.813        7.287        9.544        5.509        8.164       91.087       30.353       66.643        0.018        0.009       11.187        3.185        0.081      331.095       -1.112      868.235
01/04/2015  04:33:00       19.917       41.522        3.552        8.947       27.552       13.800       80.043      759.099      190.447        0.158        0.051       46.052       10.620        0.053      331.084       -1.128      868.217
01/04/2015  04:34:00       27.107      116.703      -16.691       18.537       15.428       14.282      343.613      238.028      203.984        0.771        0.039      119.810       11.564        0.009      330.828       -1.551      868.201
01/04/2015  04:35:00       28.052      101.254      -21.319       10.859       20.825       12.940      117.915      433.701      167.445        0.611        0.036      105.069        9.986        0.009      330.951       -1.347      868.170
01/04/2015  04:36:00       16.686       44.835      -16.072       14.030       21.057        8.364      196.845      443.411       69.961        0.163        0.036       47.839        7.093        0.022      330.911       -1.412      868.168
01/04/2015  04:37:00       -8.244       19.245      -10.405       11.816       10.268        6.870      139.620      105.428       47.195        0.042        0.015       20.937        7.437        0.126      330.965       -1.323      868.201
01/04/2015  04:38:00      -10.044        2.493        1.900       14.015        5.776       12.040      196.407       33.365      144.967        0.024        0.019       10.349       11.959        1.335      330.942       -1.362      868.239
01/04/2015  04:39:00       48.840       29.929       13.443       18.223       12.490       17.538      332.069      155.999      307.564        0.213        0.040       57.281       13.045        0.052      330.979       -1.301      868.225
01/04/2015  04:40:00       60.606       33.845       -2.369       16.879       16.706       11.779      284.898      279.090      138.735        0.276        0.035       69.416        7.572        0.012      330.937       -1.368      868.202
01/04/2015  04:41:00       54.195        2.434       12.721       25.849       23.864       15.140      668.190      569.491      229.233        0.229        0.073       54.250       14.481        0.071      331.017       -1.240      868.199
01/04/2015  04:42:00       72.717       37.215       20.671       17.166       18.552       19.826      294.657      344.194      393.070        0.407        0.052       81.686        9.919        0.015      330.937       -1.369      868.206
01/04/2015  04:43:00       14.720       -3.782        2.561       26.562       18.396        7.517      705.519      338.416       56.502        0.067        0.055       15.198       10.156        0.447      330.938       -1.368      868.239
01/04/2015  04:44:00      -45.024       -1.811       -9.059       21.678        8.109        5.153      469.953       65.763       26.558        0.134        0.028       45.060        3.011        0.004      331.034       -1.211      868.283
01/04/2015  04:45:00        7.339       11.283        9.527       23.557       16.021        8.225      554.912      256.667       67.658        0.058        0.044       13.460        6.192        0.212      330.995       -1.275      868.307
01/04/2015  04:46:00       58.200       41.527       17.202       14.827        8.002       16.148      219.850       64.038      260.756        0.298        0.027       71.496        5.297        0.005      331.101       -1.102      868.280
01/04/2015  04:47:00        8.050       -1.353        0.486       17.581        9.501        7.126      309.105       90.270       50.778        0.026        0.023        8.163        5.772        0.500      330.967       -1.320      868.289
01/04/2015  04:48:00       24.133       -0.689        0.425       17.403        9.638        9.480      302.856       92.894       89.877        0.053        0.024       24.143        3.752        0.024      331.089       -1.121      868.293
01/04/2015  04:49:00       10.267       24.449       26.362       20.116       22.354       21.225      404.648      499.699      450.513        0.138        0.068       26.517       14.875        0.315      331.063       -1.166      868.293
01/04/2015  04:50:00       -3.577       35.431       45.318       11.820       21.256       12.858      139.711      451.815      165.323        0.204        0.038       35.611        8.101        0.052      330.994       -1.275      868.297
01/04/2015  04:51:00       50.489       52.797       27.110       41.467       24.370       22.513     1719.514      593.919      506.820        0.445        0.141       73.053       22.022        0.091      330.997       -1.272      868.289
01/04/2015  04:52:00      101.262       61.858       18.357       48.564       34.999       23.975     2358.478     1224.924      574.817        0.929        0.208      118.661       19.438        0.027      330.979       -1.302      868.278
01/04/2015  04:53:00       22.991       46.550       46.481       29.525       46.596       22.542      871.707     2171.202      508.151        0.420        0.178       51.918       27.353        0.278      330.949       -1.351      868.295
01/04/2015  04:54:00      -12.922       -9.035        2.752       20.885       17.230       11.892      436.193      296.860      141.417        0.057        0.044       15.768        6.590        0.175      331.050       -1.186      868.336
01/04/2015  04:55:00       13.945       18.397       24.456       16.910       11.421       16.308      285.939      130.450      265.960        0.091        0.034       23.085        9.415        0.166      330.970       -1.315      868.342
01/04/2015  04:56:00       34.279       33.620       10.530       12.782       16.779       16.733      163.388      281.550      279.986        0.157        0.036       48.014        8.298        0.030      330.951       -1.348      868.322
01/04/2015  04:57:00       43.505       36.143       -5.574       13.775       20.773       13.201      189.763      431.510      174.254        0.201        0.040       56.560       11.544        0.042      330.867       -1.486      868.326
01/04/2015  04:58:00       23.098       20.040        5.225       25.752       20.068       14.574      663.163      402.742      212.392        0.112        0.064       30.580        8.168        0.071      330.870       -1.481      868.338
01/04/2015  04:59:00       17.441       45.196       -6.029       18.784       25.385       13.179      352.823      644.404      173.696        0.178        0.059       48.445       15.145        0.098      330.858       -1.499      868.353
01/04/2015  05:00:00      -21.960       17.978       -8.913       24.447       19.421        6.775      597.678      377.172       45.906        0.095        0.051       28.380        4.596        0.026      330.981       -1.299      868.382
01/04/2015  05:01:00      -94.822       -8.901       -9.039       22.426       14.858       14.013      502.939      220.754      196.367        0.504        0.046       95.239       10.168        0.011      330.783       -1.622      868.407
01/04/2015  05:02:00      -54.623       16.229       -9.600       30.977       12.816        7.728      959.554      164.255       59.723        0.226        0.059       56.983        5.122        0.008      330.869       -1.480      868.388
01/04/2015  05:03:00       21.735       30.729        0.363       21.552       22.794       15.349      464.482      519.581      235.599        0.132        0.061       37.639       13.855        0.135      331.073       -1.147      868.326
01/04/2015  05:04:00      -41.817       36.679      -11.437       41.552       23.289       10.220     1726.552      542.370      104.456        0.280        0.119       55.624        8.888        0.026      331.128       -1.056      868.315
01/04/2015  05:05:00      -64.273      -21.211       -5.474       50.930       41.258       22.502     2593.903     1702.255      506.352        0.471        0.240       67.683       25.521        0.142      330.873       -1.474      868.340
01/04/2015  05:06:00      -64.926       23.652      -13.267       35.844       29.758       23.300     1284.802      885.558      542.888        0.383        0.136       69.100       13.655        0.039      330.817       -1.568      868.340
01/04/2015  05:07:00       -6.564      -11.652        1.709       11.364       20.656        9.464      129.129      426.670       89.575        0.041        0.032       13.374        8.184        0.374      330.954       -1.341      868.323
01/04/2015  05:08:00      -60.376      -29.972       -2.837       21.695       11.978        6.739      470.658      143.470       45.410        0.261        0.033       67.406        4.681        0.005      331.063       -1.164      868.332
01/04/2015  05:09:00      -54.536      -14.855       -9.340       26.796       12.079       10.484      717.999      145.914      109.907        0.213        0.049       56.524       11.010        0.038      330.848       -1.516      868.330
01/04/2015  05:10:00      -33.520      -17.605       -9.047        8.610       10.724        6.233       74.134      115.010       38.851        0.087        0.011       37.862        4.320        0.013      330.956       -1.337      868.306
01/04/2015  05:11:00      -38.441      -32.162       -5.267       13.089       13.066        8.782      171.331      170.732       77.129        0.148        0.021       50.121        5.396        0.012      331.053       -1.182      868.308
01/04/2015  05:12:00        0.031      -12.123       -5.773       19.616        9.762        9.637      384.805       95.291       92.881        0.038        0.029       12.123        9.193        0.575      330.972       -1.313      868.313
01/04/2015  05:13:00       13.117        2.698        6.036        8.943        6.908        7.285       79.974       47.715       53.075        0.020        0.009       13.392        4.926        0.135      331.066       -1.158      868.308
01/04/2015  05:14:00        4.769        2.116        0.712        8.883        9.511        3.221       78.915       90.458       10.375        0.010        0.009        5.217        3.287        0.397      331.166       -0.993      868.316
01/04/2015  05:15:00       11.505        7.916       10.839       15.652        8.655        6.828      244.974       74.904       46.625        0.034        0.018       13.965        8.547        0.375      331.189       -0.957      868.334
01/04/2015  05:16:00       26.063       12.325       10.091       26.404        9.958       11.090      697.194       99.170      122.995        0.093        0.046       28.830       13.984        0.235      331.094       -1.110      868.359
01/04/2015  05:17:00        3.137       15.378        8.219        9.912       11.617        9.331       98.253      134.954       87.071        0.032        0.016       15.695        5.991        0.146      330.960       -1.335      868.389
01/04/2015  05:18:00       20.895       24.970       15.107       16.277        8.137       10.685      264.932       66.216      114.179        0.087        0.022       32.559        5.259        0.026      330.959       -1.333      868.399
01/04/2015  05:19:00        6.596       10.657       12.644       12.340       10.655        9.641      152.272      113.534       92.951        0.034        0.018       12.533        7.616        0.369      330.931       -1.380      868.396
01/04/2015  05:20:00       -8.495      -15.153       -1.066       17.007       10.302        5.899      289.223      106.121       34.796        0.037        0.022       17.372        6.247        0.129      330.922       -1.394      868.408
01/04/2015  05:21:00      -52.255       -5.979       -8.215        8.088       11.475        6.614       65.412      131.683       43.749        0.154        0.012       52.596        4.414        0.007      330.935       -1.372      868.433
01/04/2015  05:22:00      -43.545       -2.892       -5.302       13.249       13.419        9.617      175.533      180.065       92.482        0.119        0.022       43.640        4.514        0.011      330.935       -1.372      868.450
01/04/2015  05:23:00       -9.403      -15.774       -3.712       11.270        3.564        5.866      127.006       12.702       34.409        0.026        0.009       18.364        6.068        0.109      330.978       -1.303      868.450
01/04/2015  05:24:00      -24.475        0.814       -2.364       18.436        9.692        7.193      339.868       93.940       51.744        0.055        0.024       24.488        7.253        0.088      331.023       -1.230      868.444
01/04/2015  05:25:00      -23.986        9.740       -6.060        6.594        5.182        4.384       43.483       26.856       19.224        0.040        0.004       25.888        2.382        0.008      331.028       -1.221      868.423
01/04/2015  05:26:00      -53.515        5.577       -9.535       14.922        7.977        6.372      222.677       63.627       40.599        0.166        0.016       53.805        4.898        0.008      331.055       -1.178      868.428
01/04/2015  05:27:00      -62.499       -2.601       -8.110       13.184       12.664        9.601      173.818      160.384       92.180        0.220        0.021       62.553        6.341        0.010      330.962       -1.327      868.423
01/04/2015  05:28:00      -27.285       -9.886       -3.532        7.226       11.581        9.263       52.215      134.122       85.799        0.056        0.014       29.021        7.275        0.063      330.930       -1.378      868.406
01/04/2015  05:29:00       -2.235       -5.147        2.258       12.094        5.580        6.723      146.255       31.134       45.205        0.013        0.011        5.611        4.403        0.616      331.067       -1.157      868.399
01/04/2015  05:30:00       41.168       17.916        6.658       20.508       14.470        6.780      420.559      209.368       45.964        0.137        0.034       44.898        4.355        0.009      331.145       -1.027      868.368
01/04/2015  05:31:00       58.321       45.113        9.737       22.935        8.842       11.071      526.003       78.174      122.574        0.313        0.036       73.732        8.792        0.014      331.226       -0.895      868.344
01/04/2015  05:32:00       -4.661       29.503      -10.363       29.394       14.733        5.397      864.025      217.050       29.133        0.105        0.056       29.869       11.303        0.143      331.184       -0.964      868.357
01/04/2015  05:33:00      -88.581      -19.661      -14.150       27.375       17.541       13.948      749.378      307.698      194.550        0.484        0.063       90.737       13.820        0.023      331.016       -1.240      868.403
01/04/2015  05:34:00      -79.059       -4.964      -13.067       19.977       25.087       14.485      399.064      629.367      209.820        0.384        0.062       79.215        7.813        0.010      330.893       -1.444      868.426
01/04/2015  05:35:00      -63.893       11.353       -6.407       28.467       21.465       12.975      810.392      460.753      168.355        0.285        0.072       64.894        8.378        0.017      330.958       -1.336      868.430
01/04/2015  05:36:00      -23.491      -24.590       -3.319       22.121       15.939       14.326      489.340      254.050      205.238        0.106        0.047       34.008       14.041        0.170      331.045       -1.195      868.446
01/04/2015  05:37:00       10.009        1.538        6.577        9.064       10.550       13.019       82.150      111.311      169.505        0.025        0.018       10.126        9.941        0.964      331.099       -1.104      868.446
01/04/2015  05:38:00        3.420       23.481       32.096       13.704       15.254       11.546      187.786      232.681      133.306        0.107        0.028       23.729       10.388        0.192      331.167       -0.993      868.440
01/04/2015  05:39:00       -9.923      -10.166        1.293       14.836       15.394       12.792      220.110      236.963      163.630        0.041        0.031       14.206       10.646        0.562      331.183       -0.967      868.467
01/04/2015  05:40:00       -7.778        3.133       11.275       10.262        8.100        5.922      105.316       65.605       35.064        0.020        0.010        8.385        4.393        0.274      331.222       -0.902      868.481
01/04/2015  05:41:00       10.952       12.052       10.832        7.281        7.219        8.751       53.014       52.115       76.585        0.028        0.009       16.285        4.926        0.091      331.169       -0.989      868.472
01/04/2015  05:42:00       -4.729       36.831       -8.499       16.076        7.114        4.785      258.446       50.608       22.901        0.089        0.017       37.134        4.726        0.016      331.118       -1.072      868.476
01/04/2015  05:43:00        2.843       23.494        0.361       24.430       11.049        9.967      596.827      122.083       99.337        0.069        0.041       23.666       11.914        0.253      331.070       -1.154      868.480
01/04/2015  05:44:00       93.401       61.100       10.788       19.425       13.634       13.207      377.312      185.881      174.430        0.666        0.037      111.610        7.358        0.004      331.083       -1.129      868.455
01/04/2015  05:45:00       64.903       15.624       -7.085       28.709       32.901       16.643      824.189     1082.466      276.994        0.334        0.109       66.757       15.236        0.052      331.025       -1.228      868.446
01/04/2015  05:46:00      -47.251      -19.981      -14.218       39.330       15.516       11.579     1546.878      240.746      134.075        0.238        0.096       51.302        6.430        0.016      331.091       -1.116      868.497
01/04/2015  05:47:00      -98.114       -6.153       -9.962       17.978       19.182       12.299      323.216      367.938      151.255        0.530        0.042       98.306        4.907        0.002      330.967       -1.322      868.519
01/04/2015  05:48:00      -74.164      -12.759       -3.960       12.225       16.455        9.360      149.446      270.754       87.603        0.309        0.025       75.254        6.458        0.007      331.002       -1.264      868.492
01/04/2015  05:49:00      -77.812      -10.023      -12.702       10.769       12.605        9.289      115.968      158.882       86.288        0.334        0.018       78.455        4.219        0.003      331.061       -1.167      868.462
01/04/2015  05:50:00      -72.277       -3.162      -10.206        6.426        8.116        6.569       41.293       65.872       43.146        0.274        0.008       72.347        2.032        0.001      331.148       -1.025      868.435
01/04/2015  05:51:00     -100.816       -7.233      -10.977       26.895       10.684        9.146      723.364      114.151       83.644        0.563        0.046      101.075       10.411        0.011      331.177       -0.976      868.430
01/04/2015  05:52:00     -129.170       -8.288      -11.648       44.509       23.300       20.256     1981.068      542.903      410.289        0.991        0.147      129.436       23.710        0.034      331.028       -1.221      868.438
01/04/2015  05:53:00     -128.998      -35.825       -6.869       29.282       19.409       14.228      857.418      376.699      202.448        0.970        0.072      133.880       11.964        0.008      330.971       -1.314      868.446
01/04/2015  05:54:00      -82.713      -32.138       -1.695       17.663       20.015       11.088      311.993      400.601      122.953        0.436        0.042       88.738        7.940        0.008      331.046       -1.194      868.449
01/04/2015  05:55:00      -73.625      -31.369      -12.697       16.189       12.307       11.622      262.081      151.464      135.082        0.356        0.027       80.029        9.941        0.015      331.174       -0.981      868.446
01/04/2015  05:56:00      -97.289      -62.011       -0.023       25.324       17.516       14.643      641.326      306.802      214.420        0.724        0.058      115.371       14.231        0.015      331.270       -0.823      868.444
01/04/2015  05:57:00      -77.851      -56.461        7.849       40.844       29.566       21.349     1668.230      874.138      455.797        0.615        0.150       96.170       18.441        0.037      331.314       -0.750      868.451
01/04/2015  05:58:00      -84.564      -57.587       -2.434       26.193       25.147       16.618      686.056      632.385      276.168        0.603        0.080      102.310       16.668        0.027      331.365       -0.667      868.445
01/04/2015  05:59:00      -73.937      -53.107        5.179       36.714       27.855       22.217     1347.937      775.927      493.604        0.547        0.131       91.033       20.395        0.050      331.424       -0.572      868.443
01/04/2015  06:00:00      -92.189      -66.302        3.464       60.726       44.580       30.135     3687.699     1987.419      908.105        0.974        0.329      113.555       28.351        0.062      331.493       -0.457      868.463
01/04/2015  06:01:00     -113.627      -82.782       12.065       56.976       37.627       28.178     3246.270     1415.794      793.975        1.268        0.273      140.585       24.407        0.030      331.635       -0.222      868.476
01/04/2015  06:02:00     -130.506      -83.852        0.820       42.188       39.713       26.667     1779.808     1577.114      711.105        1.407        0.203      155.122       22.567        0.021      331.453       -0.522      868.472
01/04/2015  06:03:00     -120.465      -75.896       -2.992       55.672       35.946       26.773     3099.399     1292.102      716.807        1.269        0.255      142.380       24.052        0.029      331.468       -0.498      868.462
01/04/2015  06:04:00     -129.758      -79.827       -2.840       31.052       25.562       22.066      964.203      653.401      486.916        1.266        0.105      152.346       18.883        0.015      331.429       -0.563      868.453
01/04/2015  06:05:00     -115.729      -50.918       -9.175       28.094       24.137       15.051      789.292      582.607      226.518        0.883        0.080      126.435       12.388        0.010      331.414       -0.587      868.443
01/04/2015  06:06:00     -112.224      -13.533       -5.826       30.180       23.923       14.659      910.854      572.290      214.879        0.725        0.085      113.037       16.670        0.022      331.362       -0.673      868.439
01/04/2015  06:07:00      -82.856      -11.261       -4.946       33.551       27.294       17.980     1125.655      744.951      323.284        0.460        0.110       83.618       16.337        0.038      331.366       -0.665      868.444
01/04/2015  06:08:00      -51.959      -18.612       -1.720       19.158       17.181       14.035      367.043      295.184      196.978        0.195        0.043       55.192        9.546        0.030      331.392       -0.624      868.478
01/04/2015  06:09:00      -71.896       -9.191       -2.693       28.480       15.084       13.959      811.093      227.520      194.842        0.325        0.062       72.481       15.996        0.049      331.435       -0.553      868.510
01/04/2015  06:10:00      -66.722      -19.957       -0.055       30.397       15.703       11.515      923.959      246.595      132.587        0.308        0.065       69.643       12.606        0.033      331.455       -0.520      868.528
01/04/2015  06:11:00      -18.979       -9.388       -2.228       12.683       17.999        8.285      160.869      323.947       68.642        0.050        0.028       21.174        6.105        0.083      331.579       -0.316      868.507
01/04/2015  06:12:00       -4.471      -17.733       -0.938       11.688        9.251       11.001      136.614       85.581      121.018        0.034        0.017       18.288        8.079        0.195      331.603       -0.275      868.504
01/04/2015  06:13:00      -10.380       -4.083       -1.730       14.192        8.893        7.614      201.405       79.083       57.975        0.023        0.017       11.154        6.994        0.393      331.912        0.234      868.550
01/04/2015  06:14:00       14.893       22.779        8.756       34.008       18.037       11.121     1156.523      325.340      123.685        0.121        0.080       27.216       13.035        0.229      331.640       -0.214      868.584
01/04/2015  06:15:00       22.287       46.577      -13.185       15.969       20.877        9.451      254.996      435.858       89.323        0.181        0.039       51.635        7.994        0.024      331.414       -0.587      868.605
01/04/2015  06:16:00        1.636       -3.477        0.620        4.835        8.283        5.015       23.377       68.612       25.154        0.007        0.006        3.843        5.659        2.169      331.437       -0.549      868.650
01/04/2015  06:17:00       19.527       13.673       14.821        7.256       17.957       12.702       52.643      322.447      161.347        0.066        0.027       23.838       12.332        0.268      331.446       -0.535      868.657
01/04/2015  06:18:00       13.203       28.300       19.756       16.163       19.191       11.880      261.241      368.289      141.143        0.107        0.039       31.228        8.565        0.075      331.388       -0.628      868.628
01/04/2015  06:19:00       -1.834        7.799       21.973        8.055       12.212       10.792       64.884      149.128      116.459        0.044        0.017        8.012        8.980        1.256      331.447       -0.534      868.623
01/04/2015  06:20:00       15.290       64.924       62.667       30.357       19.819       18.253      921.526      392.806      333.182        0.501        0.082       66.700       12.386        0.034      331.361       -0.674      868.604
01/04/2015  06:21:00        0.544       20.310       29.127       19.946       19.666       13.026      397.835      386.735      169.674        0.111        0.048       20.318       12.266        0.364      331.417       -0.584      868.606
01/04/2015  06:22:00       -7.668        3.076        4.981        7.043        8.857        6.417       49.603       78.445       41.180        0.013        0.008        8.262        4.663        0.319      331.468       -0.498      868.639
01/04/2015  06:23:00      -31.976       13.178       -0.142       22.499        6.453        5.524      506.210       41.636       30.514        0.089        0.029       34.585        7.361        0.045      331.492       -0.459      868.654
01/04/2015  06:24:00     -100.668       -1.271       -9.531       14.488       12.118        8.476      209.908      146.845       71.841        0.533        0.021      100.676        6.826        0.005      331.398       -0.614      868.685
01/04/2015  06:25:00      -44.082       -6.067        3.154       15.606        8.852       11.429      243.554       78.353      130.612        0.122        0.023       44.498       11.248        0.064      331.491       -0.461      868.692
01/04/2015  06:26:00       25.963       12.275       13.957       23.080       13.309       11.628      532.675      177.141      135.209        0.093        0.042       28.718       11.552        0.162      331.497       -0.448      868.681
01/04/2015  06:27:00       17.250       -0.161      -12.274       20.904       20.678        7.390      436.970      427.575       54.610        0.068        0.046       17.251        6.733        0.152      331.455       -0.519      868.725
01/04/2015  06:28:00       -8.831       12.231       -3.394        6.938       12.372        6.712       48.130      153.069       45.052        0.024        0.012       15.085        7.417        0.242      331.531       -0.395      868.811
01/04/2015  06:29:00       36.429       35.166       12.971       22.116       18.910       18.643      489.128      357.570      347.579        0.196        0.060       50.633       15.881        0.098      331.479       -0.478      868.856
01/04/2015  06:30:00       61.177       26.386       -2.952       21.153       22.862       16.748      447.449      522.674      280.505        0.285        0.063       66.625        5.975        0.008      331.302       -0.771      868.849
01/04/2015  06:31:00       36.119       26.681       -6.566       23.428       26.526       16.389      548.870      703.626      268.604        0.179        0.076       44.905        9.021        0.040      331.213       -0.916      868.888
01/04/2015  06:32:00       13.905       39.471       -4.245       13.319       17.499       11.802      177.401      306.231      139.296        0.120        0.031       41.849        9.112        0.047      331.200       -0.939      868.933
01/04/2015  06:33:00       19.517       43.285       -5.751        6.529        6.444        6.043       42.630       41.528       36.520        0.120        0.006       47.481        3.776        0.006      331.312       -0.754      868.945
01/04/2015  06:34:00        4.071       30.795       -4.656        5.616        9.813        4.505       31.539       96.297       20.297        0.057        0.007       31.063        5.339        0.030      331.343       -0.702      868.955
01/04/2015  06:35:00      -29.217       13.435       -2.413       17.545        8.795        5.888      307.821       77.344       34.665        0.073        0.021       32.158        4.861        0.023      331.405       -0.601      868.996
01/04/2015  06:36:00      -56.318       15.069       -3.401       10.728       10.941        5.279      115.097      119.712       27.866        0.184        0.013       58.299        3.116        0.003      331.491       -0.461      869.052
01/04/2015  06:37:00      -55.402      -15.532       -6.147       27.812       11.512       10.845      773.487      132.521      117.610        0.219        0.051       57.538       13.987        0.059      331.567       -0.336      869.090
01/04/2015  06:38:00       -9.557       -2.115        0.103        9.860        6.773        7.347       97.214       45.871       53.978        0.015        0.010        9.788        5.982        0.374      331.584       -0.306      869.092
01/04/2015  06:39:00      -27.443       23.197       -4.779       16.028       16.065        9.477      256.905      258.076       89.810        0.096        0.030       35.934       10.203        0.081      331.587       -0.305      869.085
01/04/2015  06:40:00      -61.484       24.281       -4.433       20.223       12.575        8.549      408.987      158.128       73.092        0.251        0.032       66.105        7.855        0.014      331.594       -0.290      869.095
01/04/2015  06:41:00      -89.270        7.967      -11.687       10.197       13.830        8.438      103.988      191.276       71.194        0.427        0.018       89.625        5.484        0.004      331.494       -0.455      869.110
01/04/2015  06:42:00      -28.335      -11.342       -0.613       22.489       15.873       12.160      505.765      251.960      147.876        0.092        0.045       30.520       11.071        0.132      331.479       -0.481      869.105
01/04/2015  06:43:00       -5.483       -9.286       -8.422        7.188        7.091        5.120       51.661       50.289       26.213        0.016        0.006       10.784        3.681        0.117      331.608       -0.269      869.108
01/04/2015  06:44:00       35.685       22.439       -2.439       27.369       22.320       11.296      749.040      498.189      127.600        0.158        0.069       42.154        9.666        0.053      331.594       -0.289      869.130
01/04/2015  06:45:00       78.425       46.430        0.623       30.734       32.842       21.228      944.595     1078.587      450.627        0.539        0.124       91.138       13.388        0.022      331.403       -0.606      869.166
01/04/2015  06:46:00       24.172       26.268        1.564       16.069       19.271       13.520      258.200      371.382      182.784        0.104        0.041       35.697       11.865        0.110      331.365       -0.667      869.198
01/04/2015  06:47:00       13.552       22.748        0.061       19.582       25.086       10.902      383.468      629.298      118.850        0.092        0.057       26.479       11.057        0.174      331.341       -0.708      869.239
01/04/2015  06:48:00       42.478       32.602        4.211       30.906       15.007       17.736      955.211      225.222      314.575        0.219        0.075       53.547       11.120        0.043      331.367       -0.664      869.262
01/04/2015  06:49:00      102.546       74.166       27.420       31.563       26.015       31.640      996.196      676.779     1001.103        0.972        0.134      126.556       17.274        0.019      331.303       -0.768      869.255
01/04/2015  06:50:00       78.988       43.064       24.048       45.137       27.426       27.136     2037.316      752.212      736.369        0.610        0.176       89.965       15.096        0.028      331.212       -0.919      869.271
01/04/2015  06:51:00       71.009       37.372        4.878       32.792       24.867       19.303     1075.326      618.351      372.604        0.426        0.103       80.243       12.666        0.025      331.116       -1.076      869.318
01/04/2015  06:52:00      132.517       64.133        6.407       43.099       28.186       25.393     1857.528      794.433      644.781        1.251        0.165      147.220       20.103        0.019      331.080       -1.136      869.327
01/04/2015  06:53:00      118.505       42.184        6.132       43.170       37.846       33.359     1863.624     1432.330     1112.792        1.013        0.220      125.789       18.601        0.022      331.065       -1.161      869.314
01/04/2015  06:54:00      119.333       63.096       15.906       35.145       33.973       28.454     1235.159     1154.167      809.617        1.084        0.160      134.987       19.064        0.020      331.041       -1.199      869.304
01/04/2015  06:55:00       81.088       34.147       39.943       35.364       32.350       31.798     1250.594     1046.509     1011.143        0.632        0.165       87.985       18.529        0.044      331.099       -1.105      869.305
01/04/2015  06:56:00       11.609      -54.337       -0.403       32.516       25.052       18.526     1057.267      627.583      343.195        0.256        0.101       55.563       12.363        0.050      331.274       -0.816      869.349
01/04/2015  06:57:00       14.265        7.309       20.267       28.779       22.406       19.050      828.209      502.008      362.919        0.118        0.085       16.029       16.138        1.014      331.307       -0.761      869.372
01/04/2015  06:58:00       96.752       40.381       27.103       36.975       32.832       28.638     1367.142     1077.941      820.149        0.749        0.163      104.840       24.127        0.053      331.295       -0.781      869.335
01/04/2015  06:59:00       96.729       51.484       30.218       45.922       31.905       32.717     2108.861     1017.931     1070.372        0.856        0.210      109.577       26.041        0.056      331.261       -0.838      869.324
01/04/2015  07:00:00      110.012       39.423        9.405       39.899       31.337       21.591     1591.921      982.006      466.150        0.839        0.152      116.862       16.237        0.019      331.194       -0.949      869.354
01/04/2015  07:01:00       73.832       10.142       22.769       38.284       31.192       28.587     1465.674      972.910      817.216        0.466        0.163       74.525       21.939        0.087      331.196       -0.945      869.391
01/04/2015  07:02:00        3.327      -11.492       14.830       17.235       40.634       19.451      297.046     1651.157      378.336        0.134        0.116       11.964       23.624        3.899      331.272       -0.820      869.427
01/04/2015  07:03:00      -12.165       -7.887       -1.933       38.087       26.825       18.177     1450.598      719.597      330.416        0.136        0.125       14.498       18.601        1.646      331.398       -0.612      869.472
01/04/2015  07:04:00       -1.675       -8.884        9.862       24.764       19.106       14.470      613.274      365.048      209.392        0.068        0.059        9.041        8.847        0.958      331.492       -0.458      869.484
01/04/2015  07:05:00       -2.682       32.454       50.890       14.205       25.852       14.205      201.791      668.312      201.794        0.236        0.054       32.565        9.528        0.086      331.474       -0.488      869.465
01/04/2015  07:06:00       54.032       51.284       22.823       19.659       12.173       21.389      386.471      148.189      457.495        0.353        0.050       74.495        6.895        0.009      331.471       -0.492      869.473
01/04/2015  07:07:00       17.757       13.659      -12.275       16.305       21.403       10.003      265.868      458.085      100.062        0.074        0.041       22.403        8.803        0.154      331.434       -0.554      869.514
01/04/2015  07:08:00       12.627       -4.568        1.823       18.447       15.537       10.523      340.301      241.391      110.724        0.044        0.035       13.428        9.350        0.485      331.499       -0.447      869.557
01/04/2015  07:09:00       59.508       41.601       12.604       15.728       12.154       18.176      247.371      147.731      330.370        0.308        0.036       72.607        8.515        0.014      331.476       -0.484      869.579
01/04/2015  07:10:00       33.613       63.729       -2.267       16.577       28.511       21.139      274.791      812.868      446.847        0.337        0.077       72.050       20.124        0.078      331.465       -0.501      869.621
01/04/2015  07:11:00       47.263       31.257        4.484       21.979       29.824       19.720      483.068      889.484      388.875        0.250        0.088       56.664       16.238        0.082      331.445       -0.535      869.662
01/04/2015  07:12:00       -2.103        3.511       25.072        7.114       16.175       10.647       50.603      261.628      113.349        0.054        0.021        4.093        9.657        5.567      331.573       -0.324      869.721
01/04/2015  07:13:00       19.004       34.506       41.168       24.978       21.649       15.680      623.921      468.699      245.859        0.229        0.067       39.393       19.353        0.241      331.482       -0.476      869.750
01/04/2015  07:14:00       52.981       72.470       65.389       22.791       28.431       20.597      519.414      808.307      424.251        0.704        0.088       89.771       15.926        0.031      331.459       -0.515      869.731
01/04/2015  07:15:00       66.644       52.579       43.717       45.320       35.918       32.521     2053.922     1290.089     1057.628        0.676        0.220       84.888       19.567        0.053      331.493       -0.457      869.717
01/04/2015  07:16:00       17.060      -15.741       17.540       29.532       45.543       30.619      872.118     2074.129      937.496        0.236        0.194       23.213       33.853        2.127      331.578       -0.316      869.743
01/04/2015  07:17:00       -0.716      -26.775        6.479       14.221       25.189       12.361      202.229      634.479      152.784        0.087        0.049       26.784        8.760        0.107      331.653       -0.193      869.791
01/04/2015  07:18:00       -2.597       -5.926        2.708       13.064        9.922       11.522      170.661       98.451      132.762        0.023        0.020        6.470       10.310        2.540      331.650       -0.198      869.822
01/04/2015  07:19:00      -10.632       13.908       27.827       14.319       15.430       12.186      205.030      238.089      148.507        0.084        0.030       17.507        9.485        0.294      331.627       -0.236      869.846
01/04/2015  07:20:00      -63.654       10.136       -2.900       17.428       11.696       10.686      303.731      136.787      114.194        0.236        0.028       64.456        9.523        0.022      331.613       -0.260      869.905
01/04/2015  07:21:00      -57.811       -1.186        1.427       27.051       15.917       11.900      731.775      253.343      141.617        0.224        0.056       57.823       11.862        0.042      331.603       -0.277      869.959
01/04/2015  07:22:00       55.169       38.452       19.102       23.349       14.299       21.739      545.187      204.470      472.590        0.305        0.061       67.247       13.095        0.038      331.591       -0.297      869.936
01/04/2015  07:23:00       -4.958       17.197       26.772       24.055       25.207       27.173      578.651      635.376      738.356        0.149        0.098       17.898       17.987        1.010      331.640       -0.215      869.910
01/04/2015  07:24:00      -36.445       22.833        1.672       39.648       22.940       19.725     1571.978      526.228      389.058        0.217        0.124       43.007       25.516        0.352      331.632       -0.228      869.937
01/04/2015  07:25:00      -20.392       36.168       11.762       44.871       16.500       25.224     2013.431      272.265      636.239        0.239        0.146       41.521       30.095        0.525      331.581       -0.312      869.994
01/04/2015  07:26:00       68.447       68.018       -9.526       35.532       38.161       29.207     1262.535     1456.235      853.040        0.649        0.179       96.496       24.993        0.067      331.478       -0.480      870.016
01/04/2015  07:27:00       90.084       36.816        6.635       60.311       33.784       22.252     3637.394     1141.382      495.159        0.739        0.264       97.317        8.835        0.008      331.502       -0.441      870.092
01/04/2015  07:28:00       12.866        8.560       -8.589       20.087       12.235        8.937      403.481      149.686       79.867        0.047        0.032       15.454        7.882        0.260      331.523       -0.410      870.213
01/04/2015  07:29:00        3.025       32.135       -1.207        7.159        9.522        8.218       51.256       90.677       67.534        0.063        0.010       32.277        5.714        0.031      331.557       -0.350      870.269
01/04/2015  07:30:00       15.357       21.745        6.522       22.083       18.134       11.848      487.677      328.859      140.373        0.085        0.048       26.621       12.841        0.233      331.547       -0.369      870.295
01/04/2015  07:31:00       59.546       47.516       39.727       42.163       28.484       24.536     1777.756      811.346      602.035        0.529        0.160       76.181       23.105        0.092      331.544       -0.371      870.287
01/04/2015  07:32:00       36.777       23.414       32.395       32.836       19.938       20.556     1078.211      397.520      422.559        0.242        0.095       43.597       17.360        0.159      331.488       -0.465      870.361
01/04/2015  07:33:00      108.590       51.467       41.441       51.303       32.369       42.541     2631.951     1047.734     1809.705        1.082        0.274      120.169       18.124        0.023      331.412       -0.590      870.377
01/04/2015  07:34:00       61.762       26.266       29.132       73.517       39.612       27.327     5404.771     1569.074      746.754        0.654        0.386       67.115       12.308        0.034      331.344       -0.702      870.401
01/04/2015  07:35:00      -20.753       -0.028        6.947       18.542       18.928       16.306      343.813      358.282      265.888        0.072        0.048       20.753        9.792        0.223      331.420       -0.576      870.511
01/04/2015  07:36:00       95.281       49.168        8.120       53.808       18.300       13.486     2895.344      334.874      181.878        0.749        0.171      107.219        9.785        0.008      331.349       -0.692      870.521
01/04/2015  07:37:00      105.751       60.783       24.233       57.514       48.085       34.265     3307.905     2312.210     1174.075        1.113        0.340      121.975       19.351        0.025      331.347       -0.698      870.459
01/04/2015  07:38:00       -4.670       21.429      -11.065       20.533       14.880       12.818      421.605      221.408      164.305        0.071        0.040       21.932        6.898        0.099      331.358       -0.680      870.516
01/04/2015  07:39:00        2.165       19.579       -3.888       14.991       12.676       10.618      224.745      160.692      112.749        0.045        0.025       19.699        3.456        0.031      331.390       -0.626      870.537
01/04/2015  07:40:00       56.910       44.988       22.198       29.511       14.675       18.205      870.912      215.367      331.424        0.359        0.071       72.544       11.314        0.024      331.396       -0.615      870.516
01/04/2015  07:41:00       87.950       45.038       10.652       19.345       21.872       16.753      374.225      478.385      280.676        0.551        0.057       98.812       12.741        0.017      331.396       -0.616      870.489
01/04/2015  07:42:00       53.283       38.836        4.203       37.658       23.232       18.853     1418.099      539.722      355.426        0.334        0.116       65.934        8.388        0.016      331.378       -0.645      870.468
01/04/2015  07:43:00       36.846       13.320       -0.031       14.892       10.766       13.145      221.764      115.911      172.779        0.102        0.026       39.180        8.122        0.043      331.370       -0.658      870.479
01/04/2015  07:44:00       12.058       12.043       -4.066        9.847       14.342        9.728       96.966      205.688       94.642        0.035        0.020       17.042        7.879        0.214      331.399       -0.611      870.495
01/04/2015  07:45:00       14.613       14.858        8.897        7.413        6.782        6.745       54.946       45.998       45.498        0.033        0.007       20.840        5.402        0.067      331.427       -0.565      870.519
01/04/2015  07:46:00        0.565       33.424       -5.494        7.103        5.441        5.907       50.454       29.601       34.892        0.063        0.006       33.429        2.899        0.008      331.435       -0.550      870.556
01/04/2015  07:47:00        6.365       20.700       -4.822        5.823        7.125        4.793       33.910       50.766       22.975        0.030        0.005       21.657        3.089        0.020      331.434       -0.554      870.603
01/04/2015  07:48:00        2.954        4.385       -7.597        5.688        5.337        4.040       32.349       28.480       16.324        0.008        0.004        5.287        2.879        0.297      331.467       -0.500      870.633
01/04/2015  07:49:00        7.220        6.782        9.495        5.717        6.613        7.628       32.681       43.728       58.187        0.016        0.007        9.905        3.798        0.147      331.550       -0.363      870.643
01/04/2015  07:50:00        8.560       29.856       13.876        8.848        9.842        8.462       78.296       96.862       71.610        0.070        0.012       31.059        5.858        0.036      331.533       -0.391      870.648
01/04/2015  07:51:00       17.448       49.968       16.767       17.956       14.036       17.716      322.432      197.015      313.842        0.196        0.042       52.927        4.947        0.009      331.526       -0.403      870.668
01/04/2015  07:52:00       -0.482       16.833       -2.052       12.865       11.762        5.909      165.513      138.346       34.911        0.031        0.017       16.840        3.160        0.035      331.540       -0.380      870.712
01/04/2015  07:53:00       -0.903        7.832        7.725       27.882       16.949        9.771      777.405      287.252       95.464        0.064        0.058        7.884        6.931        0.773      331.544       -0.373      870.726
01/04/2015  07:54:00      -83.531      -22.881       -6.229       24.693       20.448       11.538      609.754      418.106      133.136        0.435        0.058       86.608        4.785        0.003      331.638       -0.217      870.784
01/04/2015  07:55:00      -85.594      -55.367        2.877       51.744       28.816       24.024     2677.436      830.377      577.133        0.724        0.204      101.940       21.141        0.043      331.662       -0.178      870.831
01/04/2015  07:56:00      -19.753      -30.535        7.545       25.675       43.353       20.610      659.201     1879.478      424.772        0.217        0.148       36.367       19.593        0.290      331.759       -0.018      870.827
01/04/2015  07:57:00      -28.680        3.497        2.210       20.330       14.166       10.530      413.328      200.667      110.886        0.078        0.036       28.893       11.670        0.163      331.752       -0.033      870.813
01/04/2015  07:58:00      -76.493      -14.773      -14.478       16.202       19.361       11.675      262.516      374.829      136.305        0.353        0.039       77.907        9.661        0.015      331.729       -0.066      870.815
01/04/2015  07:59:00      -12.743      -33.798       -0.654       35.625       22.400       18.335     1269.153      501.778      336.155        0.171        0.105       36.120       19.595        0.294      331.876        0.174      870.846
01/04/2015  08:00:00       -9.673        3.063       10.173       15.962       14.421       15.016      254.771      207.959      225.491        0.045        0.034       10.147       10.247        1.020      331.856        0.140      870.896
01/04/2015  08:01:00       -3.781       16.804       15.557       12.118       10.966       12.875      146.844      120.257      165.758        0.049        0.022       17.224        9.827        0.325      331.844        0.122      870.917
01/04/2015  08:02:00      -20.217       10.288       -2.203        7.714        9.015        7.290       59.508       81.265       53.141        0.036        0.010       22.684        6.135        0.073      331.802        0.053      870.948
01/04/2015  08:03:00        1.761        3.916       -4.935        8.257       10.017        6.035       68.172      100.348       36.426        0.012        0.010        4.294        5.943        1.915      331.802        0.052      870.958
01/04/2015  08:04:00      -52.894      -10.498       -6.618       29.300       11.303        7.210      858.470      127.756       51.984        0.199        0.052       53.926        3.754        0.005      331.809        0.064      870.977
01/04/2015  08:05:00      -57.873       -9.154       -0.125       32.606       16.019       13.120     1063.161      256.619      172.145        0.246        0.075       58.593       16.074        0.075      331.827        0.092      870.978
01/04/2015  08:06:00       33.225       32.199       20.631       22.955       19.678       19.123      526.913      387.220      365.697        0.192        0.064       46.268       16.661        0.130      331.835        0.108      870.963
01/04/2015  08:07:00       24.726       21.847        7.200       32.004       19.097       11.144     1024.247      364.694      124.195        0.133        0.076       32.995       11.502        0.122      331.812        0.068      870.990
01/04/2015  08:08:00      -47.204        1.763       -5.759       41.999       20.770       14.088     1763.950      431.379      198.481        0.233        0.120       47.237        7.832        0.027      331.828        0.096      871.059
01/04/2015  08:09:00      -76.186       -7.677       -9.285       26.654       17.075       10.241      710.433      291.542      104.871        0.353        0.055       76.572       10.177        0.018      331.814        0.072      871.082
01/04/2015  08:10:00      -12.669       29.888       12.293       28.378       16.881       17.313      805.305      284.967      299.747        0.130        0.070       32.463       19.930        0.377      331.834        0.104      871.067
01/04/2015  08:11:00       39.810       34.887       10.586       16.773       13.459       21.889      281.340      181.133      479.134        0.193        0.047       52.933        9.248        0.031      331.750       -0.033      871.045
01/04/2015  08:12:00      -38.110       -2.664        5.369       27.731       14.933       15.873      769.021      222.988      251.956        0.137        0.062       38.203       15.494        0.164      331.761       -0.014      871.063
01/04/2015  08:13:00      -49.712      -46.674        3.210       47.262       42.244       24.508     2233.704     1784.518      600.636        0.464        0.231       68.189       23.779        0.122      331.902        0.217      871.101
01/04/2015  08:14:00     -110.609      -84.911        4.525       42.307       40.557       23.447     1789.903     1644.883      549.763        1.172        0.199      139.442       20.910        0.022      331.869        0.163      871.134
01/04/2015  08:15:00     -113.533      -66.747       -3.117       42.044       30.321       18.136     1767.670      919.361      328.904        1.018        0.151      131.700        9.734        0.005      331.882        0.183      871.154
01/04/2015  08:16:00      -27.786      -42.489       12.170       31.209       22.925       20.690      974.015      525.567      428.056        0.233        0.096       50.768       18.897        0.139      331.890        0.196      871.175
01/04/2015  08:17:00      -28.713      -23.517        1.350       28.300       12.322       13.584      800.879      151.832      184.523        0.126        0.057       37.114       12.939        0.122      331.917        0.242      871.200
01/04/2015  08:18:00       -4.416      -24.656        6.547       14.945       23.596        9.603      223.358      556.770       92.217        0.077        0.044       25.048        8.479        0.115      331.996        0.372      871.216
01/04/2015  08:19:00        0.189       -2.330        5.252       10.699        9.046        8.957      114.476       81.822       80.226        0.015        0.014        2.338        5.501        5.538      332.047        0.456      871.225
01/04/2015  08:20:00        6.470       10.763        2.898        7.078       12.177        6.443       50.094      148.281       41.517        0.020        0.012       12.558        6.888        0.301      331.982        0.350      871.230
01/04/2015  08:21:00       11.495       13.530       -8.252       12.477       15.918        5.733      155.686      253.379       32.869        0.041        0.022       17.754        1.912        0.012      331.943        0.282      871.238
01/04/2015  08:22:00      -80.150      -40.839       -0.733       50.335       31.946       24.894     2533.587     1020.518      619.728        0.613        0.209       89.955       11.440        0.016      332.014        0.401      871.308
01/04/2015  08:23:00      -85.219      -61.535        6.884       56.376       50.368       29.887     3178.221     2536.950      893.228        0.885        0.330      105.113       23.557        0.050      331.955        0.304      871.350
01/04/2015  08:24:00      -89.470      -49.008      -11.974       25.889       24.111       14.007      670.244      581.331      196.186        0.600        0.072      102.013        7.578        0.006      331.927        0.255      871.306
01/04/2015  08:25:00      -91.102      -62.677       -0.200       30.083       31.511       17.295      905.010      992.932      299.104        0.721        0.110      110.580        9.920        0.008      331.973        0.331      871.284
01/04/2015  08:26:00      -67.338      -75.879       -7.062       46.366       30.303       20.149     2149.806      918.284      405.989        0.691        0.174      101.449       17.319        0.029      332.013        0.399      871.250
01/04/2015  08:27:00      -14.563       -2.994       12.155       14.512       27.475       12.751      210.609      754.872      162.587        0.075        0.056       14.868       11.172        0.565      332.099        0.542      871.191
01/04/2015  08:28:00      -71.253       12.589       -9.218       25.804       15.735       10.896      665.870      247.601      118.714        0.318        0.052       72.356       12.619        0.030      331.972        0.332      871.223
01/04/2015  08:29:00      -45.481      -41.117       -1.309       49.061       28.890       20.294     2406.993      834.654      411.834        0.371        0.183       61.311       14.909        0.059      332.059        0.476      871.290
01/04/2015  08:30:00       -8.740      -53.537       12.656       24.333       24.526       23.452      592.075      601.508      549.984        0.242        0.087       54.246       16.747        0.095      332.109        0.558      871.324
01/04/2015  08:31:00      -41.292        9.983       19.408       27.374       20.389       22.736      749.342      415.691      516.910        0.193        0.084       42.482       16.238        0.146      332.168        0.656      871.353
01/04/2015  08:32:00      -86.017      -26.262        1.135       38.170       35.104       18.607     1456.961     1232.275      346.209        0.556        0.152       89.937        9.229        0.011      332.125        0.585      871.431
01/04/2015  08:33:00      -85.445      -56.797        0.566       59.231       29.130       22.669     3508.292      848.531      513.875        0.770        0.244      102.600       20.817        0.041      332.091        0.527      871.467
01/04/2015  08:34:00       24.709       23.850       26.973       16.949       26.035       16.246      287.267      677.832      263.919        0.157        0.061       34.342        7.387        0.046      332.164        0.649      871.413
01/04/2015  08:35:00        6.479       45.593      -11.054       20.953       22.333       13.652      439.033      498.747      186.389        0.168        0.056       46.051       12.645        0.075      332.063        0.482      871.405
01/04/2015  08:36:00      -22.861      -29.017        4.808       37.056       25.203       16.247     1373.166      635.186      263.950        0.183        0.114       36.940       17.505        0.225      332.159        0.638      871.423
01/04/2015  08:37:00       -4.929      -60.701        0.702       40.267       30.292       17.469     1621.423      917.600      305.177        0.328        0.142       60.901       19.766        0.105      332.169        0.658      871.393
01/04/2015  08:38:00      -20.577       -9.631       12.866       40.566       30.453       18.550     1645.631      927.360      344.097        0.180        0.146       22.719       22.409        0.973      332.243        0.779      871.354
01/04/2015  08:39:00      -30.651       -5.751        6.590       31.343       29.636       15.678      982.384      878.278      245.804        0.156        0.105       31.185        7.209        0.053      332.294        0.863      871.381
01/04/2015  08:40:00       -7.924       15.307       14.526       15.334       12.697       20.962      235.134      161.216      439.386        0.067        0.042       17.236       13.969        0.657      332.370        0.988      871.397
01/04/2015  08:41:00       -1.063       16.794        9.589       10.982       14.922       24.346      120.596      222.663      592.730        0.066        0.047       16.827       12.793        0.578      332.364        0.977      871.410
01/04/2015  08:42:00       -9.098       17.903       41.735       13.918       21.612       12.041      193.707      467.060      144.990        0.148        0.040       20.082       10.372        0.267      332.360        0.972      871.422
01/04/2015  08:43:00      -10.041       -8.764       30.059       13.777       27.157       22.119      189.798      737.519      489.269        0.125        0.071       13.328       18.893        2.009      332.393        1.026      871.460
01/04/2015  08:44:00      -23.876      -21.789        1.988       31.009       18.570       12.750      961.527      344.840      162.569        0.126        0.073       32.324        9.168        0.080      332.306        0.880      871.515
01/04/2015  08:45:00       12.350        7.850       19.593       28.046       12.271       14.066      786.602      150.567      197.844        0.087        0.057       14.634        4.720        0.104      332.334        0.928      871.510
01/04/2015  08:46:00       14.724       33.797        7.587       21.707       21.708       22.757      471.182      471.253      517.889        0.144        0.073       36.865       18.748        0.259      332.252        0.796      871.465
01/04/2015  08:47:00       30.636       42.926       13.841       23.822       11.691       14.954      567.479      136.677      223.621        0.195        0.046       52.737       10.623        0.041      332.097        0.538      871.445
01/04/2015  08:48:00       69.458       65.576       36.802       29.641       30.925       28.087      878.585      956.328      788.881        0.655        0.131       95.523       13.534        0.020      332.133        0.597      871.394
01/04/2015  08:49:00       62.851       25.063       12.075       43.047       27.812       22.739     1853.079      773.532      517.047        0.393        0.157       67.664       23.719        0.123      332.092        0.530      871.379
01/04/2015  08:50:00       52.161       39.413       16.705       21.907       15.867       21.947      479.927      251.759      481.671        0.288        0.061       65.377       12.105        0.034      332.016        0.404      871.413
01/04/2015  08:51:00       38.373       59.169       -2.426       36.684       29.257       24.110     1345.721      855.948      581.271        0.388        0.139       70.522       17.625        0.062      331.935        0.271      871.468
01/04/2015  08:52:00       52.152       72.854       -1.522       34.107       47.455       33.587     1163.285     2252.014     1128.103        0.629        0.227       89.597       32.184        0.129      331.915        0.239      871.526
01/04/2015  08:53:00       36.700       97.936      -13.195       30.966       68.934       30.497      958.879     4751.849      930.060        0.888        0.332      104.587       32.207        0.095      331.890        0.198      871.568
01/04/2015  08:54:00       44.998       33.954        6.112       38.854       32.547       27.925     1509.641     1059.318      779.788        0.328        0.167       56.371       20.879        0.137      331.941        0.281      871.551
01/04/2015  08:55:00       18.473       31.650      -11.102       30.188       37.654       18.538      911.333     1417.842      343.648        0.207        0.134       36.647       13.664        0.139      331.949        0.292      871.545
01/04/2015  08:56:00      -23.250       17.486       -6.062       17.369       18.834       14.295      301.667      354.733      204.348        0.087        0.043       29.091        6.500        0.050      331.963        0.317      871.535
01/04/2015  08:57:00      -26.602       25.528       -0.520       14.131       14.551       10.171      199.675      211.738      103.452        0.094        0.026       36.869        4.046        0.012      331.989        0.361      871.519
01/04/2015  08:58:00        5.336       10.167       13.223       22.249        9.124        8.818      494.996       83.239       77.763        0.048        0.033       11.482        6.682        0.339      332.040        0.444      871.474
01/04/2015  08:59:00       10.799       15.826        2.041       12.446       12.671        6.111      154.909      160.564       37.346        0.036        0.018       19.159        5.979        0.097      332.037        0.440      871.455
01/04/2015  09:00:00        9.024       20.468       -5.115       22.373       18.607       11.691      500.534      346.228      136.689        0.075        0.049       22.369       11.057        0.244      332.070        0.495      871.470
01/04/2015  09:01:00       15.598        8.725       -3.590       20.154       14.941        6.269      406.199      223.229       39.303        0.050        0.033       17.872        2.764        0.024      332.092        0.531      871.534
01/04/2015  09:02:00      -16.690       -6.365       -6.996       11.330       13.938       11.001      128.368      194.281      121.028        0.041        0.022       17.862        9.922        0.309      332.156        0.636      871.598
01/04/2015  09:03:00      -31.645        1.364      -10.690       16.361        8.395        8.606      267.682       70.479       74.059        0.076        0.021       31.675        9.524        0.090      332.143        0.614      871.619
01/04/2015  09:04:00      -16.080        4.151        6.764        6.903        6.546        6.254       47.652       42.852       39.117        0.023        0.006       16.607        3.948        0.057      332.265        0.815      871.596
01/04/2015  09:05:00       26.983       11.560       20.451       11.653        9.402       11.329      135.783       88.405      128.355        0.082        0.018       29.355        6.779        0.053      332.219        0.740      871.552
01/04/2015  09:06:00       17.076       12.258       -7.603       13.720       10.864       10.399      188.232      118.018      108.144        0.046        0.021       21.021        7.670        0.133      332.152        0.629      871.518
01/04/2015  09:07:00       -6.595       -3.685       -6.114       11.748        7.333        5.900      138.018       53.767       34.806        0.016        0.011        7.555        6.397        0.717      332.251        0.792      871.498
01/04/2015  09:08:00      -61.136      -27.494       -6.722       16.181       13.034        9.664      261.832      169.873       93.385        0.253        0.026       67.033        5.730        0.007      332.288        0.853      871.447
01/04/2015  09:09:00      -59.561      -19.953       -5.512       17.500       18.316        9.244      306.264      335.469       85.454        0.235        0.036       62.814       11.055        0.031      332.277        0.836      871.391
01/04/2015  09:10:00      -15.294      -13.227        2.031       10.536       11.057        8.440      111.017      122.260       71.228        0.036        0.015       20.220        4.060        0.040      332.353        0.959      871.352
01/04/2015  09:11:00      -23.190      -22.275        0.319       19.949       18.010       13.464      397.981      324.376      181.272        0.097        0.045       32.155       10.780        0.112      332.454        1.128      871.379
01/04/2015  09:12:00      -31.676      -14.158        7.945       30.751       19.933       16.790      945.612      397.341      281.891        0.145        0.081       34.696       15.651        0.203      332.477        1.165      871.427
01/04/2015  09:13:00      -37.336      -14.716        1.392       19.028       13.075       10.515      362.057      170.950      110.559        0.113        0.032       40.131       10.125        0.064      332.389        1.018      871.451
01/04/2015  09:14:00      -20.681        0.892       -2.572       12.344       13.597        4.297      152.384      184.868       18.467        0.040        0.018       20.701        4.383        0.045      332.350        0.952      871.463
01/04/2015  09:15:00       60.923       55.010        6.536       50.650       20.629       17.031     2565.420      425.552      290.063        0.503        0.164       82.083       15.502        0.036      332.375        0.996      871.497
01/04/2015  09:16:00       82.429       37.682       -4.071       26.318       28.442       25.522      692.622      808.972      651.349        0.519        0.108       90.633       17.586        0.038      332.306        0.883      871.540
01/04/2015  09:17:00       37.406       23.630        1.369       33.543       24.869       20.236     1125.129      618.487      409.496        0.206        0.108       44.245       20.327        0.211      332.331        0.923      871.573
01/04/2015  09:18:00       44.599       41.340       -0.039       23.521       27.167       20.740      553.250      738.040      430.150        0.271        0.086       60.812       18.952        0.097      332.316        0.897      871.535
01/04/2015  09:19:00      116.848       58.271        3.441       30.731       25.883       29.774      944.375      669.905      886.507        0.978        0.125      130.571       13.392        0.011      332.239        0.773      871.473
01/04/2015  09:20:00       83.591       56.741       22.064       43.375       31.316       30.167     1881.357      980.685      910.037        0.723        0.189      101.030       21.788        0.047      332.296        0.866      871.422
01/04/2015  09:21:00       55.543       63.118       32.667       43.877       26.727       22.659     1925.161      714.306      513.444        0.564        0.158       84.077       20.974        0.062      332.301        0.874      871.410
01/04/2015  09:22:00       23.012       35.413       46.273       37.379       26.491       24.511     1397.227      701.768      600.792        0.331        0.135       42.233       26.041        0.380      332.305        0.882      871.449
01/04/2015  09:23:00       31.637       20.659        5.615       19.334       19.115       25.652      373.793      365.377      658.021        0.143        0.070       37.785        8.849        0.055      332.269        0.822      871.498
01/04/2015  09:24:00       42.840       33.383       -1.197       17.810       24.175       16.399      317.185      584.435      268.933        0.206        0.059       54.311        9.430        0.030      332.234        0.765      871.529
01/04/2015  09:25:00       55.944       31.090        6.046       19.750       15.752       12.228      390.054      248.112      149.513        0.246        0.039       64.003        8.241        0.017      332.215        0.733      871.513
01/04/2015  09:26:00       27.327       26.982       -6.201       21.584       10.940        6.117      465.850      119.679       37.416        0.107        0.031       38.403        7.837        0.042      332.191        0.693      871.468
01/04/2015  09:27:00      -39.884       -4.770       -9.614       19.940       11.066        7.922      397.600      122.459       62.760        0.114        0.029       40.168        5.694        0.020      332.298        0.870      871.448
01/04/2015  09:28:00      -83.391       -0.425       -8.169       39.224       18.691       13.132     1538.556      349.354      172.441        0.454        0.103       83.392       14.847        0.032      332.481        1.171      871.475
01/04/2015  09:29:00     -117.844      -18.050      -19.589       20.681       18.948       14.572      427.711      359.036      212.330        0.780        0.050      119.219       11.207        0.009      332.470        1.152      871.477
01/04/2015  09:30:00      -96.695      -16.017       -9.720       19.152       32.806       18.389      366.787     1076.206      338.141        0.574        0.089       98.013       13.259        0.018      332.553        1.290      871.429
01/04/2015  09:31:00     -104.769      -23.154       -7.183       43.329       41.238       21.411     1877.431     1700.548      458.451        0.780        0.202      107.297       12.221        0.013      332.568        1.315      871.378
01/04/2015  09:32:00     -114.458      -70.098       -2.031       38.716       34.607       21.230     1498.929     1197.637      450.695        1.058        0.157      134.217       15.081        0.013      332.573        1.324      871.339
01/04/2015  09:33:00      -80.968      -25.083        5.440       35.832       44.010       23.251     1283.913     1936.853      540.598        0.549        0.188       84.764       23.793        0.079      332.660        1.467      871.289
01/04/2015  09:34:00      -64.417       -9.578       -5.952       22.382       23.782       17.169      500.960      565.570      294.766        0.282        0.068       65.126       14.647        0.051      332.686        1.509      871.265
01/04/2015  09:35:00     -118.034        0.986       -9.212       24.904       29.573       14.494      620.208      874.567      210.084        0.786        0.085      118.038       10.062        0.007      332.688        1.512      871.236
01/04/2015  09:36:00      -66.171      -20.726       -1.919       38.220       30.353       20.424     1460.768      921.276      417.126        0.380        0.140       69.341       17.659        0.065      332.807        1.710      871.220
01/04/2015  09:37:00      -27.265      -14.942        0.253       35.272       17.404       13.029     1244.093      302.893      169.745        0.134        0.086       31.091       13.589        0.191      332.892        1.851      871.205
01/04/2015  09:38:00      -71.897      -18.413      -13.781       23.782       12.345       10.808      565.585      152.396      116.812        0.327        0.042       74.217       11.649        0.025      332.782        1.669      871.167
01/04/2015  09:39:00      -64.590       -8.733       -6.841       15.000       14.715       15.022      225.004      216.536      225.664        0.248        0.033       65.177        6.777        0.011      332.811        1.717      871.144
01/04/2015  09:40:00      -63.226      -14.328       -8.262       19.472       19.207       11.852      379.144      368.911      140.462        0.258        0.044       64.829       12.025        0.034      332.903        1.869      871.146
01/04/2015  09:41:00      -95.854       20.316      -10.316       29.838       22.059       14.450      890.318      486.602      208.800        0.565        0.079       97.984       12.503        0.016      332.887        1.842      871.189
01/04/2015  09:42:00      -53.291        1.482      -11.571       48.707       24.590       24.190     2372.384      604.670      585.138        0.327        0.178       53.311       24.998        0.220      332.941        1.931      871.241
01/04/2015  09:43:00      -81.042      -22.063      -19.616       21.023       19.031       14.438      441.970      362.172      208.461        0.423        0.051       83.992        9.329        0.012      332.903        1.870      871.286
01/04/2015  09:44:00      -84.131      -45.243      -18.442       15.751       17.989       13.335      248.103      323.609      177.827        0.511        0.037       95.525       12.527        0.017      332.902        1.868      871.291
01/04/2015  09:45:00      -60.904      -31.436      -10.780       36.749       16.639       12.303     1350.493      276.852      151.360        0.330        0.089       68.538        8.382        0.015      332.982        1.998      871.258
01/04/2015  09:46:00      -77.445       -7.381       -6.761       39.109       30.477       23.199     1529.540      928.875      538.181        0.455        0.150       77.796       19.173        0.061      333.084        2.167      871.230
01/04/2015  09:47:00     -107.812      -60.838       -7.485       32.527       34.287       17.795     1057.989     1175.622      316.669        0.897        0.128      123.793       10.737        0.008      333.093        2.183      871.218
01/04/2015  09:48:00      -80.847      -27.311       -2.820       27.654       26.930       22.414      764.752      725.229      502.367        0.464        0.100       85.335       16.079        0.036      333.137        2.255      871.218
01/04/2015  09:49:00       -8.983       -9.062        2.559       32.787       12.751       15.210     1075.002      162.584      231.351        0.082        0.073       12.760       14.146        1.229      333.256        2.450      871.202
01/04/2015  09:50:00      -14.395       -7.894        4.463       21.291        7.794        9.480      453.315       60.747       89.870        0.045        0.030       16.418        9.592        0.341      333.522        2.892      871.195
01/04/2015  09:51:00      -34.243       -1.868      -13.490       13.574        8.602       10.789      184.266       73.999      116.402        0.087        0.019       34.294        6.464        0.036      333.376        2.650      871.203
01/04/2015  09:52:00      -39.017      -31.163        2.620        9.089       18.978       20.543       82.601      360.161      422.013        0.168        0.043       49.935       12.215        0.060      333.474        2.812      871.224
01/04/2015  09:53:00      -17.200      -41.631       -0.898       16.812       23.015       18.339      282.653      529.713      336.322        0.159        0.057       45.044       14.957        0.110      333.510        2.871      871.237
01/04/2015  09:54:00      -42.557      -52.034       -1.888       19.615       21.012       11.769      384.743      441.504      138.512        0.274        0.048       67.221        7.463        0.012      333.564        2.961      871.246
01/04/2015  09:55:00      -42.726      -29.457       -0.341       10.714       16.769       11.057      114.786      281.202      122.265        0.161        0.026       51.896        6.143        0.014      333.687        3.165      871.254
01/04/2015  09:56:00      -20.862       -8.923       -2.622        4.779        5.605        4.277       22.842       31.420       18.291        0.030        0.004       22.691        2.842        0.016      333.825        3.394      871.242
01/04/2015  09:57:00      -45.263      -42.363       -2.676       25.217       30.368       21.254      635.884      922.244      451.753        0.293        0.100       61.995        9.507        0.024      333.863        3.457      871.256
01/04/2015  09:58:00      -14.733      -18.722       10.279       20.404       19.769       18.472      416.331      390.821      341.215        0.091        0.057       23.824       10.480        0.193      333.996        3.678      871.271
01/04/2015  09:59:00       27.082        0.407        1.292       28.130       31.966       23.651      791.309     1021.851      559.380        0.155        0.119       27.085       11.372        0.176      333.823        3.391      871.250
01/04/2015  10:00:00       29.891       40.643       34.752       39.041       35.570       33.940     1524.206     1265.191     1151.950        0.385        0.197       50.451       25.663        0.259      333.946        3.595      871.216
01/04/2015  10:01:00        1.808        0.115       34.780       30.032       41.285       18.778      901.929     1704.416      352.629        0.209        0.148        1.812       15.874       76.763      334.052        3.770      871.219
01/04/2015  10:02:00       16.358      -55.544       -1.496       32.284       50.957       30.526     1042.252     2596.607      931.812        0.396        0.229       57.903       32.364        0.312      333.950        3.602      871.216
01/04/2015  10:03:00       20.208       13.084       45.550       28.283       22.406       26.996      799.900      502.040      728.786        0.234        0.102       24.074       19.850        0.680      334.049        3.766      871.189
01/04/2015  10:04:00       34.310        8.688       28.267       21.157       18.037       20.520      447.607      325.345      421.060        0.162        0.060       35.393       16.230        0.210      333.885        3.492      871.145
01/04/2015  10:05:00       37.684        5.186       26.608       35.807       30.531       33.366     1282.140      932.111     1113.308        0.274        0.166       38.040       24.680        0.421      333.892        3.506      871.087
01/04/2015  10:06:00       28.018      -13.287       20.350       25.847       39.069       24.066      668.088     1526.424      579.166        0.207        0.139       31.009       18.650        0.362      333.960        3.618      871.027
01/04/2015  10:07:00       23.843      -36.384       16.187       30.504       27.943       27.267      930.488      780.819      743.469        0.230        0.123       43.500       20.894        0.231      334.010        3.700      870.971
01/04/2015  10:08:00       21.030      -39.176       23.986       33.874       39.286       28.003     1147.477     1543.415      784.161        0.301        0.174       44.463       27.999        0.397      334.113        3.872      870.951
01/04/2015  10:09:00       14.079      -37.860       16.218       30.978       38.649       28.958      959.617     1493.713      838.583        0.259        0.165       40.393       25.058        0.385      334.094        3.842      870.948
01/04/2015  10:10:00       50.645       21.014       21.623       49.571       36.441       24.329     2457.268     1327.937      591.893        0.392        0.219       54.831       13.376        0.060      334.017        3.714      870.974
01/04/2015  10:11:00       37.081       29.553        8.906       27.288       24.510       21.020      744.637      600.735      441.848        0.206        0.089       47.417       19.945        0.177      334.034        3.741      871.018
01/04/2015  10:12:00       37.928       50.371        8.355       30.459       21.031       26.424      927.765      442.286      698.218        0.306        0.103       63.054       15.737        0.062      333.978        3.649      871.059
01/04/2015  10:13:00       26.170       79.057       -4.143       27.658       40.359       25.891      764.963     1628.859      670.326        0.501        0.153       83.276       26.608        0.102      334.091        3.836      871.067
01/04/2015  10:14:00       48.008       69.800       -7.818       24.067       32.675       30.696      579.236     1067.654      942.226        0.491        0.129       84.716       25.298        0.089      334.043        3.755      871.065
01/04/2015  10:15:00       57.033       40.432        8.630       37.834       31.519       20.736     1431.424      993.459      430.001        0.391        0.143       69.911       13.896        0.040      334.119        3.882      871.058
01/04/2015  10:16:00       29.326       47.355        5.920       17.236       25.488       25.731      297.068      649.650      662.072        0.237        0.080       55.700       20.027        0.129      334.133        3.903      871.073
01/04/2015  10:17:00       32.629       28.132       -6.506       18.539       15.598       16.219      343.689      243.293      263.053        0.137        0.043       43.082       10.147        0.055      334.151        3.936      871.089
01/04/2015  10:18:00       22.437       43.578       34.085       29.590       28.816       29.777      875.540      830.374      886.656        0.308        0.130       49.014       19.257        0.154      334.398        4.344      871.091
01/04/2015  10:19:00       29.885       38.909        7.632       27.380       37.631       23.517      749.671     1416.073      553.067        0.259        0.136       49.061       19.842        0.164      334.402        4.352      871.099
01/04/2015  10:20:00       20.092       43.526       33.734       30.336       35.859       31.474      920.280     1285.889      990.595        0.332        0.160       47.940       18.418        0.148      334.521        4.548      871.115
01/04/2015  10:21:00      103.029       59.116       25.703       20.148       21.767       29.240      405.922      473.802      855.002        0.825        0.087      118.784       19.282        0.026      334.198        4.013      871.114
01/04/2015  10:22:00       63.797       28.147       12.587       27.610       28.563       20.891      762.289      815.822      436.436        0.352        0.101       69.730       14.287        0.042      334.300        4.181      871.099
01/04/2015  10:23:00       25.211       14.044       12.782       21.986       24.626       15.299      483.389      606.460      234.057        0.116        0.066       28.859       12.796        0.197      334.572        4.635      871.079
01/04/2015  10:24:00       41.776       50.556        7.344       21.333       28.448       24.334      455.108      809.297      592.152        0.311        0.093       65.583       14.360        0.048      334.548        4.593      871.069
01/04/2015  10:25:00       57.466       38.967       11.926       28.999       23.275       26.484      840.952      541.726      701.424        0.352        0.104       69.432       11.275        0.026      334.621        4.715      871.071
01/04/2015  10:26:00        0.151       42.374        0.391       21.573       28.576       21.749      465.385      816.573      473.017        0.177        0.088       42.374       20.151        0.226      334.892        5.166      871.072
01/04/2015  10:27:00       52.029       44.870       -3.566       36.516       27.606       24.889     1333.434      762.083      619.477        0.372        0.136       68.705       19.906        0.084      334.791        4.996      871.076
01/04/2015  10:28:00       43.878        3.317       -3.904       29.117       15.110       15.570      847.798      228.326      242.417        0.163        0.066       44.003       11.720        0.071      334.648        4.759      871.068
01/04/2015  10:29:00        2.086       -3.162       18.806       11.647       19.697       13.768      135.644      387.978      189.570        0.054        0.036        3.788        8.044        4.509      335.236        5.736      871.055
01/04/2015  10:30:00        1.687        2.024       17.554        9.406        4.938        7.078       88.476       24.380       50.095        0.024        0.008        2.635        5.951        5.101      335.553        6.264      871.039
01/04/2015  10:31:00      -27.190      -38.424        0.766       33.987       35.650       16.329     1155.090     1270.894      266.625        0.245        0.135       47.071       17.139        0.133      335.050        5.427      871.013
01/04/2015  10:32:00      -34.419      -50.340       -8.372       28.021       24.913       19.017      785.200      620.668      361.628        0.278        0.088       60.982       10.526        0.030      334.823        5.049      870.973
01/04/2015  10:33:00      -70.399      -35.521       -1.193       24.450       14.758       14.342      597.804      217.786      205.701        0.362        0.051       78.852       13.145        0.028      334.876        5.138      870.921
01/04/2015  10:34:00      -62.565      -38.481       -3.362       24.562       19.090       13.897      603.269      364.437      193.125        0.328        0.058       73.452       12.925        0.031      334.883        5.149      870.886
01/04/2015  10:35:00      -69.633      -52.517       -3.883       34.852       28.697       18.787     1214.639      823.546      352.955        0.501        0.120       87.217        9.937        0.013      334.892        5.165      870.845
01/04/2015  10:36:00      -59.889      -51.206        3.930       37.711       26.700       18.718     1422.087      712.876      350.382        0.435        0.124       78.796       13.594        0.030      334.968        5.291      870.807
01/04/2015  10:37:00      -45.566      -72.674       -1.123       28.109       18.932       16.030      790.110      358.436      256.963        0.438        0.070       85.777       17.924        0.044      335.025        5.383      870.775
01/04/2015  10:38:00      -49.269      -62.056       -5.377       18.306       18.015       11.424      335.120      324.558      130.504        0.355        0.040       79.236        9.461        0.014      335.016        5.371      870.752
01/04/2015  10:39:00      -36.616      -25.870        0.609       17.194       12.518       12.102      295.623      156.711      146.470        0.130        0.030       44.833        7.396        0.027      335.065        5.453      870.729
01/04/2015  10:40:00      -15.842       -8.276       -0.289       12.374        7.601        6.258      153.105       57.778       39.166        0.028        0.013       17.874        6.441        0.130      335.273        5.798      870.696
01/04/2015  10:41:00      -11.684       10.117       18.064        8.854       11.618       10.615       78.397      134.971      112.668        0.045        0.016       15.455        4.972        0.103      335.455        6.101      870.679
01/04/2015  10:42:00      -11.217       22.819       46.356       10.921       26.251       22.198      119.264      689.122      492.733        0.205        0.065       25.427       20.857        0.673      335.584        6.316      870.659
01/04/2015  10:43:00       14.386       23.515       58.696       27.191       37.403       18.003      739.341     1398.991      324.103        0.333        0.123       27.566       14.034        0.259      335.516        6.202      870.638
01/04/2015  10:44:00       16.523       39.075       68.279       36.111       46.074       25.724     1304.024     2122.804      661.711        0.527        0.204       42.425       28.465        0.450      335.451        6.093      870.639
01/04/2015  10:45:00       93.259       19.268       57.733       61.841       54.101       42.373     3824.298     2926.956     1795.482        1.047        0.427       95.229       38.873        0.167      335.279        5.806      870.642
01/04/2015  10:46:00       74.848       40.526       30.361       53.336       47.867       36.381     2844.763     2291.251     1323.549        0.731        0.323       85.115       30.276        0.127      335.252        5.761      870.607
01/04/2015  10:47:00      112.054       65.819       17.748       33.739       26.173       25.710     1138.328      685.045      660.982        0.984        0.124      129.954       17.386        0.018      335.009        5.359      870.572
01/04/2015  10:48:00       14.336       26.649        3.228       16.880       22.501       23.131      284.947      506.299      535.058        0.113        0.066       30.260       18.422        0.371      335.149        5.591      870.550
01/04/2015  10:49:00       14.763        8.247        6.513       10.968        7.306       12.195      120.302       53.375      148.730        0.033        0.016       16.911        6.441        0.145      335.269        5.790      870.552
01/04/2015  10:50:00       58.787       40.275        1.679       24.803       28.775       20.627      615.166      828.019      425.453        0.347        0.093       71.260       11.925        0.028      335.218        5.705      870.577
01/04/2015  10:51:00       62.892       84.404       41.657       41.561       21.937       33.869     1727.276      481.250     1147.118        0.808        0.168      105.258       27.325        0.067      335.331        5.895      870.595
01/04/2015  10:52:00       60.805       51.619        8.375       34.241       26.397       22.325     1172.413      696.826      498.399        0.440        0.118       79.760        9.836        0.015      335.410        6.023      870.617
01/04/2015  10:53:00       24.507       40.355        9.377       24.186       31.510       19.023      584.950      992.910      361.890        0.213        0.097       47.214        9.790        0.043      335.536        6.236      870.619
01/04/2015  10:54:00       18.577       10.696       14.348       17.509       19.101       17.552      306.556      364.833      308.065        0.082        0.049       21.436        7.529        0.123      335.702        6.511      870.611
01/04/2015  10:55:00        4.707      -28.457       -0.264       14.289       23.088       19.088      204.163      533.034      364.354        0.097        0.055       28.844       18.689        0.420      335.450        6.092      870.601
01/04/2015  10:56:00      -12.817      -59.655       -0.267       19.843       18.730       15.559      393.750      350.795      242.084        0.235        0.049       61.016        9.676        0.025      335.383        5.979      870.596
01/04/2015  10:57:00       -7.912       25.796       36.228       17.567       30.415       24.882      308.604      925.061      619.130        0.195        0.093       26.982       24.089        0.797      335.937        6.905      870.573
01/04/2015  10:58:00       42.338       51.700       59.960       43.223       28.847       24.736     1868.204      832.172      611.887        0.569        0.166       66.823       10.533        0.025      335.859        6.773      870.554
01/04/2015  10:59:00       24.366       33.964       41.962       39.418       35.106       25.852     1553.792     1232.457      668.303        0.348        0.173       41.800        9.382        0.050      335.924        6.883      870.550
01/04/2015  11:00:00       35.309       60.937       68.874       60.539       31.621       32.012     3664.992      999.913     1024.796        0.770        0.284       70.428       33.101        0.221      335.856        6.768      870.560
01/04/2015  11:01:00      100.572       74.930       24.005       32.139       27.118       29.922     1032.917      735.366      895.318        0.948        0.133      125.416       26.591        0.045      335.482        6.144      870.566
01/04/2015  11:02:00       56.246       87.375       59.724       48.189       33.811       46.214     2322.149     1143.174     2135.748        0.998        0.280      103.914       41.965        0.163      335.731        6.560      870.566
01/04/2015  11:03:00       45.723       63.571       71.556       43.985       34.242       29.385     1934.645     1172.495      863.468        0.761        0.199       78.306       27.148        0.120      335.936        6.902      870.554
01/04/2015  11:04:00       56.312       92.371       82.862       43.851       48.452       29.417     1922.952     2347.573      865.375        1.185        0.257      108.182       25.209        0.054      335.919        6.874      870.529
01/04/2015  11:05:00      134.967      102.766       90.948       77.509       51.526       43.391     6007.646     2654.952     1882.816        2.379        0.527      169.638       35.051        0.043      335.717        6.534      870.482
01/04/2015  11:06:00       95.286       78.747       82.413       84.360       66.522       67.208     7116.531     4425.166     4516.907        1.906        0.803      123.614       64.684        0.274      335.737        6.570      870.443
01/04/2015  11:07:00       24.459       35.664       58.592       60.230       52.481       56.756     3627.624     2754.218     3221.189        0.745        0.480       43.245       45.696        1.117      335.969        6.958      870.415
01/04/2015  11:08:00      124.715       60.240       55.249       71.105       55.588       50.905     5055.929     3090.052     2591.270        1.648        0.537      138.501       42.555        0.094      335.830        6.724      870.409
01/04/2015  11:09:00       83.788       99.142       95.331       59.973       44.931       42.386     3596.805     2018.772     1796.567        1.667        0.371      129.806       29.354        0.051      335.811        6.694      870.391
01/04/2015  11:10:00      144.186       99.210       88.009       70.055       57.148       48.953     4907.672     3265.878     2396.443        2.447        0.528      175.021       32.513        0.035      335.694        6.496      870.361
01/04/2015  11:11:00      146.795       67.335       54.904       83.941       61.037       54.288     7046.148     3725.506     2947.217        2.141        0.686      161.502       41.930        0.067      335.699        6.505      870.336
01/04/2015  11:12:00       18.387       75.820      109.790       59.346       70.285       40.575     3521.952     4939.976     1646.325        1.412        0.505       78.017       37.839        0.235      336.087        7.153      870.325
01/04/2015  11:13:00      131.402      125.752       70.306       85.625       54.667       56.567     7331.712     2988.535     3199.834        2.577        0.676      181.879       48.417        0.071      335.601        6.341      870.348
01/04/2015  11:14:00       82.053       65.540       79.224       75.689       57.064       50.123     5728.865     3256.271     2512.344        1.440        0.575      105.015       44.393        0.179      335.526        6.218      870.360
01/04/2015  11:15:00      101.314       97.448       75.481       84.194       51.280       59.781     7088.578     2629.621     3573.723        1.937        0.665      140.573       51.684        0.135      335.537        6.237      870.369
01/04/2015  11:16:00       56.695       93.816       71.426       66.603       43.700       39.715     4435.992     1909.721     1577.268        1.252        0.396      109.617       39.755        0.132      335.875        6.801      870.399
01/04/2015  11:17:00      108.086       71.960       37.997       87.577       39.529       41.103     7669.687     1562.560     1689.439        1.461        0.546      129.849       30.878        0.057      335.664        6.449      870.416
01/04/2015  11:18:00       71.425       67.405       21.674       75.557       44.596       40.497     5708.920     1988.774     1639.992        0.972        0.467       98.208       22.343        0.052      335.735        6.566      870.420
01/04/2015  11:19:00       62.756       90.425       79.577       75.327       41.564       43.924     5674.153     1727.591     1929.358        1.389        0.467      110.068       47.146        0.183      335.829        6.722      870.433
01/04/2015  11:20:00      114.652      106.032       41.283      100.767       52.473       69.891    10153.980     2753.419     4884.689        2.194        0.890      156.166       70.570        0.204      335.643        6.411      870.429
01/04/2015  11:21:00      194.960       98.490       35.710       59.818       65.852       53.172     3578.196     4336.512     2827.266        2.986        0.537      218.426       41.042        0.035      335.411        6.024      870.413
01/04/2015  11:22:00      116.468       25.384       24.703       83.283       73.731       52.517     6935.996     5436.278     2758.012        1.497        0.757      119.202       53.006        0.198      335.483        6.147      870.407
01/04/2015  11:23:00       99.351       68.544       33.219       60.257       53.007       42.439     3630.867     2809.780     1801.055        1.196        0.412      120.701       18.626        0.024      335.645        6.416      870.383
01/04/2015  11:24:00        2.284       40.898       66.126       42.278       43.292       46.389     1787.395     1874.233     2151.972        0.593        0.291       40.961       39.087        0.911      335.829        6.724      870.379
01/04/2015  11:25:00       -6.556       63.906       86.921       28.499       39.143       32.268      812.218     1532.161     1041.223        0.753        0.169       64.242       27.465        0.183      335.664        6.449      870.355
01/04/2015  11:26:00       10.311       40.383       40.361       29.651       31.734       36.681      879.185     1007.029     1345.524        0.330        0.162       41.679       28.151        0.456      335.798        6.672      870.342
01/04/2015  11:27:00       68.659       46.814       27.525       40.445       32.568       40.393     1635.763     1060.656     1631.582        0.599        0.216       83.100       31.119        0.140      335.763        6.614      870.329
01/04/2015  11:28:00       83.167       47.803       13.587       41.339       35.336       21.899     1708.879     1248.626      479.547        0.641        0.172       95.926        9.961        0.011      335.632        6.395      870.344
01/04/2015  11:29:00       74.591       33.611       10.489       35.652       26.885       29.711     1271.058      722.780      882.727        0.484        0.144       81.814       17.028        0.043      335.643        6.413      870.341
01/04/2015  11:30:00       55.352       68.047        4.633       27.563       29.299       31.557      759.708      858.448      995.850        0.516        0.131       87.717       22.527        0.066      335.680        6.476      870.342
01/04/2015  11:31:00       16.626       55.658        2.080       22.121       35.483       23.163      489.331     1259.051      536.516        0.283        0.114       58.088       19.848        0.117      335.702        6.512      870.330
01/04/2015  11:32:00       36.021       41.317        9.082       33.872       36.271       25.364     1147.332     1315.571      643.311        0.310        0.155       54.815       21.854        0.159      335.800        6.675      870.313
01/04/2015  11:33:00       37.238       47.719        0.635       21.152       31.432       21.323      447.397      987.991      454.687        0.278        0.095       60.528       18.934        0.098      335.785        6.650      870.272
01/04/2015  11:34:00       52.300       55.715       -3.863       21.534       31.624       22.006      463.733     1000.109      484.251        0.390        0.097       76.417       22.653        0.088      335.823        6.714      870.239
01/04/2015  11:35:00       33.672       44.972        5.631       21.127       20.481       25.947      446.329      419.461      673.255        0.236        0.077       56.181       17.943        0.102      335.894        6.831      870.228
01/04/2015  11:36:00        8.035       31.800       -8.930       38.387       24.608       20.833     1473.592      605.576      434.002        0.183        0.126       32.799       17.480        0.284      336.021        7.044      870.220
01/04/2015  11:37:00      -17.981       23.505        3.350       29.345       22.190       17.052      861.127      492.389      290.766        0.127        0.082       29.594        9.349        0.100      336.187        7.320      870.233
01/04/2015  11:38:00        4.607       -7.104       -3.161       11.992       17.262       10.336      143.797      297.960      106.833        0.032        0.027        8.467        1.310        0.024      336.146        7.252      870.241
01/04/2015  11:39:00      -23.270       -2.113       -7.775       22.796       11.866       10.836      519.646      140.805      117.414        0.069        0.039       23.366       10.138        0.188      336.325        7.550      870.236
01/04/2015  11:40:00       25.672       23.396        2.599       21.414       23.772       17.462      458.569      565.119      304.909        0.127        0.066       34.733       14.987        0.186      336.327        7.554      870.230
01/04/2015  11:41:00       26.714       46.588        0.209       25.027       17.634       19.175      626.339      310.969      367.662        0.209        0.065       53.704       11.908        0.049      336.263        7.448      870.223
01/04/2015  11:42:00       36.740       68.828        2.356       25.599       23.781       21.448      655.330      565.547      460.029        0.389        0.084       78.020       17.673        0.051      336.244        7.415      870.193
01/04/2015  11:43:00       43.028       35.476       -4.837       17.086       15.243       14.140      291.942      232.350      199.936        0.193        0.036       55.767        7.661        0.019      336.254        7.432      870.169
01/04/2015  11:44:00       23.758       56.880       36.905       24.196       21.048       28.952      585.458      443.028      838.196        0.351        0.093       61.642       22.021        0.128      336.429        7.724      870.167
01/04/2015  11:45:00       67.872       57.352        5.859       19.525       20.127       23.418      381.206      405.099      548.414        0.463        0.067       88.859        9.734        0.012      336.357        7.605      870.157
01/04/2015  11:46:00       50.027       36.730       11.966       35.706       31.052       26.141     1274.935      964.232      683.349        0.346        0.146       62.063       10.859        0.031      336.546        7.920      870.157
01/04/2015  11:47:00       18.550       28.251       12.127       35.830       26.625       23.074     1283.758      708.904      532.393        0.191        0.126       33.797       19.776        0.342      336.857        8.441      870.164
01/04/2015  11:48:00        9.723       44.010       50.570       27.896       37.842       27.434      778.164     1431.980      752.608        0.378        0.148       45.071       26.031        0.334      336.911        8.532      870.167
01/04/2015  11:49:00       66.970       44.946       30.085       43.171       26.973       25.501     1863.744      727.525      650.320        0.533        0.162       80.655       23.886        0.088      336.683        8.149      870.167
01/04/2015  11:50:00       49.055       57.758       42.521       44.990       29.106       36.471     2024.098      847.148     1330.161        0.588        0.210       75.779       15.623        0.043      336.717        8.206      870.145
01/04/2015  11:51:00       20.296       69.097       81.814       46.112       47.241       25.891     2126.341     2231.693      670.330        0.845        0.251       72.016       19.322        0.072      336.930        8.561      870.120
01/04/2015  11:52:00       85.326       25.431       31.735       70.757       49.836       46.474     5006.610     2483.597     2159.809        0.929        0.483       89.035       43.601        0.240      336.750        8.262      870.101
01/04/2015  11:53:00       49.167      105.007       81.489       58.012       41.069       45.130     3365.418     1686.701     2036.712        1.359        0.354      115.948       39.794        0.118      336.823        8.384      870.095
01/04/2015  11:54:00      140.014       91.312       61.575       62.190       41.071       48.662     3867.538     1686.812     2367.955        1.983        0.396      167.158       34.923        0.044      336.735        8.235      870.076
01/04/2015  11:55:00      103.189       74.869       53.272       51.917       58.707       41.995     2695.351     3446.475     1763.544        1.350        0.395      127.488       33.142        0.068      336.689        8.160      870.059
01/04/2015  11:56:00       38.631        9.280       52.138       64.441       49.053       39.660     4152.688     2406.155     1572.924        0.621        0.407       39.730       44.711        1.266      336.943        8.584      870.057
01/04/2015  11:57:00       33.906       19.293       58.479       42.080       68.749       44.842     1770.688     4726.363     2010.786        0.672        0.425       39.011       36.358        0.869      337.000        8.679      870.020
01/04/2015  11:58:00       97.694     -106.885      -12.625       66.615       96.714       55.057     4437.573     9353.668     3031.282        1.897        0.841      144.805       50.309        0.121      336.539        7.907      870.004
01/04/2015  11:59:00      150.610     -137.329      -25.612       55.032       77.140       32.380     3028.477     5950.557     1048.484        2.611        0.501      203.820       36.985        0.033      336.390        7.654      869.988
01/04/2015  12:00:00       20.021       41.748       68.646       51.716       62.198       45.892     2674.528     3868.530     2106.105        0.775        0.432       46.301       38.807        0.703      336.628        8.058      869.973
01/04/2015  12:01:00       72.647      -27.422       39.192       54.130       53.144       46.379     2930.027     2824.247     2151.004        0.773        0.395       77.650       40.405        0.271      336.618        8.041      869.963
01/04/2015  12:02:00       16.054       32.169       59.541       36.314       49.384       33.489     1318.716     2438.821     1121.507        0.486        0.244       35.953       21.969        0.373      336.772        8.298      869.964
01/04/2015  12:03:00       28.688       28.468       64.963       52.676       72.329       46.934     2774.710     5231.455     2202.766        0.803        0.510       40.415       48.047        1.413      336.774        8.302      869.956
01/04/2015  12:04:00       29.001       -2.256       51.054       41.157       83.539       42.275     1693.902     6978.682     1787.183        0.695        0.523       29.089       52.750        3.289      336.795        8.337      869.945
01/04/2015  12:05:00        2.635       28.287       62.429       25.753       47.389       37.238      663.230     2245.722     1386.682        0.450        0.215       28.410       36.024        1.608      336.760        8.279      869.947
01/04/2015  12:06:00       57.944      -80.780        3.162       74.035       84.919       44.401     5481.174     7211.182     1971.414        1.228        0.733       99.413       56.613        0.324      336.658        8.108      869.950
01/04/2015  12:07:00       18.173       -4.174       50.221       33.222       35.930       38.160     1103.728     1290.988     1456.218        0.336        0.193       18.646       26.672        2.046      336.847        8.423      869.931
01/04/2015  12:08:00       84.584     -109.546      -17.662       71.177       74.856       51.499     5066.234     5603.430     2652.193        1.639        0.666      138.400       58.990        0.182      336.468        7.788      869.896
01/04/2015  12:09:00      162.270     -180.517      -38.027       41.852       41.327       27.341     1751.622     1707.895      747.517        3.228        0.210      242.730       19.702        0.007      336.268        7.450      869.861
01/04/2015  12:10:00       78.613      -38.234       27.423       61.904      131.709       61.783     3832.125    17347.350     3817.198        1.669        1.250       87.418       85.927        0.966      336.433        7.729      869.834
01/04/2015  12:11:00       12.957        2.349       47.205       49.289       57.433       33.748     2429.402     3298.492     1138.918        0.463        0.343       13.168       27.905        4.491      336.639        8.077      869.812
01/04/2015  12:12:00      100.440     -125.122      -25.076       75.776       83.439       48.657     5741.929     6962.096     2367.458        2.072        0.754      160.449       42.407        0.070      336.318        7.537      869.811
01/04/2015  12:13:00       80.769      -92.668       -5.011       67.537       49.625       32.426     4561.295     2462.671     1051.442        1.160        0.404      122.927       32.798        0.071      336.345        7.583      869.837
01/04/2015  12:14:00        6.342       69.366      104.820       51.523       60.646       37.277     2654.614     3677.938     1389.551        1.178        0.386       69.655       36.297        0.272      336.601        8.012      869.853
01/04/2015  12:15:00       31.068       28.364       70.820       50.325       66.707       43.377     2532.585     4449.802     1881.597        0.782        0.443       42.069       49.184        1.367      336.626        8.054      869.868
01/04/2015  12:16:00       43.208       -3.278       31.984       41.464       51.814       35.830     1719.245     2684.739     1283.760        0.429        0.284       43.332       33.198        0.587      336.595        8.002      869.863
01/04/2015  12:17:00       47.150       38.036       54.182       50.949       39.000       38.096     2595.772     1520.970     1451.299        0.609        0.278       60.580       31.578        0.272      336.736        8.238      869.862
01/04/2015  12:18:00       71.870       48.410       46.292       74.422       52.877       39.778     5538.645     2795.962     1582.250        0.978        0.496       86.653       39.510        0.208      336.549        7.925      869.852
01/04/2015  12:19:00       27.212      -55.341      -11.945       60.714       59.661       29.267     3686.234     3559.427      856.553        0.602        0.405       61.670       32.393        0.276      336.676        8.137      869.844
01/04/2015  12:20:00       34.691      -28.650       43.671       49.039       72.051       57.292     2404.834     5191.294     3282.409        0.740        0.544       44.991       63.390        1.985      336.721        8.212      869.839
01/04/2015  12:21:00       27.566      -19.248       44.879       38.319       50.233       40.519     1468.380     2523.325     1641.761        0.439        0.282       33.621       25.251        0.564      336.875        8.469      869.821
01/04/2015  12:22:00       63.463      -85.756      -12.187       51.884       49.013       32.470     2691.910     2402.321     1054.289        0.884        0.307      106.685       27.123        0.065      336.531        7.897      869.808
01/04/2015  12:23:00       52.039      -57.267       -5.766       43.880       64.377       40.354     1925.487     4144.338     1628.410        0.686        0.385       77.379       36.795        0.226      336.750        8.264      869.805
01/04/2015  12:24:00       45.797      -46.883       -6.641       24.087       45.453       28.168      580.166     2065.992      793.450        0.389        0.172       65.539       25.607        0.153      336.760        8.279      869.804
01/04/2015  12:25:00       40.995      -21.043        6.608       25.971       39.708       23.208      674.510     1576.702      538.623        0.248        0.139       46.080       15.824        0.118      336.806        8.355      869.811
01/04/2015  12:26:00       22.855       16.081       26.439       23.360       13.945       18.976      545.690      194.471      360.094        0.129        0.055       27.946       10.715        0.147      337.027        8.726      869.808
01/04/2015  12:27:00       -2.543      -17.546       16.254       15.217       18.616       12.283      231.554      346.572      150.867        0.065        0.036       17.730        9.365        0.279      337.293        9.170      869.819
01/04/2015  12:28:00       12.116      -11.849       11.206       25.516       22.532       16.888      651.050      507.700      285.217        0.093        0.072       16.947        7.298        0.185      337.122        8.884      869.819
01/04/2015  12:29:00       19.238        4.052       12.252       18.282       34.065       18.307      334.236     1160.452      335.149        0.118        0.091       19.660       22.697        1.333      336.883        8.484      869.806
01/04/2015  12:30:00        9.807       28.887       33.845       20.025       18.482       18.540      400.987      341.583      343.729        0.158        0.054       30.506       12.722        0.174      337.185        8.988      869.794
01/04/2015  12:31:00      -27.440       11.130       26.786       33.004       32.969       24.974     1089.245     1086.979      623.677        0.220        0.140       29.611       27.127        0.839      337.235        9.072      869.787
01/04/2015  12:32:00       -1.335      -25.192        7.531       25.094       26.019       20.528      629.733      676.985      421.384        0.121        0.086       25.227       14.659        0.338      337.229        9.062      869.776
01/04/2015  12:33:00      -30.070      -23.812       -0.196       41.249       22.498       19.086     1701.446      506.174      364.276        0.202        0.129       38.356       19.503        0.259      337.265        9.122      869.774
01/04/2015  12:34:00      -57.754      -17.558      -15.339       23.193       15.141       15.283      537.906      229.244      233.578        0.244        0.050       60.363        3.922        0.004      336.984        8.651      869.770
01/04/2015  12:35:00      -42.600       -2.004      -10.601       17.622       13.125       13.475      310.541      172.262      181.580        0.130        0.033       42.647        4.483        0.011      337.105        8.853      869.753
01/04/2015  12:36:00      -48.423       -4.913       -2.364       19.268       28.550       15.079      371.270      815.095      227.366        0.189        0.071       48.672       11.970        0.060      337.411        9.368      869.760
01/04/2015  12:37:00      -45.766        2.072       -0.355       24.455       23.313       17.490      598.031      543.507      305.886        0.177        0.072       45.813        5.354        0.014      337.459        9.447      869.757
01/04/2015  12:38:00      -70.070       -3.302       -9.600       32.801       24.507       19.568     1075.925      600.583      382.909        0.354        0.103       70.148       17.070        0.059      337.150        8.930      869.760
01/04/2015  12:39:00      -43.881      -30.995       -1.537       29.452       24.900       16.986      867.423      620.022      288.529        0.233        0.089       53.724       11.069        0.042      337.201        9.016      869.743
01/04/2015  12:40:00      -31.329      -59.569       -4.501       12.279       12.578       14.045      150.773      158.208      197.264        0.253        0.025       67.305        5.042        0.006      337.092        8.832      869.727
01/04/2015  12:41:00      -66.099      -38.591       -5.541       20.667       24.062       14.999      427.115      578.993      224.964        0.356        0.062       76.540       10.685        0.019      337.215        9.039      869.693
01/04/2015  12:42:00      -51.567      -25.095       -6.588       52.780       31.509       25.384     2785.779      992.801      644.339        0.388        0.221       57.349       32.025        0.312      337.387        9.327      869.663
01/04/2015  12:43:00      -59.151      -82.451      -10.230       14.353       21.544       11.213      206.017      464.151      125.726        0.560        0.040      101.474        7.828        0.006      337.143        8.916      869.643
01/04/2015  12:44:00      -84.157      -42.948      -14.024       22.748       23.044       12.215      517.489      531.010      149.204        0.516        0.060       94.483        9.671        0.010      337.253        9.104      869.643
01/04/2015  12:45:00      -62.971      -21.562       -2.074       26.448       19.567       16.737      699.511      382.857      280.132        0.290        0.068       66.561       16.237        0.060      337.464        9.455      869.640
01/04/2015  12:46:00      -55.464        8.596       -3.195       15.672       14.570       15.213      245.617      212.286      231.427        0.192        0.034       56.126        8.608        0.024      337.449        9.430      869.657
01/04/2015  12:47:00      -47.541       11.878       -7.900       24.887       19.275       15.545      619.386      371.535      241.637        0.185        0.062       49.003       12.107        0.061      337.636        9.744      869.654
01/04/2015  12:48:00       -5.149        0.617       -0.535       17.292       20.902       12.038      299.023      436.888      144.919        0.045        0.044        5.185       11.894        5.261      338.015       10.380      869.666
01/04/2015  12:49:00      -31.651      -49.276       -3.447       30.625       22.730       23.056      937.879      516.654      531.576        0.271        0.099       58.566       18.307        0.098      337.658        9.781      869.687
01/04/2015  12:50:00      -31.466       -9.709       -7.863       30.412       19.495       19.307      924.859      380.056      372.747        0.141        0.084       32.930       10.674        0.105      337.814       10.042      869.691
01/04/2015  12:51:00      -75.626      -27.680      -10.656       27.653       19.805       11.425      764.712      392.241      130.528        0.394        0.064       80.532        3.950        0.002      337.525        9.557      869.696
01/04/2015  12:52:00      -30.899       -6.421        8.331       30.565       23.694       18.509      934.203      561.382      342.572        0.145        0.092       31.559       19.608        0.386      337.840       10.086      869.693
01/04/2015  12:53:00      -15.690       13.723        6.435       32.970       17.107       20.595     1087.044      292.657      424.168        0.114        0.090       20.844       17.866        0.735      337.993       10.342      869.719
01/04/2015  12:54:00      -43.572      -12.348        0.124       21.086       19.576       13.878      444.611      383.210      192.595        0.154        0.051       45.288       13.243        0.086      337.929       10.236      869.737
01/04/2015  12:55:00      -91.908      -45.449      -17.660       27.160       25.154       14.613      737.691      632.713      213.549        0.620        0.079      102.531       16.450        0.026      337.665        9.792      869.743
01/04/2015  12:56:00      -75.555      -49.616      -18.177       13.659       11.323       10.852      186.556      128.221      117.760        0.447        0.022       90.390        6.122        0.005      337.640        9.751      869.749
01/04/2015  12:57:00      -57.843      -22.726      -12.171       23.156       15.449       14.962      536.214      238.659      223.849        0.250        0.050       62.147       13.229        0.045      337.799       10.018      869.757
01/04/2015  12:58:00      -32.374      -24.643       -3.566       28.201       27.273       19.191      795.289      743.840      368.294        0.179        0.095       40.685       17.606        0.187      338.123       10.561      869.776
01/04/2015  12:59:00      -37.989      -40.488        4.109       34.249       30.969       26.604     1172.966      959.108      707.798        0.297        0.142       55.519       25.692        0.214      338.123       10.560      869.783
01/04/2015  13:00:00      -50.364      -47.245       -2.819       23.290       31.443       21.066      542.436      988.679      443.767        0.338        0.099       69.055       16.992        0.061      337.860       10.120      869.781
01/04/2015  13:01:00      -17.654      -48.402        4.735       24.216       22.462       19.397      586.409      504.537      376.253        0.207        0.073       51.521       14.857        0.083      337.904       10.194      869.781
01/04/2015  13:02:00      -18.521      -10.201      -11.620       10.729       14.619        7.806      115.120      213.705       60.928        0.049        0.019       21.145        1.131        0.003      338.034       10.411      869.767
01/04/2015  13:03:00      -20.930       -1.638       -6.031        9.714        7.330       10.546       94.355       53.725      111.224        0.037        0.013       20.994        7.505        0.128      338.157       10.618      869.778
01/04/2015  13:04:00       -3.391       17.287       16.949       19.943       16.665       16.443      397.736      277.713      270.363        0.077        0.047       17.616        5.583        0.100      338.335       10.917      869.796
01/04/2015  13:05:00      -14.871      -26.383        9.318       16.304       20.844       17.229      265.823      434.480      296.829        0.100        0.050       30.286       15.825        0.273      338.275       10.815      869.825
01/04/2015  13:06:00      -35.975       -6.813        1.001       20.514       10.260       11.073      420.814      105.260      122.605        0.100        0.032       36.614       12.734        0.121      338.189       10.672      869.830
01/04/2015  13:07:00      -24.723      -18.883       -7.926       24.926       11.236       12.087      621.287      126.248      146.097        0.096        0.045       31.109       10.770        0.120      338.360       10.959      869.845
01/04/2015  13:08:00        8.719      -18.978       -8.074       20.923       28.611       15.626      437.760      818.586      244.160        0.100        0.075       20.885       17.344        0.690      338.216       10.717      869.848
01/04/2015  13:09:00       28.518      -46.961       -2.021       36.694       26.989       23.199     1346.423      728.406      538.206        0.282        0.131       54.942       24.136        0.193      338.345       10.934      869.842
01/04/2015  13:10:00       -0.767      -10.261       17.351       20.050       30.689       24.208      402.012      941.798      586.013        0.117        0.096       10.289       12.882        1.567      338.565       11.303      869.838
01/04/2015  13:11:00       30.329     -102.577       -6.398       36.854       49.096       24.089     1358.215     2410.445      580.293        0.791        0.217      106.967       26.288        0.060      338.195       10.681      869.838
01/04/2015  13:12:00       12.124      -25.159       13.493       26.824       34.405       24.244      719.547     1183.698      587.795        0.173        0.125       27.928       22.660        0.658      338.639       11.427      869.845
01/04/2015  13:13:00       66.819      -52.576        0.012       27.684       29.151       32.357      766.394      849.801     1046.959        0.495        0.133       85.024       26.468        0.097      338.174       10.646      869.828
01/04/2015  13:14:00       50.451       26.297       35.028       27.815       39.625       26.903      773.674     1570.112      723.779        0.377        0.153       56.893       20.933        0.135      338.268       10.806      869.802
01/04/2015  13:15:00        0.528      -26.118        1.029       31.048       32.857       17.801      963.961     1079.552      316.888        0.152        0.118       26.123       13.085        0.251      338.560       11.295      869.786
01/04/2015  13:16:00      -28.819       -6.053       -0.769       21.881       15.351       15.242      478.782      235.655      232.333        0.091        0.047       29.448        8.690        0.087      338.764       11.636      869.780
01/04/2015  13:17:00      -30.167       -6.211        2.204       36.903       24.804       19.440     1361.817      615.226      377.929        0.165        0.118       30.800       17.766        0.333      338.747       11.609      869.787
01/04/2015  13:18:00       -9.173      -50.004      -14.045       38.308       21.980       25.067     1467.518      483.104      628.349        0.268        0.129       50.839       21.316        0.176      338.498       11.191      869.792
01/04/2015  13:19:00      -38.505      -27.733       -2.483       22.512       24.334       15.399      506.797      592.141      237.137        0.180        0.067       47.453       11.991        0.064      338.429       11.074      869.796
01/04/2015  13:20:00      -38.118      -62.244       -6.364       28.863       32.893       18.136      833.092     1081.977      328.930        0.381        0.112       72.988       16.571        0.052      338.551       11.280      869.810
01/04/2015  13:21:00      -38.020      -27.472        4.350       20.554       21.922       17.072      422.475      480.564      291.440        0.171        0.060       46.907        9.157        0.038      338.547       11.272      869.821
01/04/2015  13:22:00      -16.382        6.059       17.578       24.755       23.286       25.685      612.795      542.241      659.706        0.121        0.091       17.467       20.306        1.351      338.762       11.634      869.828
01/04/2015  13:23:00       11.209      -70.913       -6.761       26.972       59.816       28.975      727.489     3577.955      839.574        0.517        0.257       71.794       31.537        0.193      338.657       11.459      869.834
01/04/2015  13:24:00       42.991      -74.276        4.089       50.361       37.002       24.054     2536.196     1369.180      578.613        0.593        0.224       85.821       24.600        0.082      338.585       11.336      869.838
01/04/2015  13:25:00       46.449      -78.884       -4.441       30.192       46.060       33.688      911.546     2121.556     1134.899        0.628        0.208       91.543       35.558        0.151      338.615       11.387      869.849
01/04/2015  13:26:00      -19.533       -1.142       44.310       26.984       42.958       32.431      728.141     1845.373     1051.783        0.298        0.181       19.566       27.138        1.924      338.929       11.915      869.845
01/04/2015  13:27:00       15.268        8.067       33.654       35.459       35.433       27.547     1257.372     1255.476      758.835        0.235        0.164       17.268       22.010        1.624      338.786       11.674      869.861
01/04/2015  13:28:00       58.701      -77.678        5.187       45.299       63.062       33.345     2052.035     3976.855     1111.885        0.832        0.357       97.363       35.510        0.133      338.582       11.331      869.834
01/04/2015  13:29:00       22.276      -30.844       24.187       50.063       44.474       31.570     2506.352     1977.946      996.679        0.376        0.274       38.047       34.874        0.840      338.795       11.689      869.822
01/04/2015  13:30:00        2.706      -11.472       11.140       23.704       19.322       15.107      561.887      373.350      228.234        0.071        0.058       11.787        8.228        0.487      338.949       11.947      869.803
01/04/2015  13:31:00      -27.323      -20.779       10.360       27.749       20.998       17.067      770.008      440.911      291.282        0.139        0.075       34.326       13.904        0.164      338.840       11.765      869.815
01/04/2015  13:32:00      -28.266        0.281        8.595       25.586       19.624       17.220      654.630      385.087      296.528        0.110        0.067       28.267       17.289        0.374      338.843       11.771      869.827
01/04/2015  13:33:00        6.796       -9.161        9.160       29.409       35.620       27.780      864.861     1268.809      771.705        0.156        0.145       11.406       24.252        4.521      338.947       11.945      869.850
01/04/2015  13:34:00       -7.550      -24.859       33.641       35.971       38.232       21.884     1293.916     1461.656      478.909        0.252        0.162       25.980       24.236        0.870      339.092       12.189      869.873
01/04/2015  13:35:00       -9.912       13.343       -8.546       36.237       22.855       25.889     1313.120      522.372      670.258        0.143        0.125       16.622        8.777        0.279      338.900       11.865      869.902
01/04/2015  13:36:00       27.373      -20.861        1.006       44.166       37.935       19.020     1950.660     1439.070      361.772        0.247        0.188       34.416       12.157        0.125      338.867       11.810      869.920
01/04/2015  13:37:00        9.690      -58.202        4.880       49.514       21.765       24.138     2451.591      473.701      582.643        0.351        0.175       59.003       14.965        0.064      338.864       11.805      869.917
01/04/2015  13:38:00       16.278      -51.266       -1.387       36.455       48.170       23.601     1328.979     2320.336      556.998        0.355        0.210       53.788       24.199        0.202      338.770       11.646      869.921
01/04/2015  13:39:00       -4.129      -50.847        6.631       31.458       45.777       30.559      989.583     2095.533      933.825        0.333        0.201       51.014       31.628        0.384      338.952       11.953      869.905
01/04/2015  13:40:00      -29.788       -4.831       -3.228       33.191       37.444       24.493     1101.634     1402.080      599.889        0.201        0.155       30.177       25.423        0.710      338.864       11.805      869.889
01/04/2015  13:41:00       25.270      -35.230       17.254       35.526       56.634       40.510     1262.073     3207.461     1641.042        0.414        0.306       43.356       39.559        0.833      338.820       11.731      869.883
01/04/2015  13:42:00       33.524      -71.469        6.516       37.845       75.770       51.219     1432.267     5741.098     2623.393        0.803        0.490       78.941       58.994        0.558      338.757       11.625      869.871
01/04/2015  13:43:00       21.819        8.293       47.763       37.843       50.018       36.467     1432.113     2501.819     1329.874        0.404        0.263       23.342       37.145        2.532      338.864       11.806      869.887
01/04/2015  13:44:00       51.221      -41.344        7.435       61.403       52.257       35.595     3770.270     2730.838     1267.025        0.608        0.388       65.824       36.103        0.301      338.866       11.808      869.909
01/04/2015  13:45:00        4.422        9.278       56.381       39.715       68.838       31.932     1577.251     4738.728     1019.625        0.531        0.367       10.278       41.426       16.245      338.860       11.799      869.912
01/04/2015  13:46:00       57.265        4.670       17.747       37.018       56.248       31.108     1370.333     3163.833      967.720        0.456        0.275       57.455       29.078        0.256      338.723       11.568      869.903
01/04/2015  13:47:00       67.205       37.182       50.700       64.129       46.621       39.703     4112.474     2173.476     1576.299        0.816        0.393       76.805       43.011        0.314      338.785       11.672      869.881
01/04/2015  13:48:00       41.923       59.060       63.138       50.589       54.567       39.306     2559.224     2977.609     1544.995        0.816        0.354       72.426       34.749        0.230      338.880       11.833      869.860
01/04/2015  13:49:00       69.614       60.588       56.536       49.765       36.849       36.676     2476.508     1357.866     1345.150        0.845        0.259       92.288       28.252        0.094      338.846       11.774      869.856
01/04/2015  13:50:00       87.888       74.604       55.785       45.809       35.909       33.209     2098.495     1289.483     1102.818        1.045        0.225      115.282       21.647        0.035      338.715       11.556      869.852
01/04/2015  13:51:00       82.395       22.377       38.226       48.259       40.861       33.512     2328.929     1669.583     1123.087        0.694        0.256       85.380       26.720        0.098      338.679       11.495      869.851
01/04/2015  13:52:00       98.132     -103.881      -22.357       56.783       73.735       43.745     3224.282     5436.781     1913.648        1.575        0.529      142.903       58.636        0.168      338.637       11.423      869.859
01/04/2015  13:53:00       76.622      -90.326      -18.964       44.901       48.933       29.234     2016.139     2394.461      854.610        0.983        0.263      118.447       18.209        0.024      338.696       11.524      869.863
01/04/2015  13:54:00       44.450      -30.244       36.431       38.740       62.466       32.141     1500.812     3902.034     1033.059        0.533        0.322       53.764       29.602        0.303      339.006       12.044      869.857
01/04/2015  13:55:00       75.227      -14.859       27.978       41.667      105.510       38.268     1736.138    11132.441     1464.412        1.049        0.717       76.680       47.280        0.380      338.835       11.756      869.858
01/04/2015  13:56:00       77.295       87.284      106.414       73.790       61.474       48.678     5444.891     3779.071     2369.503        1.825        0.580      116.590       41.541        0.127      338.684       11.502      869.866
01/04/2015  13:57:00      120.009       99.118       76.940       62.643       57.846       56.127     3924.135     3346.204     3150.255        2.028        0.521      155.649       37.060        0.057      338.532       11.246      869.870
01/04/2015  13:58:00       74.326       72.965       86.480       54.831       53.014       44.191     3006.414     2810.465     1952.812        1.305        0.388      104.155       37.500        0.130      338.662       11.465      869.892
01/04/2015  13:59:00       53.678       20.233       28.328       29.523       33.406       32.467      871.601     1115.963     1054.097        0.357        0.152       57.365       19.095        0.111      338.546       11.269      869.921
01/04/2015  14:00:00       26.752       48.161       51.406       37.026       31.928       35.037     1370.908     1019.387     1227.613        0.465        0.181       55.092       29.610        0.289      338.739       11.594      869.937
01/04/2015  14:01:00       45.081      -10.155       29.331       34.796       55.171       38.387     1210.790     3043.831     1473.579        0.436        0.286       46.211       33.658        0.531      338.826       11.741      869.937
01/04/2015  14:02:00       40.623      101.632       84.626       46.142       38.761       47.533     2129.084     1502.451     2259.423        1.251        0.295      109.450       39.266        0.129      338.680       11.497      869.918
01/04/2015  14:03:00       71.222       41.326       53.045       43.881       32.533       34.338     1925.523     1058.402     1179.110        0.688        0.208       82.343       32.144        0.152      338.562       11.299      869.929
01/04/2015  14:04:00       75.542       47.711       26.656       43.026       37.267       39.574     1851.235     1388.816     1566.066        0.675        0.240       89.348       29.980        0.113      338.614       11.385      869.934
01/04/2015  14:05:00       21.479       29.714       39.689       35.110       39.690       23.925     1232.718     1575.324      572.383        0.315        0.169       36.664       19.310        0.277      338.851       11.783      869.946
01/04/2015  14:06:00        4.012      -14.413       10.200       16.490       29.113       16.827      271.924      847.539      283.161        0.086        0.070       14.961       15.614        1.089      338.854       11.788      869.960
01/04/2015  14:07:00       14.047      -38.686        7.247       32.157       33.486       29.614     1034.093     1121.299      876.992        0.239        0.152       41.157       22.841        0.308      338.935       11.924      869.965
01/04/2015  14:08:00       22.180      -82.381      -12.265       39.311       32.764       25.344     1545.360     1073.457      642.339        0.534        0.163       85.315       16.587        0.038      338.881       11.833      869.978
01/04/2015  14:09:00       10.389      -70.495      -20.413       31.185       35.371       22.825      972.486     1251.134      520.988        0.412        0.137       71.256       18.944        0.071      338.873       11.821      869.988
01/04/2015  14:10:00       -9.159       -3.989       19.208       23.144       19.382       17.022      535.628      375.653      289.736        0.083        0.060        9.990       12.912        1.671      339.101       12.203      870.007
01/04/2015  14:11:00       23.427      -48.388        8.493       26.347       43.518       30.396      694.174     1893.813      923.891        0.324        0.176       53.761       30.663        0.325      339.071       12.153      870.020
01/04/2015  14:12:00       27.759      -34.513       19.007       54.509       41.901       26.127     2971.239     1755.702      682.644        0.387        0.270       44.291       33.732        0.580      339.168       12.316      870.025
01/04/2015  14:13:00       64.557      -77.662        7.530       38.670       34.227       29.753     1495.361     1171.514      885.253        0.690        0.178      100.990       24.129        0.057      338.961       11.968      870.020
01/04/2015  14:14:00       31.475      -31.521       19.113       40.550       54.609       41.415     1644.302     2982.181     1715.225        0.434        0.317       44.545       43.205        0.941      339.025       12.077      870.018
01/04/2015  14:15:00       42.976      -29.740       10.636       57.594       51.488       32.216     3317.110     2651.018     1037.870        0.492        0.350       52.263       25.856        0.245      338.962       11.971      870.010
01/04/2015  14:16:00       85.107      -81.122       -8.002       43.255       53.904       27.245     1871.027     2905.590      742.264        0.970        0.276      117.575       29.033        0.061      338.791       11.681      870.003
01/04/2015  14:17:00       45.740      -11.873       25.926       39.425       87.509       49.900     1554.368     7657.906     2490.018        0.730        0.585       47.256       57.140        1.462      338.821       11.733      869.995
01/04/2015  14:18:00       56.813       74.635       69.677       46.928       39.492       28.642     2202.214     1559.638      820.392        0.912        0.229       93.799       20.640        0.048      338.759       11.629      869.992
01/04/2015  14:19:00      106.060       65.242       16.685       42.089       30.900       31.634     1771.471      954.789     1000.716        0.975        0.186      124.520       22.277        0.032      338.661       11.464      870.002
01/04/2015  14:20:00       -0.179       29.967       46.505       29.064       34.462       29.082      844.729     1187.655      845.735        0.297        0.144       29.967       23.180        0.598      339.027       12.080      870.010
01/04/2015  14:21:00       75.557       80.526       55.416       50.431       42.661       43.362     2543.324     1819.967     1880.233        1.075        0.312      110.423       31.783        0.083      338.812       11.718      870.012
01/04/2015  14:22:00       42.682       59.485       57.294       44.027       39.780       37.681     1938.397     1582.449     1419.853        0.679        0.247       73.214       28.287        0.149      338.914       11.889      870.004
01/04/2015  14:23:00       65.215       23.307       35.780       68.765       37.606       38.668     4728.583     1414.211     1495.195        0.686        0.382       69.254       43.590        0.396      338.939       11.930      869.996
01/04/2015  14:24:00       13.463      -42.135       22.230       38.642       82.650       46.199     1493.204     6831.095     2134.310        0.645        0.523       44.234       49.703        1.263      339.009       12.050      869.993
01/04/2015  14:25:00       28.535        6.698       37.218       30.882       60.722       36.810      953.717     3687.104     1354.987        0.412        0.300       29.311       32.943        1.263      338.984       12.006      869.991
01/04/2015  14:26:00       35.376      -45.803       34.188       37.074       67.196       29.033     1374.500     4515.352      842.910        0.562        0.337       57.874       36.717        0.403      338.974       11.991      869.993
01/04/2015  14:27:00       63.270      -67.599       -3.432       33.851       33.154       20.515     1145.911     1099.205      420.883        0.562        0.133       92.589       13.614        0.022      338.768       11.645      869.996
01/04/2015  14:28:00       80.572      -69.851       -6.132       45.934       67.232       37.483     2109.946     4520.157     1404.980        0.972        0.402      106.635       40.514        0.144      338.825       11.740      869.987
01/04/2015  14:29:00       58.039      -54.753        3.447       44.670       53.949       32.330     1995.436     2910.523     1045.252        0.616        0.298       79.790       30.812        0.149      338.863       11.804      869.983
01/04/2015  14:30:00       58.998      -38.905       18.997       50.731       56.353       53.219     2573.599     3175.652     2832.286        0.697        0.429       70.671       47.049        0.443      338.924       11.906      869.970
01/04/2015  14:31:00       44.837      -11.541       38.304       51.064       66.296       58.177     2607.580     4395.214     3384.574        0.700        0.519       46.299       48.662        1.105      338.958       11.963      869.980
01/04/2015  14:32:00      124.453     -164.102      -20.872       65.686       62.768       48.423     4314.710     3939.857     2344.756        2.672        0.530      205.956       48.008        0.054      338.729       11.575      869.996
01/04/2015  14:33:00       94.758     -126.183      -31.858       51.519       56.499       30.067     2654.193     3192.122      903.996        1.633        0.338      157.801       20.016        0.016      338.841       11.766      870.007
01/04/2015  14:34:00       81.679      -59.802        7.387       72.948       74.354       58.991     5321.376     5528.541     3479.971        1.231        0.716      101.231       63.022        0.388      338.861       11.799      870.028
01/04/2015  14:35:00       58.455      -81.330        3.612       42.642       80.742       40.890     1818.299     6519.255     1671.982        1.003        0.500      100.158       45.577        0.207      338.844       11.771      870.055
01/04/2015  14:36:00      143.772     -148.636      -24.673       76.289       92.568       39.180     5819.965     8568.783     1535.071        2.964        0.796      206.792       58.098        0.079      338.767       11.639      870.071
01/04/2015  14:37:00       96.235      -96.381      -12.783       59.470       88.933       49.253     3536.714     7909.082     2425.893        1.629        0.694      136.200       52.905        0.151      338.722       11.566      870.086
01/04/2015  14:38:00       69.489      -91.131       -7.772       57.090       87.165       49.926     3259.300     7597.670     2492.622        1.327        0.667      114.602       50.297        0.193      338.799       11.694      870.106
01/04/2015  14:39:00       25.212      -14.515       39.646       51.047       48.643       43.108     2605.831     2366.187     1858.269        0.462        0.342       29.091       36.607        1.583      338.933       11.922      870.111
01/04/2015  14:40:00       54.074      -56.872      -13.243       59.851       92.570       47.773     3582.083     8569.195     2282.256        1.038        0.722       78.475       45.307        0.333      338.758       11.626      870.110
01/04/2015  14:41:00       73.791     -116.081       -8.993       44.958       39.643       35.585     2021.179     1571.547     1266.300        1.193        0.243      137.550       32.134        0.055      338.688       11.510      870.133
01/04/2015  14:42:00       86.921     -125.354      -21.726       57.138       58.388       38.050     3264.735     3409.178     1447.825        1.593        0.406      152.541       38.552        0.064      338.713       11.551      870.137
01/04/2015  14:43:00       50.020      -70.352      -23.759       57.924       63.927       42.251     3355.139     4086.707     1785.109        0.862        0.461       86.322       38.815        0.202      338.735       11.589      870.142
01/04/2015  14:44:00       55.676      -87.780        3.069       34.393       46.602       34.121     1182.866     2171.762     1164.243        0.767        0.226      103.948       32.869        0.100      338.775       11.656      870.147
01/04/2015  14:45:00       25.288       13.163       57.753       42.343       45.255       48.268     1792.966     2047.981     2329.791        0.516        0.309       28.508       40.161        1.985      338.884       11.838      870.142
01/04/2015  14:46:00       31.517        0.368       53.743       34.485       55.181       35.975     1189.217     3044.952     1294.170        0.470        0.276       31.519       27.612        0.767      338.915       11.891      870.146
01/04/2015  14:47:00       19.961       69.667       73.374       31.359       38.878       33.684      983.366     1511.468     1134.589        0.713        0.181       72.470       24.509        0.114      338.847       11.778      870.145
01/04/2015  14:48:00       -2.232       37.465       68.283       33.918       33.057       22.048     1150.411     1092.759      486.125        0.440        0.136       37.531       16.562        0.195      338.853       11.787      870.168
01/04/2015  14:49:00       56.507      -57.055       15.069       44.453       66.806       38.377     1976.114     4463.035     1472.791        0.729        0.396       80.301       47.646        0.352      338.734       11.585      870.195
01/04/2015  14:50:00       86.751     -102.555      -14.483       49.103       38.143       26.556     2411.102     1454.859      705.245        1.141        0.229      134.326       18.707        0.019      338.675       11.487      870.217
01/04/2015  14:51:00       70.266      -82.116       -5.939       47.026       26.988       31.341     2211.478      728.326      982.230        0.782        0.196      108.076       24.025        0.049      338.717       11.558      870.234
01/04/2015  14:52:00       68.842      -64.801        1.088       49.621       54.798       41.235     2462.273     3002.864     1700.293        0.805        0.358       94.543       29.943        0.100      338.771       11.649      870.247
01/04/2015  14:53:00       44.840      -36.763       11.338       45.788       60.841       40.316     2096.534     3701.644     1625.379        0.546        0.371       57.984       33.639        0.337      338.846       11.775      870.259
01/04/2015  14:54:00       29.018      -41.517       26.037       41.339       80.511       37.248     1708.895     6481.950     1387.410        0.641        0.479       50.653       41.853        0.683      338.756       11.623      870.267
01/04/2015  14:55:00      125.241     -140.688      -22.621       21.960       29.905       19.192      482.258      894.301      368.315        1.887        0.087      188.357       10.138        0.003      338.574       11.317      870.273
01/04/2015  14:56:00       73.123      -65.424        7.632       48.500       82.041       49.171     2352.250     6730.757     2417.834        1.059        0.575       98.119       57.607        0.345      338.692       11.516      870.287
01/04/2015  14:57:00       70.186      -71.858       -2.304       55.022       63.672       43.856     3027.426     4054.171     1923.330        0.955        0.450      100.447       48.432        0.232      338.712       11.550      870.296
01/04/2015  14:58:00       96.323     -114.852      -18.873       38.682       36.413       22.573     1496.277     1325.924      509.560        1.308        0.167      149.897       23.476        0.025      338.604       11.368      870.315
01/04/2015  14:59:00       79.016      -81.800      -14.586       47.225       48.755       27.742     2230.210     2377.007      769.628        0.926        0.269      113.731       32.243        0.080      338.675       11.488      870.321
01/04/2015  15:00:00       52.466      -40.918       -3.652       47.235       50.873       38.494     2231.191     2588.072     1481.802        0.537        0.315       66.535       39.466        0.352      338.685       11.505      870.326
01/04/2015  15:01:00       46.086      -53.385       14.639       42.946       76.085       38.269     1844.350     5788.885     1464.539        0.714        0.455       70.525       52.185        0.548      338.716       11.558      870.330
01/04/2015  15:02:00       44.797      -11.909       26.212       61.491       78.830       48.013     3781.163     6214.194     2305.255        0.757        0.615       46.353       59.739        1.661      338.745       11.603      870.326
01/04/2015  15:03:00       15.102      -22.142       20.905       31.080       50.217       26.910      965.971     2521.730      724.146        0.268        0.211       26.802       22.788        0.723      338.813       11.718      870.331
01/04/2015  15:04:00       44.057      -83.465       -9.272       38.865       31.108       24.924     1510.516      967.695      621.212        0.605        0.155       94.379       11.845        0.016      338.778       11.661      870.344
01/04/2015  15:05:00       71.574      -94.115      -16.286       22.312       28.075       21.152      497.817      788.186      447.399        0.799        0.087      118.239       13.769        0.014      338.814       11.722      870.352
01/04/2015  15:06:00       88.913      -85.294      -18.928       41.752       45.249       25.840     1743.208     2047.427      667.683        1.000        0.223      123.210       21.005        0.029      338.745       11.604      870.375
01/04/2015  15:07:00       27.172       12.893       55.893       38.511       56.572       35.239     1483.128     3200.401     1241.817        0.498        0.296       30.076       39.822        1.753      338.807       11.709      870.389
01/04/2015  15:08:00       60.050      -49.894        1.434       50.978       53.317       29.956     2598.718     2842.664      897.345        0.622        0.317       78.073       33.194        0.181      338.695       11.522      870.409
01/04/2015  15:09:00       85.063      -55.932      -11.617       23.723       23.984       18.820      562.790      575.210      354.174        0.600        0.075      101.804       15.836        0.024      338.649       11.444      870.411
01/04/2015  15:10:00       55.521      -55.613        1.494       40.454       37.972       28.208     1636.533     1441.883      795.670        0.503        0.194       78.584       31.451        0.160      338.733       11.586      870.401
01/04/2015  15:11:00        8.961        6.879       31.533       26.455       31.011       19.793      699.857      961.697      391.764        0.159        0.103       11.297       15.101        1.787      338.761       11.632      870.396
01/04/2015  15:12:00        1.710       28.151       49.752       25.298       24.629       18.621      639.993      606.582      346.737        0.243        0.080       28.203       15.575        0.305      338.806       11.708      870.394
01/04/2015  15:13:00        8.717       10.009       46.587       22.298       35.282       25.605      497.200     1244.792      655.620        0.237        0.120       13.273       24.822        3.498      338.794       11.687      870.384
01/04/2015  15:14:00       24.790       23.555       31.346       21.113       33.271       23.820      445.745     1106.979      567.386        0.214        0.106       34.196       15.113        0.195      338.719       11.561      870.381
01/04/2015  15:15:00       69.699       68.244       47.905       31.395       32.362       26.265      985.662     1047.314      689.828        0.727        0.136       97.546       17.076        0.031      338.667       11.474      870.383
01/04/2015  15:16:00       55.416       30.181       28.658       39.241       23.174       29.322     1539.874      537.027      859.785        0.387        0.147       63.101       19.688        0.097      338.674       11.485      870.393
01/04/2015  15:17:00       99.701       40.828       32.719       57.301       41.201       37.107     3283.382     1697.529     1376.960        0.952        0.318      107.737       30.905        0.082      338.607       11.374      870.388
01/04/2015  15:18:00       68.942       34.716       21.559       48.736       37.167       39.540     2375.151     1381.375     1563.383        0.587        0.266       77.189       28.212        0.134      338.654       11.451      870.390
01/04/2015  15:19:00       62.694       39.779       22.675       33.642       29.115       26.566     1131.784      847.659      705.769        0.436        0.134       74.249       19.092        0.066      338.622       11.397      870.396
01/04/2015  15:20:00       66.628       33.314       18.494       29.707       23.715       22.259      882.520      562.422      495.479        0.392        0.097       74.492       12.804        0.030      338.648       11.443      870.404
01/04/2015  15:21:00       11.563       18.445       30.607       22.478       25.582       23.004      505.257      654.430      529.195        0.155        0.084       21.770       19.481        0.801      338.673       11.483      870.407
01/04/2015  15:22:00       15.128       43.025       49.138       27.700       24.753       18.603      767.264      612.724      346.089        0.311        0.086       45.608       17.680        0.150      338.701       11.531      870.405
01/04/2015  15:23:00        4.795        6.089       26.365       17.656       30.844       16.810      311.747      951.363      282.582        0.115        0.077        7.750       19.688        6.453      338.693       11.518      870.414
01/04/2015  15:24:00       16.224      -62.389      -10.400       16.536       14.409       13.907      273.432      207.610      193.413        0.247        0.034       64.465        6.956        0.012      338.711       11.548      870.440
01/04/2015  15:25:00       32.285      -67.371       -6.814       28.742       23.750       13.190      826.112      564.066      173.967        0.360        0.078       74.707       13.528        0.033      338.690       11.512      870.468
01/04/2015  15:26:00       12.022        1.911       17.435       26.200       18.622       16.316      686.433      346.792      266.221        0.088        0.065       12.173       17.392        2.041      338.640       11.428      870.492
01/04/2015  15:27:00       -6.675        0.367       10.867        8.013        8.456       10.507       64.207       71.496      110.400        0.020        0.012        6.685        7.780        1.354      338.748       11.611      870.512
01/04/2015  15:28:00      -12.930        0.445        9.966       28.415       22.189       13.888      807.399      492.351      192.867        0.088        0.075       12.938       14.534        1.262      338.808       11.711      870.535
01/04/2015  15:29:00      -79.387      -41.327       -2.746       18.028       13.476       12.391      325.019      181.604      153.527        0.434        0.033       89.499       10.642        0.014      338.693       11.518      870.554
01/04/2015  15:30:00      -16.704       -8.166       12.658       32.277       18.751       14.748     1041.776      351.605      217.511        0.106        0.081       18.593       16.220        0.761      338.604       11.367      870.573
01/04/2015  15:31:00        6.776        4.621       -4.810       22.975       27.466       19.861      527.868      754.361      394.459        0.088        0.084        8.202       11.823        2.078      338.618       11.393      870.584
01/04/2015  15:32:00        0.833       -7.715      -11.127       28.219       18.129       17.120      796.284      328.650      293.106        0.080        0.071        7.760       10.876        1.964      338.695       11.521      870.596
01/04/2015  15:33:00       -0.026        5.694       -9.081       15.818       18.309       14.214      250.198      335.218      202.032        0.045        0.039        5.694        8.361        2.156      338.670       11.479      870.608
01/04/2015  15:34:00      -11.539      -17.990        9.065       26.202       16.785        7.747      686.537      281.733       60.020        0.078        0.051       21.372        5.900        0.076      338.663       11.467      870.621
01/04/2015  15:35:00       -9.070        2.421        2.378        8.349       19.424       14.998       69.704      377.288      224.925        0.038        0.034        9.387       15.476        2.718      338.607       11.375      870.631
01/04/2015  15:36:00        5.405       -5.280      -18.846       25.286       18.518       10.925      639.398      342.919      119.359        0.076        0.055        7.556        9.979        1.744      338.623       11.401      870.643
01/04/2015  15:37:00      -11.958        4.464        0.556       10.515        8.398       11.503      110.573       70.522      132.322        0.024        0.016       12.764        5.330        0.174      338.730       11.580      870.660
01/04/2015  15:38:00      -14.809       -6.896        7.763       10.537       14.497       11.243      111.023      210.154      126.400        0.039        0.022       16.336       10.804        0.437      338.693       11.516      870.679
01/04/2015  15:39:00      -15.585        6.026        7.112       17.033       12.625       10.884      290.128      159.384      118.453        0.045        0.028       16.709        8.977        0.289      338.698       11.528      870.688
01/04/2015  15:40:00       29.606        9.495        3.908       18.224       16.732       10.444      332.097      279.970      109.074        0.085        0.036       31.092        6.178        0.039      338.524       11.234      870.694
01/04/2015  15:41:00       -0.403       -5.372        4.011        8.853       16.253        7.157       78.373      264.155       51.220        0.022        0.020        5.387        7.824        2.109      338.565       11.302      870.702
01/04/2015  15:42:00        3.728      -19.977       -1.433       27.819       18.055       10.207      773.874      325.978      104.173        0.081        0.060       20.322       10.504        0.267      338.593       11.349      870.703
01/04/2015  15:43:00      -15.421      -22.100       -1.293       12.341       11.186       11.921      152.289      125.123      142.113        0.057        0.021       26.949        3.192        0.014      338.610       11.377      870.713
01/04/2015  15:44:00       -6.014      -17.673        0.304       26.199       16.381       14.174      686.375      268.333      200.897        0.075        0.058       18.669        9.381        0.253      338.630       11.414      870.719
01/04/2015  15:45:00        5.933      -29.175       -0.020       28.812       33.024       24.670      830.141     1090.566      608.618        0.171        0.126       29.772       23.692        0.633      338.576       11.322      870.722
01/04/2015  15:46:00       75.301      -51.868       -7.584       48.076       33.494       21.146     2311.310     1121.846      447.171        0.615        0.194       91.436       16.055        0.031      338.557       11.288      870.737
01/04/2015  15:47:00       -8.218      -31.652      -11.045       26.987       20.800       16.365      728.273      432.656      267.827        0.131        0.071       32.702       14.570        0.199      338.561       11.296      870.748
01/04/2015  15:48:00      -38.619       -7.487        1.551       19.978       25.466       15.071      399.106      648.536      227.131        0.141        0.064       39.338       12.592        0.102      338.491       11.178      870.766
01/04/2015  15:49:00      -19.829       -6.401        6.608       24.575       21.138       13.441      603.945      446.803      180.670        0.085        0.062       20.837       15.102        0.525      338.484       11.166      870.778
01/04/2015  15:50:00      -48.373      -38.872       -2.207       18.258       22.917       10.472      333.362      525.195      109.671        0.241        0.048       62.056        8.548        0.019      338.529       11.242      870.780
01/04/2015  15:51:00      -38.971      -22.796       -1.026       16.750       21.102       10.977      280.549      445.301      120.485        0.144        0.042       45.148        9.813        0.047      338.536       11.254      870.771
01/04/2015  15:52:00        5.745      -20.184       -2.694       23.334       19.626       19.374      544.491      385.163      375.349        0.088        0.065       20.986        8.386        0.160      338.571       11.315      870.764
01/04/2015  15:53:00        4.778        2.459        7.301       19.559        7.218        6.952      382.561       52.094       48.329        0.028        0.024        5.374        5.835        1.179      338.524       11.235      870.765
01/04/2015  15:54:00      -28.056      -17.453       -3.201       13.082       12.442        7.723      171.133      154.800       59.647        0.074        0.019       33.042        6.920        0.044      338.528       11.241      870.778
01/04/2015  15:55:00      -34.909      -23.908       -1.220        9.856        9.549        5.574       97.138       91.185       31.065        0.101        0.011       42.311        4.283        0.010      338.443       11.097      870.789
01/04/2015  15:56:00      -40.660      -25.514        2.151       28.420       18.804       13.341      807.673      353.608      177.981        0.182        0.067       48.002       13.620        0.081      338.421       11.061      870.803
01/04/2015  15:57:00      -66.641      -44.082        1.868       19.760       20.250       12.555      390.463      410.078      157.638        0.367        0.048       79.901        7.702        0.009      338.360       10.959      870.812
01/04/2015  15:58:00      -76.163      -23.517       -3.511       18.411       14.194        9.217      338.974      201.479       84.956        0.350        0.031       79.711        9.855        0.015      338.129       10.571      870.816
01/04/2015  15:59:00      -94.242      -35.631      -12.965        9.747        9.650       11.053       94.995       93.122      122.170        0.531        0.016      100.753        3.154        0.001      338.167       10.634      870.819
01/04/2015  16:00:00      -75.425      -30.916       -5.173       18.638       12.504        9.946      347.389      156.355       98.920        0.364        0.030       81.515        9.888        0.015      338.347       10.938      870.830
01/04/2015  16:01:00      -63.312      -37.011      -14.578        6.473        7.230        7.550       41.900       52.267       57.008        0.287        0.008       73.336        4.017        0.003      338.492       11.182      870.841
01/04/2015  16:02:00      -59.413      -38.596      -14.239        9.918        8.906        9.082       98.366       79.313       82.482        0.274        0.013       70.849        5.970        0.007      338.635       11.422      870.862
01/04/2015  16:03:00      -51.531      -39.637       -5.121       14.994       16.439       12.837      224.814      270.226      164.779        0.246        0.033       65.012        7.376        0.013      338.559       11.291      870.877
01/04/2015  16:04:00       -1.044      -38.693        1.935       14.422       14.176       11.111      208.007      200.962      123.449        0.102        0.027       38.707       10.178        0.069      338.356       10.952      870.880
01/04/2015  16:05:00      -40.773      -50.266       -1.041       15.102       11.866       10.484      228.077      140.807      109.920        0.233        0.024       64.723        5.760        0.008      338.462       11.129      870.879
01/04/2015  16:06:00      -58.143      -37.931       -2.950       14.177       11.198        9.310      200.993      125.403       86.675        0.262        0.021       69.422        7.710        0.012      338.398       11.021      870.875
01/04/2015  16:07:00      -70.121      -44.430       -8.395       13.644       10.611        9.044      186.164      112.604       81.799        0.367        0.019       83.011        7.253        0.008      338.267       10.805      870.880
01/04/2015  16:08:00     -101.948      -43.342      -14.452       19.916       14.344       11.888      396.643      205.739      141.332        0.661        0.037      110.778        4.494        0.002      338.290       10.842      870.903
01/04/2015  16:09:00      -91.249      -39.407       -7.866       25.973       22.926       14.340      674.619      525.608      205.647        0.567        0.070       99.395       14.382        0.021      338.413       11.048      870.920
01/04/2015  16:10:00      -50.541      -19.367        1.975       35.320       28.188       17.664     1247.536      794.563      312.015        0.264        0.118       54.124       13.791        0.065      338.289       10.839      870.924
01/04/2015  16:11:00      -18.977       -0.066        7.400       25.332       25.158       18.802      641.711      632.916      353.498        0.102        0.081       18.977        7.875        0.172      338.240       10.757      870.919
01/04/2015  16:12:00       10.573        2.683        2.487       20.721       23.767       11.488      429.369      564.893      131.967        0.063        0.056       10.908       11.698        1.150      338.125       10.563      870.905
01/04/2015  16:13:00      -34.626      -21.134       -1.484       26.161       26.515       11.693      684.374      703.059      136.724        0.159        0.076       40.566       10.004        0.061      338.072       10.475      870.898
01/04/2015  16:14:00      -50.567      -40.824        1.067       17.976       19.187       13.064      323.128      368.130      170.664        0.254        0.043       64.989        6.913        0.011      338.180       10.657      870.901
01/04/2015  16:15:00      -54.128      -45.986        1.178       19.845       16.052       16.764      393.815      257.679      281.033        0.299        0.047       71.025        8.414        0.014      338.251       10.774      870.902
01/04/2015  16:16:00      -41.421      -22.725       -3.173       26.996       23.107       12.926      728.791      533.915      167.083        0.184        0.071       47.245        6.044        0.016      337.998       10.349      870.916
01/04/2015  16:17:00       -1.251       16.622       -1.160       17.196       14.890       12.667      295.691      221.726      160.453        0.048        0.034       16.669        6.969        0.175      338.161       10.624      870.927
01/04/2015  16:18:00      -12.557       11.095        0.847       22.366       19.337       14.942      500.258      373.920      223.270        0.069        0.055       16.756        9.796        0.342      338.151       10.609      870.938
01/04/2015  16:19:00      -63.211       69.773      -12.189       16.764       15.171       13.953      281.042      230.145      194.691        0.486        0.035       94.148        9.689        0.011      338.275       10.815      870.946
01/04/2015  16:20:00      -75.482       67.941      -19.366       13.085       20.512        9.568      171.219      420.751       91.544        0.569        0.034      101.555        9.054        0.008      338.441       11.094      870.968
01/04/2015  16:21:00      -78.816       55.162      -14.874       17.285       29.670       13.222      298.762      880.338      174.819        0.541        0.068       96.202        8.037        0.007      338.442       11.096      870.991
01/04/2015  16:22:00      -44.918      -21.719        0.137       30.067       25.619       15.306      903.996      656.320      234.260        0.214        0.090       49.894       15.852        0.101      338.036       10.414      871.004
01/04/2015  16:23:00      -82.330      -20.157       -2.423       43.889       25.477       19.038     1926.225      649.075      362.459        0.506        0.147       84.762       16.299        0.037      337.715        9.876      871.015
01/04/2015  16:24:00      -88.395      -27.425       -1.974       34.174       26.085       18.396     1167.849      680.417      338.419        0.538        0.109       92.552       12.580        0.018      337.441        9.417      871.015
01/04/2015  16:25:00     -124.060       -1.553       -6.073       34.092       26.991       20.171     1162.294      728.518      406.877        0.886        0.115      124.069       17.541        0.020      337.362        9.285      871.014
01/04/2015  16:26:00      -81.492       -1.209       -5.991       31.715       41.812       23.953     1005.811     1748.254      573.741        0.500        0.166       81.501       20.416        0.063      337.577        9.645      871.009
01/04/2015  16:27:00     -100.367        4.404      -14.060       29.000       25.957       21.294      841.001      673.774      453.416        0.613        0.098      100.464       16.587        0.027      337.593        9.671      871.015
01/04/2015  16:28:00      -84.239       11.560       -6.177       40.475       27.342       20.918     1638.263      747.566      437.574        0.505        0.141       85.028       17.736        0.044      337.603        9.687      871.011
01/04/2015  16:29:00      -81.671       20.373      -10.112       37.516       28.041       20.844     1407.417      786.315      434.453        0.491        0.131       84.174       18.990        0.051      337.659        9.784      871.011
01/04/2015  16:30:00      -62.479        4.138      -11.252       22.070       30.848       17.003      487.093      951.574      289.088        0.289        0.086       62.616       13.141        0.044      337.642        9.754      871.001
01/04/2015  16:31:00      -85.011       -2.872       -8.902       29.571       22.985       17.315      874.449      528.321      299.809        0.451        0.085       85.060       14.618        0.030      337.569        9.632      870.986
01/04/2015  16:32:00      -86.829       -3.166       -8.955       28.583       22.653       11.905      817.007      513.154      141.736        0.455        0.074       86.887       10.372        0.014      337.472        9.468      870.979
01/04/2015  16:33:00     -101.283       -5.218      -12.412       19.579       19.041       12.422      383.336      362.542      154.296        0.567        0.045      101.417        5.345        0.003      337.433        9.403      870.973
01/04/2015  16:34:00      -66.433       11.312        0.399       30.448       26.036       20.460      927.066      677.849      418.592        0.328        0.101       67.389       12.386        0.034      337.440        9.416      870.968
01/04/2015  16:35:00      -85.880       32.915      -11.651       43.704       24.515       23.239     1910.038      600.988      540.034        0.582        0.153       91.971       16.997        0.034      337.396        9.342      870.986
01/04/2015  16:36:00      -92.731       39.416      -12.834       47.084       22.323       20.925     2216.872      498.308      437.837        0.673        0.158      100.761       15.440        0.023      337.381        9.316      870.984
01/04/2015  16:37:00     -119.215       52.987      -11.795       48.309       26.459       29.210     2333.771      700.092      853.233        1.052        0.194      130.460       25.671        0.039      337.363        9.286      870.982
01/04/2015  16:38:00     -174.596       57.159      -10.342       41.206       23.028       16.420     1697.926      530.273      269.631        1.818        0.125      183.714       14.759        0.006      337.451        9.434      870.992
01/04/2015  16:39:00     -132.429       26.054      -14.954       40.153       29.002       18.409     1612.300      841.143      338.883        1.062        0.140      134.967       16.080        0.014      337.346        9.258      870.977
01/04/2015  16:40:00      -57.221       -4.748       -2.987       38.928       30.440       19.213     1515.369      926.577      369.155        0.306        0.141       57.418        6.653        0.013      337.217        9.041      871.010
01/04/2015  16:41:00      -78.274       15.243       -0.725       54.869       25.321       20.028     3010.623      641.141      401.111        0.521        0.203       79.744       23.574        0.087      337.185        8.989      871.007
01/04/2015  16:42:00      -99.196       18.250       -8.088       38.427       38.140       18.183     1476.662     1454.684      330.614        0.675        0.163      100.861       12.379        0.015      337.180        8.981      871.004
01/04/2015  16:43:00      -56.292       -4.055       -1.623       29.753       35.004       20.319      885.263     1225.248      412.855        0.286        0.126       56.437       16.788        0.088      337.056        8.770      870.994
01/04/2015  16:44:00      -57.760        1.701       -7.070       20.338       18.690       14.065      413.616      349.331      197.822        0.217        0.048       57.785        9.328        0.026      337.093        8.832      870.994
01/04/2015  16:45:00      -51.525       -2.076      -11.167       20.275       18.878       13.789      411.056      356.372      190.136        0.187        0.048       51.567        8.826        0.029      337.198        9.011      870.987
01/04/2015  16:46:00      -51.180      -10.617      -10.423       19.634       16.152       10.440      385.489      260.893      109.003        0.180        0.038       52.269        8.209        0.025      337.207        9.024      870.972
01/04/2015  16:47:00      -40.345      -14.204       -7.776       19.320       16.105       13.586      373.270      259.362      184.585        0.135        0.041       42.773       11.513        0.072      337.079        8.810      870.980
01/04/2015  16:48:00      -48.129      -39.287      -12.035       15.457       23.020       10.792      238.913      529.930      116.473        0.244        0.044       62.128       10.179        0.027      337.002        8.682      870.975
01/04/2015  16:49:00      -39.295      -35.879       -5.733       16.237       23.260       18.852      263.649      541.046      355.390        0.201        0.058       53.211       14.516        0.074      336.869        8.461      870.956
01/04/2015  16:50:00      -63.753      -34.428      -16.684       17.265       18.375       11.486      298.095      337.658      131.919        0.315        0.038       72.455        8.914        0.015      336.965        8.620      870.949
01/04/2015  16:51:00      -56.493      -42.204       -9.094       19.007       29.796       15.526      361.270      887.806      241.058        0.327        0.075       70.517        9.399        0.018      336.675        8.138      870.932
01/04/2015  16:52:00      -76.053      -25.735      -12.739       16.546       23.907       12.798      273.763      571.549      163.797        0.381        0.050       80.289       11.003        0.019      336.598        8.008      870.934
01/04/2015  16:53:00      -65.923      -19.365      -13.625       19.508       19.716       12.696      380.570      388.738      161.192        0.292        0.047       68.708       12.180        0.031      336.547        7.923      870.932
01/04/2015  16:54:00      -76.469      -18.545      -13.586       21.221       18.400       12.037      450.345      338.546      144.879        0.365        0.047       78.685        7.627        0.009      336.509        7.858      870.930
01/04/2015  16:55:00      -84.843      -16.425      -15.969       20.075       12.748       10.362      403.015      162.516      107.374        0.420        0.034       86.418        5.980        0.005      336.564        7.951      870.942
01/04/2015  16:56:00      -92.174       -5.288      -16.942       18.358       16.647       11.661      336.999      277.126      135.983        0.478        0.038       92.326        5.697        0.004      336.576        7.971      870.938
01/04/2015  16:57:00     -114.112        4.741      -12.773       23.635       18.798       15.167      558.628      353.369      230.035        0.717        0.057      114.211       11.567        0.010      336.659        8.110      870.943
01/04/2015  16:58:00     -130.855       -7.269      -18.617       29.523       20.349       15.494      871.635      414.079      240.076        0.952        0.076      131.056       13.995        0.011      336.563        7.948      870.947
01/04/2015  16:59:00     -143.274      -30.990      -15.587       37.438       24.150       20.057     1401.582      583.217      402.292        1.206        0.119      146.588       20.150        0.019      336.521        7.880      870.946
01/04/2015  17:00:00      -88.482      -34.002       -9.435       19.807       20.792       12.523      392.313      432.298      156.825        0.503        0.049       94.791        5.580        0.003      336.428        7.723      870.957
01/04/2015  17:01:00      -58.909      -36.767       -5.569       25.462       24.490       18.886      648.291      599.754      356.667        0.323        0.080       69.442       15.422        0.049      336.449        7.758      870.957
01/04/2015  17:02:00      -77.552      -51.991       -3.935       38.897       27.399       18.820     1513.012      750.683      354.179        0.567        0.131       93.367       17.433        0.035      336.419        7.708      870.968
01/04/2015  17:03:00     -118.506      -42.610       -4.092       28.474       25.273       17.440      810.774      638.748      304.151        0.881        0.088      125.934       14.167        0.013      336.368        7.623      870.970
01/04/2015  17:04:00     -105.242       -6.312       -1.773       58.429       32.444       29.318     3413.907     1052.597      859.568        0.822        0.266      105.431       30.081        0.081      336.462        7.779      871.000
01/04/2015  17:05:00     -136.564       20.064      -15.680       52.718       47.019       29.621     2779.218     2210.801      877.386        1.258        0.293      138.030       25.599        0.034      336.636        8.071      871.008
01/04/2015  17:06:00     -147.453       55.909      -14.541       47.497       30.689       29.428     2256.005      941.804      865.986        1.457        0.203      157.696       23.811        0.023      336.680        8.145      871.029
01/04/2015  17:07:00      -80.345       21.352       -7.029       45.546       37.748       29.259     2074.444     1424.915      856.106        0.566        0.218       83.134       17.495        0.044      336.702        8.183      871.026
01/04/2015  17:08:00      -62.588       -0.671       -5.219       32.557       28.802       20.500     1059.955      829.539      420.248        0.313        0.115       62.591       14.833        0.056      336.649        8.092      871.026
01/04/2015  17:09:00      -81.061      -39.657       -9.362       20.533       27.303       19.908      421.586      745.451      396.329        0.490        0.078       90.241       13.442        0.022      336.528        7.891      871.017
01/04/2015  17:10:00      -98.061      -26.258      -12.077       28.678       26.738       18.035      822.406      714.937      325.272        0.616        0.093      101.516       12.717        0.016      336.399        7.676      871.026
01/04/2015  17:11:00       -9.314      -35.042       -5.702       34.381       20.669       16.703     1182.034      427.204      278.994        0.162        0.094       36.259       12.603        0.121      336.376        7.637      871.015
01/04/2015  17:12:00      -61.730      -14.146       -6.977       35.585       20.812       15.131     1266.306      433.132      228.960        0.299        0.096       63.330       16.421        0.067      336.379        7.641      871.018
01/04/2015  17:13:00     -110.081        1.559      -15.544       13.327       14.316        9.344      177.599      204.951       87.315        0.642        0.023      110.092        6.074        0.003      336.559        7.943      871.008
01/04/2015  17:14:00     -104.558      -25.437      -19.733       23.883       31.788       19.556      570.411     1010.460      382.420        0.697        0.098      107.608       15.321        0.020      336.455        7.769      871.005
01/04/2015  17:15:00      -93.879      -15.154        7.311       54.386       42.547       25.665     2957.851     1810.229      658.705        0.726        0.271       95.095       23.494        0.061      336.262        7.447      870.992
01/04/2015  17:16:00     -135.843       15.943      -13.116       54.844       37.196       20.953     3007.905     1383.561      439.034        1.185        0.242      136.775       15.553        0.013      336.249        7.423      870.993
01/04/2015  17:17:00      -84.285       -9.640        0.783       53.285       36.594       32.347     2839.241     1339.112     1046.336        0.621        0.261       84.835       32.577        0.147      336.186        7.318      870.983
01/04/2015  17:18:00      -47.115      -18.131       10.199       38.960       33.649       23.440     1517.888     1132.250      549.416        0.293        0.160       50.483       19.355        0.147      336.174        7.298      870.997
01/04/2015  17:19:00      -10.454        4.144        7.749       12.132       13.356       13.316      147.183      178.378      177.309        0.034        0.025       11.245        5.974        0.282      336.138        7.237      871.008
01/04/2015  17:20:00       -5.985        6.492       -6.295        9.825        9.576        8.714       96.523       91.699       75.939        0.019        0.013        8.830        5.272        0.356      336.234        7.399      871.024
01/04/2015  17:21:00      -41.184       -5.750       -6.451       16.564        8.857       12.522      274.359       78.446      156.790        0.114        0.025       41.583       11.850        0.081      336.332        7.562      871.031
01/04/2015  17:22:00      -57.053       -9.040      -11.014        8.979        8.745        7.558       80.625       76.480       57.124        0.184        0.011       57.765        5.350        0.009      336.291        7.493      871.057
01/04/2015  17:23:00      -67.494        2.386      -11.541        6.617        7.525        7.415       43.786       56.620       54.984        0.242        0.008       67.536        3.512        0.003      336.248        7.423      871.076
01/04/2015  17:24:00      -77.419       32.783      -16.004        8.408       14.273        8.120       70.687      203.709       65.942        0.383        0.017       84.074        5.714        0.005      336.224        7.382      871.101
01/04/2015  17:25:00      -69.702       13.505      -13.115       14.320       19.190        9.440      205.058      368.237       89.110        0.294        0.033       70.998       10.302        0.021      336.399        7.675      871.119
01/04/2015  17:26:00      -50.191       -7.774      -14.180       14.002       10.863        8.376      196.051      118.015       70.164        0.158        0.019       50.790        7.109        0.020      336.435        7.734      871.151
01/04/2015  17:27:00      -38.196       -5.678      -11.463       13.651        9.870        7.784      186.340       97.412       60.597        0.098        0.017       38.615        7.643        0.039      337.036        8.738      871.166
01/04/2015  17:28:00      -50.886      -18.566       -9.766       12.206       11.976        6.023      148.981      143.420       36.279        0.168        0.016       54.167        5.447        0.010      336.508        7.857      871.184
01/04/2015  17:29:00      -76.831       -9.922      -13.286       20.328       15.671       11.139      413.238      245.565      124.082        0.348        0.039       77.469        7.021        0.008      336.184        7.315      871.199
01/04/2015  17:30:00      -87.712      -21.506      -15.043       12.860       13.917       11.806      165.372      193.688      139.378        0.444        0.025       90.310        4.408        0.002      336.501        7.845      871.192
01/04/2015  17:31:00      -96.043      -19.658      -17.053       15.219       13.683       11.196      231.607      187.227      125.343        0.522        0.027       98.034        6.403        0.004      336.441        7.746      871.199
01/04/2015  17:32:00      -75.961      -39.619      -13.641       15.113       16.641       11.764      228.415      276.907      138.386        0.408        0.032       85.672        9.116        0.011      336.209        7.356      871.207
01/04/2015  17:33:00      -71.534      -18.033      -15.648       29.274       21.292       15.921      856.966      453.329      253.487        0.363        0.078       73.772       15.626        0.045      336.282        7.479      871.213
01/04/2015  17:34:00      -60.862       -6.501      -12.940       19.903       15.320       13.594      396.117      234.710      184.804        0.236        0.041       61.208       11.014        0.032      336.490        7.826      871.221
01/04/2015  17:35:00      -59.904       -4.071      -21.429       15.900       12.979       11.082      252.816      168.465      122.819        0.230        0.027       60.042        6.407        0.011      336.682        8.149      871.226
01/04/2015  17:36:00      -58.926      -11.213      -18.649       14.351       13.365       12.868      205.945      178.622      165.575        0.225        0.028       59.984        7.603        0.016      336.510        7.860      871.238
01/04/2015  17:37:00      -61.901       -7.294      -19.501       16.924       17.275       12.391      286.424      298.425      153.527        0.250        0.037       62.330        7.269        0.014      336.562        7.947      871.238
01/04/2015  17:38:00      -54.033      -13.887      -16.342       15.689       12.546        7.993      246.133      157.401       63.880        0.192        0.023       55.789        6.742        0.015      336.514        7.865      871.248
01/04/2015  17:39:00      -42.570      -24.254      -14.585        9.036        9.429        6.749       81.655       88.903       45.545        0.141        0.011       48.994        5.066        0.011      336.478        7.807      871.250
01/04/2015  17:40:00      -22.513        7.882       -8.248       19.121       20.538       11.546      365.632      421.829      133.306        0.078        0.046       23.853       10.908        0.209      336.827        8.391      871.254
01/04/2015  17:41:00      -13.288       53.970      -12.524       21.984       21.989       10.782      483.306      483.510      116.256        0.216        0.054       55.582        9.701        0.030      337.348        9.260      871.251
01/04/2015  17:42:00      -20.853       42.755       -4.816       20.601       23.652       14.348      424.386      559.439      205.860        0.174        0.059       47.569       13.272        0.078      337.236        9.074      871.236
01/04/2015  17:43:00      -28.250       44.349       -9.214       26.526       40.859       15.663      703.644     1669.455      245.321        0.273        0.131       52.583       14.640        0.078      336.987        8.657      871.229
01/04/2015  17:44:00      -45.588       39.970      -15.473       23.322       34.345       15.122      543.928     1179.602      228.687        0.293        0.098       60.629       15.377        0.064      337.002        8.683      871.223
01/04/2015  17:45:00      -51.036      -37.712       -7.126       15.639       28.916       13.845      244.581      836.149      191.696        0.267        0.064       63.458        9.807        0.024      336.006        7.019      871.218
01/04/2015  17:46:00      -62.227      -53.574      -24.124       20.597       20.740       11.960      424.240      430.158      143.033        0.416        0.050       82.112        9.005        0.012      335.747        6.588      871.227
01/04/2015  17:47:00      -93.700      -49.125      -19.075       20.986       16.771       11.569      440.430      281.268      133.849        0.621        0.043      105.797        5.752        0.003      335.674        6.465      871.224
01/04/2015  17:48:00     -112.609      -52.373      -24.493       22.707       18.130       13.673      515.605      328.713      186.961        0.853        0.052      124.193       13.075        0.011      335.602        6.347      871.234
01/04/2015  17:49:00     -117.405      -26.785      -25.572       15.809       15.542       13.188      249.917      241.561      173.928        0.791        0.033      120.422       10.556        0.008      335.715        6.533      871.238
01/04/2015  17:50:00     -111.827      -39.096      -21.896       28.480       18.687       16.563      811.103      349.211      274.343        0.797        0.072      118.464       16.147        0.019      335.623        6.381      871.240
01/04/2015  17:51:00     -149.322      -20.822      -20.263       30.254       31.848       23.135      915.298     1014.325      535.247        1.280        0.123      150.767       18.567        0.015      335.804        6.683      871.244
01/04/2015  17:52:00      -89.568       -6.413      -13.885       43.983       40.391       23.668     1934.461     1631.403      560.163        0.619        0.206       89.797       16.349        0.033      336.249        7.425      871.243
01/04/2015  17:53:00      -85.169      -12.864       -0.937       59.170       52.213       33.933     3501.106     2726.165     1151.427        0.740        0.369       86.135       33.958        0.155      336.120        7.209      871.240
01/04/2015  17:54:00     -109.486       -3.482      -13.913       67.309       43.825       30.438     4530.453     1920.615      926.497        0.978        0.369      109.541       27.379        0.062      336.171        7.294      871.237
01/04/2015  17:55:00      -52.612        9.076        1.706       57.189       30.484       27.775     3270.570      929.262      771.443        0.391        0.249       53.389       32.845        0.378      336.197        7.337      871.225
01/04/2015  17:56:00      -49.246       -3.682        9.772       51.962       42.121       32.451     2700.014     1774.218     1053.084        0.403        0.276       49.383       31.607        0.410      336.154        7.265      871.231
01/04/2015  17:57:00      -16.872        5.550        3.311       40.384       30.900       29.758     1630.866      954.786      885.532        0.190        0.174       17.761       23.268        1.716      336.011        7.026      871.234
01/04/2015  17:58:00      -36.739        1.201       11.906       53.466       50.016       26.601     2858.655     2501.583      707.590        0.378        0.303       36.759       16.531        0.202      336.163        7.280      871.240
01/04/2015  17:59:00      -15.137       24.584        4.614       61.154       39.603       27.493     3739.784     1568.390      755.874        0.346        0.303       28.870       31.105        1.161      336.244        7.414      871.256
01/04/2015  18:00:00      -78.036        7.570       -3.702       68.313       40.439       32.216     4666.668     1635.349     1037.846        0.675        0.367       78.402       29.510        0.142      336.238        7.406      871.266
01/04/2015  18:01:00       -8.872       11.084       10.629       35.680       34.593       26.388     1273.071     1196.687      696.338        0.174        0.158       14.197       11.143        0.616      336.102        7.177      871.277
01/04/2015  18:02:00      -35.423        0.630        3.986       39.747       37.503       23.176     1579.861     1406.472      537.137        0.240        0.176       35.429       23.023        0.422      335.944        6.914      871.284
01/04/2015  18:03:00      -83.451      -16.469       -9.285       38.334       36.377       21.172     1469.495     1323.316      448.262        0.528        0.162       85.060       22.659        0.071      335.783        6.647      871.285
01/04/2015  18:04:00      -81.443      -16.828      -11.999       28.346       24.884       16.330      803.486      619.194      266.674        0.437        0.084       83.163        6.574        0.006      335.719        6.540      871.298
01/04/2015  18:05:00      -78.596      -36.476      -12.557       22.237       29.568       17.748      494.473      874.268      314.993        0.467        0.084       86.648       12.846        0.022      335.703        6.513      871.309
01/04/2015  18:06:00      -61.478      -17.981      -12.128       18.725       21.239       13.585      350.620      451.114      184.558        0.262        0.049       64.054        8.533        0.018      335.880        6.809      871.316
01/04/2015  18:07:00      -76.618      -35.281      -18.708       16.241       17.072       11.876      263.774      291.448      141.029        0.408        0.035       84.351        6.122        0.005      335.720        6.542      871.310
01/04/2015  18:08:00      -56.897      -30.624      -16.301       16.525       20.420       14.006      273.064      416.967      196.177        0.266        0.044       64.615        8.646        0.018      335.736        6.569      871.310
01/04/2015  18:09:00      -59.217      -20.765      -14.086       13.949       18.099       10.398      194.568      327.557      108.116        0.238        0.032       62.752       10.130        0.026      335.812        6.695      871.322
01/04/2015  18:10:00      -84.153      -21.944      -14.630       15.729       16.612       10.793      247.414      275.966      116.485        0.421        0.032       86.967        3.370        0.002      335.545        6.249      871.328
01/04/2015  18:11:00     -109.598      -22.787      -16.398       15.920       16.289       11.905      253.432      265.326      141.727        0.673        0.033      111.942        4.917        0.002      335.458        6.105      871.346
01/04/2015  18:12:00     -132.779      -11.485      -23.134       14.896       14.513       14.981      221.877      210.614      224.439        0.948        0.033      133.275        8.974        0.005      335.433        6.063      871.354
01/04/2015  18:13:00     -124.697      -11.009      -22.121       22.219       18.761       16.882      493.685      351.963      285.010        0.865        0.057      125.182       12.831        0.011      335.293        5.831      871.367
01/04/2015  18:14:00     -138.887      -11.241      -23.099       21.992       16.598       16.006      483.630      275.492      256.188        1.048        0.051      139.342       11.520        0.007      335.301        5.841      871.369
01/04/2015  18:15:00     -125.421      -12.177      -19.422       20.508       18.613       12.550      420.566      346.457      157.514        0.859        0.046      126.011        8.047        0.004      335.351        5.925      871.363
01/04/2015  18:16:00     -116.784       -4.313      -24.022       19.862       20.902       13.820      394.500      436.890      190.994        0.763        0.051      116.864       13.594        0.014      335.427        6.053      871.361
01/04/2015  18:17:00     -117.612       -8.501      -26.477       15.572       18.314       11.094      242.491      335.407      123.087        0.765        0.035      117.919        8.362        0.005      335.536        6.234      871.351
01/04/2015  18:18:00     -111.417      -23.525      -24.683       13.831       12.954        9.258      191.308      167.816       85.714        0.701        0.022      113.874        5.583        0.002      335.600        6.343      871.348
01/04/2015  18:19:00     -118.327       -8.588      -23.066       12.551       11.930        9.518      157.519      142.323       90.600        0.750        0.020      118.638        3.406        0.001      335.577        6.303      871.337
01/04/2015  18:20:00     -113.199        2.574      -18.634       12.410        9.368        9.455      154.009       87.754       89.402        0.675        0.017      113.228        5.164        0.002      335.731        6.559      871.346
01/04/2015  18:21:00     -113.139        5.861      -22.357       10.311       15.898        9.646      106.310      252.744       93.054        0.689        0.023      113.291        5.177        0.002      335.585        6.317      871.354
01/04/2015  18:22:00     -105.135       -1.108      -18.440       16.263       18.583       11.382      264.481      345.313      129.559        0.607        0.037      105.141       10.703        0.010      335.534        6.230      871.371
01/04/2015  18:23:00     -121.236        0.743      -21.359       24.078       14.407       13.759      579.744      207.560      189.311        0.807        0.049      121.238       10.104        0.007      335.411        6.027      871.384
01/04/2015  18:24:00     -121.551       -5.837      -28.510       14.346       17.178        9.943      205.797      295.092       98.871        0.811        0.030      121.691        3.536        0.001      335.445        6.083      871.392
01/04/2015  18:25:00      -91.130      -28.529      -24.562       21.918       23.034       13.674      480.412      530.565      186.968        0.546        0.060       95.491       10.001        0.011      335.313        5.862      871.407
01/04/2015  18:26:00      -99.949      -25.976      -19.155       17.992       20.497       11.938      323.700      420.127      142.526        0.596        0.044      103.269        6.867        0.004      335.297        5.836      871.418
01/04/2015  18:27:00     -101.641      -21.101      -18.716       20.879       22.811       13.875      435.928      520.353      192.509        0.614        0.057      103.808       10.730        0.011      335.473        6.129      871.430
01/04/2015  18:28:00     -106.213      -30.314      -28.264       16.403       13.190        8.980      269.048      173.986       80.636        0.676        0.026      110.454        6.678        0.004      335.618        6.372      871.449
01/04/2015  18:29:00      -95.173      -33.238      -15.587       22.207       14.925       13.488      493.171      222.745      181.913        0.565        0.045      100.810        7.409        0.005      335.356        5.934      871.464
01/04/2015  18:30:00     -113.055      -19.415      -26.501       12.704       14.394       11.249      161.394      207.174      126.549        0.718        0.025      114.710        9.762        0.007      335.325        5.883      871.473
01/04/2015  18:31:00     -132.553      -11.882      -25.163       19.122       19.377       14.047      365.649      375.456      197.304        0.964        0.047      133.085        8.079        0.004      335.212        5.696      871.478
01/04/2015  18:32:00     -144.864      -13.429      -29.569       25.759       20.035       17.325      663.524      401.400      300.166        1.170        0.068      145.486       11.685        0.006      335.214        5.699      871.475
01/04/2015  18:33:00     -114.367      -56.024      -13.640       27.153       32.661       20.590      737.280     1066.748      423.958        0.932        0.111      127.352       15.658        0.015      335.050        5.428      871.487
01/04/2015  18:34:00     -126.407      -61.171      -22.810       28.472       24.138       16.539      810.652      582.640      273.544        1.095        0.083      140.431       13.951        0.010      335.036        5.404      871.479
01/04/2015  18:35:00     -153.783      -20.787      -23.299       40.537       29.886       25.869     1643.268      893.154      669.190        1.391        0.160      155.182       20.410        0.017      335.024        5.384      871.478
01/04/2015  18:36:00     -167.289      -43.011      -24.021       32.205       33.045       22.383     1037.173     1091.963      501.016        1.652        0.132      172.730       18.427        0.011      335.023        5.382      871.474
01/04/2015  18:37:00     -147.593      -33.291      -11.342       44.478       42.377       23.206     1978.293     1795.789      538.521        1.367        0.216      151.301       20.614        0.019      334.958        5.274      871.475
01/04/2015  18:38:00     -112.376      -13.457       -6.157       54.018       43.087       32.369     2917.930     1856.523     1047.734        0.933        0.291      113.179       22.979        0.041      335.162        5.612      871.472
01/04/2015  18:39:00     -152.735      -30.575      -10.291       53.255       44.921       25.436     2836.083     2017.901      646.981        1.493        0.275      155.765       25.815        0.027      335.181        5.644      871.476
01/04/2015  18:40:00     -134.113      -34.937       -9.757       38.656       45.918       29.038     1494.308     2108.418      843.233        1.187        0.222      138.589       22.951        0.027      335.127        5.555      871.473
01/04/2015  18:41:00     -103.644        2.266       -2.883       47.199       50.224       33.646     2227.766     2522.422     1132.042        0.832        0.294      103.669       26.929        0.067      335.173        5.630      871.474
01/04/2015  18:42:00      -67.941       -0.753       -5.455       56.790       33.902       27.146     3225.069     1149.332      736.914        0.488        0.256       67.945       26.955        0.157      335.152        5.595      871.466
01/04/2015  18:43:00     -132.108      -15.233      -15.983       41.098       29.260       24.519     1689.085      856.138      601.186        1.054        0.157      132.983       14.250        0.011      335.128        5.557      871.473
01/04/2015  18:44:00     -125.113      -18.852      -21.898       31.542       30.570       16.172      994.924      934.536      261.518        0.934        0.110      126.525       11.068        0.008      335.024        5.383      871.472
01/04/2015  18:45:00     -132.345       -3.136      -25.963       22.970       20.167       16.007      527.627      406.689      256.233        0.969        0.060      132.382       10.291        0.006      335.105        5.518      871.467
01/04/2015  18:46:00     -114.059      -27.770      -21.272       22.885       24.010       17.200      523.738      576.468      295.834        0.781        0.070      117.391       15.193        0.017      335.024        5.385      871.467
01/04/2015  18:47:00     -152.406      -11.629      -20.565       32.462       23.021       18.907     1053.761      529.984      357.473        1.286        0.097      152.849       13.613        0.008      335.034        5.401      871.460
01/04/2015  18:48:00      -86.965      -60.327      -19.540       43.471       27.164       21.125     1889.719      737.889      446.266        0.733        0.154      105.841       23.278        0.048      335.018        5.374      871.478
01/04/2015  18:49:00      -99.243      -66.146      -17.080       19.970       24.553       18.140      398.800      602.844      329.056        0.792        0.067      119.266       13.911        0.014      335.024        5.385      871.478
01/04/2015  18:50:00     -114.818      -60.970      -20.138       18.302       22.243       15.761      334.949      494.741      248.412        0.919        0.054      130.002       10.203        0.006      335.012        5.364      871.494
01/04/2015  18:51:00      -91.083      -70.934       -3.285       42.376       37.496       30.179     1795.684     1405.936      910.768        0.872        0.206      115.446       21.305        0.034      334.971        5.296      871.492
01/04/2015  18:52:00     -164.988      -38.363      -28.499       36.306       31.689       22.269     1318.121     1004.208      495.910        1.616        0.141      169.390        7.909        0.002      334.892        5.164      871.501
01/04/2015  18:53:00     -160.292      -11.331      -15.969       41.286       43.131       25.790     1704.510     1860.299      665.120        1.515        0.211      160.692       20.664        0.017      334.834        5.068      871.495
01/04/2015  18:54:00     -135.605      -40.972      -12.490       42.642       32.852       24.339     1818.327     1079.248      592.379        1.186        0.174      141.660       22.722        0.026      334.778        4.977      871.500
01/04/2015  18:55:00     -111.956      -29.043      -16.312       37.122       33.222       21.783     1378.008     1103.712      474.500        0.830        0.148      115.661       18.515        0.026      334.780        4.979      871.506
01/04/2015  18:56:00      -86.125      -40.260       -8.796       45.585       26.496       21.186     2078.013      702.064      448.837        0.617        0.161       95.070       22.527        0.056      334.835        5.070      871.496
01/04/2015  18:57:00      -89.602      -33.269       -6.215       44.295       25.437       25.034     1962.043      647.018      626.723        0.620        0.162       95.579       23.218        0.059      334.799        5.009      871.493
01/04/2015  18:58:00     -128.279      -45.496      -14.984       36.046       32.630       24.961     1299.284     1064.685      623.038        1.087        0.149      136.109       24.703        0.033      334.817        5.040      871.486
01/04/2015  18:59:00     -151.938      -27.271      -22.308       32.086       24.470       21.085     1029.483      598.788      444.563        1.320        0.104      154.366       14.752        0.009      334.786        4.988      871.488
01/04/2015  19:00:00     -111.745      -19.125      -14.768       32.288       32.962       32.124     1042.530     1086.473     1031.965        0.812        0.158      113.370       21.363        0.036      334.759        4.944      871.508
01/04/2015  19:01:00     -100.956      -42.881      -20.770       24.028       32.796       18.054      577.363     1075.578      325.930        0.722        0.099      109.685       10.193        0.009      334.810        5.029      871.526
01/04/2015  19:02:00      -87.041      -25.377       -1.707       27.874       23.692       16.651      776.934      561.289      277.271        0.492        0.081       90.665       10.700        0.014      334.795        5.004      871.551
01/04/2015  19:03:00      -94.155      -54.240       -3.190       43.685       23.009       23.459     1908.394      529.419      550.330        0.740        0.149      108.660       22.383        0.042      334.772        4.964      871.568
01/04/2015  19:04:00     -114.122      -71.053      -10.064       17.280       18.615       15.407      298.597      346.517      237.363        0.953        0.044      134.434        7.823        0.003      334.877        5.139      871.580
01/04/2015  19:05:00     -139.193      -65.923       -7.209       27.439       18.946       16.724      752.883      358.943      279.702        1.258        0.070      154.015       12.258        0.006      334.977        5.307      871.601
01/04/2015  19:06:00     -116.335      -70.221       -9.958       24.703       17.987       17.463      610.242      323.543      304.964        0.990        0.062      135.885       13.172        0.009      335.008        5.357      871.612
01/04/2015  19:07:00     -106.432      -68.161       -3.781       25.298       20.975       16.839      640.002      439.955      283.539        0.868        0.068      126.387       14.390        0.013      334.954        5.268      871.625
01/04/2015  19:08:00     -107.194      -66.169       -4.837       23.578       19.318       20.033      555.910      373.174      401.312        0.861        0.067      125.972       15.564        0.015      334.890        5.162      871.653
01/04/2015  19:09:00      -85.310      -61.999       -4.292       28.540       19.872       15.540      814.528      394.907      241.493        0.630        0.073      105.459       12.157        0.013      334.894        5.168      871.667
01/04/2015  19:10:00     -111.007      -68.886       -4.779       22.334       18.802       14.325      498.795      353.500      205.219        0.907        0.053      130.644       10.042        0.006      334.757        4.940      871.672
01/04/2015  19:11:00     -114.621      -66.936       -1.957       26.801       17.995       19.265      718.270      323.822      371.150        0.952        0.071      132.735       15.589        0.014      334.756        4.937      871.696
01/04/2015  19:12:00     -108.745      -56.095       -3.657       28.915       25.455       20.476      836.104      647.952      419.278        0.844        0.095      122.361       18.136        0.022      334.771        4.963      871.715
01/04/2015  19:13:00      -95.395      -48.324       -2.757       25.764       18.782       15.596      663.790      352.754      243.227        0.635        0.063      106.937       15.826        0.022      334.785        4.987      871.723
01/04/2015  19:14:00     -101.230      -45.273      -12.587       13.583       12.442       10.114      184.505      154.813      102.301        0.645        0.022      110.893        5.564        0.003      334.839        5.076      871.730
01/04/2015  19:15:00      -93.698      -45.281      -10.603       15.822       12.841        8.142      250.325      164.891       66.286        0.571        0.024      104.066        3.742        0.001      334.781        4.978      871.734
01/04/2015  19:16:00     -120.387      -41.145      -10.000       22.998       24.452       13.318      528.901      597.924      177.381        0.879        0.065      127.224        7.955        0.004      334.874        5.134      871.722
01/04/2015  19:17:00      -97.213      -31.412       -5.485       33.582       34.303       16.720     1127.728     1176.700      279.552        0.653        0.129      102.162       12.419        0.015      334.923        5.217      871.714
01/04/2015  19:18:00     -122.199      -50.536        0.783       44.438       26.666       21.209     1974.723      711.076      449.805        1.031        0.157      132.236       17.126        0.017      334.780        4.978      871.717
01/04/2015  19:19:00     -108.110      -34.688        2.505       34.646       40.523       22.755     1200.379     1642.151      517.789        0.813        0.168      113.539       14.976        0.017      334.764        4.952      871.711
01/04/2015  19:20:00     -160.643      -53.112       -6.258       34.887       30.609       22.248     1217.100      936.899      494.991        1.566        0.132      169.196       19.075        0.013      334.697        4.840      871.712
01/04/2015  19:21:00     -137.429      -22.095       -6.799       59.578       31.133       24.997     3549.562      969.292      624.829        1.228        0.257      139.194       27.892        0.040      334.599        4.677      871.714
01/04/2015  19:22:00     -116.926      -53.790       -4.864       39.456       39.817       22.565     1556.759     1585.393      509.165        1.012        0.183      128.705       20.015        0.024      334.596        4.672      871.721
01/04/2015  19:23:00     -135.338      -33.173      -11.564       31.545       31.138       20.223      995.076      969.587      408.962        1.096        0.119      139.344       19.420        0.019      334.589        4.661      871.720
01/04/2015  19:24:00     -123.664      -37.813       -8.171       47.410       32.621       23.365     2247.665     1064.132      545.906        1.032        0.193      129.316       23.089        0.032      334.598        4.676      871.699
01/04/2015  19:25:00     -124.667      -36.568       -4.332       42.773       42.701       23.778     1829.521     1823.377      565.410        1.056        0.211      129.920       22.662        0.030      334.673        4.800      871.684
01/04/2015  19:26:00      -91.324      -27.251       -7.401       53.179       46.499       22.270     2827.957     2162.118      495.956        0.731        0.274       95.303       21.386        0.050      334.613        4.700      871.686
01/04/2015  19:27:00      -47.027       -4.416        7.727       60.305       32.293       26.478     3636.718     1042.815      701.099        0.383        0.269       47.233       28.414        0.362      334.639        4.744      871.687
01/04/2015  19:28:00      -33.654       -1.043       -5.445       47.927       36.640       25.199     2297.004     1342.498      634.990        0.272        0.214       33.670       25.652        0.580      334.796        5.005      871.685
01/04/2015  19:29:00      -19.705       34.747       -2.496       48.632       42.160       31.211     2365.102     1777.425      974.125        0.336        0.256       39.946       25.167        0.397      334.968        5.291      871.689
01/04/2015  19:30:00      -11.506       25.236        0.498       56.010       45.807       30.195     3137.162     2098.296      911.735        0.346        0.307       27.736       29.920        1.164      334.896        5.171      871.706
01/04/2015  19:31:00      -24.282       56.099       -7.077       22.431       23.658       17.016      503.158      559.706      289.535        0.257        0.068       61.128        8.339        0.019      335.069        5.458      871.722
01/04/2015  19:32:00      -47.793       13.736      -11.322       19.280       20.643       15.741      371.737      426.141      247.786        0.182        0.052       49.727       12.903        0.067      335.153        5.596      871.726
01/04/2015  19:33:00      -48.464       -8.256       -0.876       26.376       25.512       16.526      695.691      650.886      273.093        0.202        0.081       49.162       13.705        0.078      334.909        5.193      871.739
01/04/2015  19:34:00      -63.117       -4.982       -4.044       27.250       21.888       11.431      742.571      479.070      130.668        0.269        0.068       63.313        6.393        0.010      334.630        4.729      871.753
01/04/2015  19:35:00      -42.127      -11.687       -7.106       23.996       19.450       11.154      575.817      378.316      124.423        0.152        0.054       43.718       10.933        0.063      334.665        4.786      871.758
01/04/2015  19:36:00      -58.808      -36.242       -8.723       18.917       18.500       13.089      357.838      342.241      171.331        0.286        0.044       69.079        5.201        0.006      334.693        4.835      871.748
01/04/2015  19:37:00      -58.163      -12.891      -14.376       30.570       29.213       16.288      934.511      853.372      265.301        0.290        0.103       59.574       10.100        0.029      334.904        5.185      871.736
01/04/2015  19:38:00      -44.092      -25.635      -11.452       27.141       20.360       17.920      736.625      414.511      321.133        0.210        0.074       51.002       16.942        0.110      334.426        4.391      871.733
01/04/2015  19:39:00      -68.761      -32.161      -17.615       19.283       22.646       14.544      371.825      512.850      211.536        0.358        0.055       75.911       12.728        0.028      334.286        4.159      871.740
01/04/2015  19:40:00      -83.975      -50.000      -19.021       16.437       17.978       12.440      270.180      323.191      154.745        0.533        0.037       97.733        8.676        0.008      334.362        4.286      871.746
01/04/2015  19:41:00      -90.242      -37.823      -16.309       13.619       17.222        8.648      185.487      296.605       74.794        0.520        0.028       97.848        6.540        0.004      334.306        4.193      871.751
01/04/2015  19:42:00     -101.250      -31.903      -16.682       11.991       13.581       10.630      143.784      184.456      112.989        0.599        0.022      106.157        7.359        0.005      334.348        4.263      871.758
01/04/2015  19:43:00      -95.134      -34.167      -17.662       22.310       20.938       11.960      497.737      438.390      143.034        0.580        0.054      101.083        9.343        0.009      334.404        4.355      871.780
01/04/2015  19:44:00     -101.965      -34.011      -21.599       15.515       21.537       13.536      240.713      463.853      183.232        0.645        0.044      107.488       10.302        0.009      334.341        4.251      871.782
01/04/2015  19:45:00     -131.827      -33.980      -19.302       20.333       14.401       14.547      413.414      207.391      211.601        0.987        0.042      136.136        8.625        0.004      334.341        4.249      871.781
01/04/2015  19:46:00     -102.688      -26.648      -15.164       18.755       14.260       13.771      351.745      203.334      189.638        0.611        0.037      106.090        9.150        0.007      334.374        4.306      871.784
01/04/2015  19:47:00      -94.988      -18.721      -23.545       11.046        9.020        9.206      122.024       81.360       84.744        0.511        0.014       96.815        3.585        0.001      334.589        4.662      871.790
01/04/2015  19:48:00      -82.421      -19.715      -20.781       10.964        9.750       10.085      120.202       95.069      101.711        0.397        0.016       84.746        5.519        0.004      334.625        4.720      871.782
01/04/2015  19:49:00      -57.714      -25.664       -9.972        7.842       11.152        7.785       61.491      124.364       60.604        0.217        0.012       63.163        6.786        0.012      334.610        4.695      871.779
01/04/2015  19:50:00      -51.393      -13.676      -10.271       12.626        8.258        6.875      159.406       68.197       47.272        0.160        0.014       53.181        4.993        0.009      334.674        4.801      871.771
01/04/2015  19:51:00      -96.110      -10.625      -18.171       19.525        9.542        7.461      381.207       91.048       55.670        0.510        0.026       96.696        5.425        0.003      334.693        4.834      871.764
01/04/2015  19:52:00     -113.569       -8.435      -20.238       12.582       10.515        6.877      158.308      110.564       47.291        0.685        0.016      113.881        3.997        0.001      334.555        4.604      871.759
01/04/2015  19:53:00     -114.021      -19.622      -19.949       12.934       12.255        8.208      167.298      150.187       67.374        0.708        0.019      115.697        5.005        0.002      334.423        4.385      871.748
01/04/2015  19:54:00     -112.463      -24.050      -15.936       12.027       14.304       10.020      144.657      204.601      100.392        0.696        0.022      115.006        2.092        0.000      334.387        4.327      871.730
01/04/2015  19:55:00      -85.571      -17.123      -22.868       10.928       10.670        7.870      119.414      113.857       61.941        0.422        0.015       87.267        5.695        0.004      334.574        4.637      871.731
01/04/2015  19:56:00     -110.910      -13.365      -17.454       18.646       15.733       12.095      347.673      247.522      146.280        0.676        0.037      111.712        7.906        0.005      334.525        4.554      871.734
01/04/2015  19:57:00      -88.050      -30.771      -14.822       15.563       21.357       13.924      242.207      456.137      193.878        0.491        0.045       93.272        9.061        0.009      334.394        4.339      871.727
01/04/2015  19:58:00      -86.057      -33.261      -19.244       11.149        9.857        9.488      124.303       97.166       90.026        0.460        0.016       92.261        6.979        0.006      334.321        4.217      871.724
01/04/2015  19:59:00      -99.833      -25.302      -16.813       13.562       16.917       12.697      183.938      286.189      161.225        0.576        0.032      102.990       11.741        0.013      334.281        4.150      871.733
01/04/2015  20:00:00     -121.631      -15.773      -26.995       20.656       15.473       14.126      426.689      239.411      199.534        0.832        0.043      122.650       14.004        0.013      334.254        4.105      871.748
01/04/2015  20:01:00     -113.835      -41.252      -19.014       21.552       21.515       16.061      464.503      462.907      257.942        0.810        0.059      121.079       12.943        0.011      334.113        3.871      871.754
01/04/2015  20:02:00     -103.114      -42.975      -15.726       33.474       32.487       21.070     1120.509     1055.427      443.928        0.767        0.131      111.711       17.261        0.024      334.055        3.774      871.765
01/04/2015  20:03:00      -97.353      -61.913      -21.726       27.488       27.736       20.609      755.581      769.260      424.743        0.787        0.097      115.373        8.704        0.006      334.024        3.724      871.779
01/04/2015  20:04:00     -105.932      -76.150      -16.416       22.681       26.160       12.811      514.407      684.349      164.114        0.933        0.068      130.462        7.376        0.003      333.950        3.601      871.796
01/04/2015  20:05:00     -136.611      -36.984      -21.946       12.433       13.064       12.686      154.580      170.681      160.936        1.050        0.024      141.529        6.173        0.002      334.082        3.819      871.805
01/04/2015  20:06:00     -110.009      -45.098      -22.361       14.412       15.876       10.223      207.707      252.046      104.501        0.760        0.028      118.894        6.536        0.003      334.227        4.061      871.814
01/04/2015  20:07:00     -118.086      -27.527      -25.866       12.744       15.562        9.030      162.399      242.169       81.540        0.793        0.024      121.252        6.079        0.003      334.288        4.161      871.814
01/04/2015  20:08:00     -121.447      -22.668      -28.715        7.769        9.859        7.350       60.359       97.207       54.023        0.815        0.011      123.544        4.415        0.001      334.299        4.180      871.813
01/04/2015  20:09:00     -121.573      -27.270      -26.016       14.109       18.207       10.993      199.062      331.510      120.837        0.843        0.033      124.594       11.511        0.009      334.313        4.204      871.816
01/04/2015  20:10:00     -116.686      -48.735      -24.219       18.701       19.843       13.014      349.726      393.729      169.369        0.874        0.046      126.455       11.676        0.009      334.245        4.092      871.820
01/04/2015  20:11:00     -113.157      -52.866      -24.597       34.626       25.848       15.269     1198.932      668.105      233.148        0.915        0.105      124.897       16.915        0.018      334.252        4.102      871.813
01/04/2015  20:12:00     -117.816      -44.888      -24.058       22.262       17.425       13.043      495.611      303.624      170.133        0.872        0.048      126.078       11.037        0.008      334.111        3.868      871.804
01/04/2015  20:13:00     -113.895      -36.148      -24.203       15.895       20.254       14.136      252.656      410.205      199.834        0.786        0.043      119.493       12.962        0.012      334.047        3.762      871.804
01/04/2015  20:14:00      -94.037      -41.107      -24.687       22.354       23.465       16.464      499.716      550.607      271.061        0.623        0.066      102.629       13.879        0.018      334.038        3.749      871.802
01/04/2015  20:15:00     -106.890      -21.800      -16.244       37.626       36.017       25.311     1415.707     1297.191      640.624        0.776        0.168      109.090       19.421        0.032      334.137        3.911      871.796
01/04/2015  20:16:00     -117.250      -18.914      -10.473       31.498       30.473       21.859      992.101      928.634      477.802        0.831        0.120      118.766       15.008        0.016      334.046        3.762      871.782
01/04/2015  20:17:00     -107.720       -9.825      -13.273       40.348       31.508       22.106     1627.948      992.776      488.670        0.749        0.155      108.167       15.761        0.021      334.014        3.708      871.769
01/04/2015  20:18:00     -112.192       -6.788      -13.459       74.286       34.942       25.418     5518.444     1220.916      646.065        1.010        0.369      112.397       31.883        0.080      334.305        4.190      871.762
01/04/2015  20:19:00     -143.633       -4.432      -12.540       68.965       44.668       30.857     4756.139     1995.233      952.151        1.425        0.385      143.702       36.167        0.063      334.204        4.021      871.750
01/04/2015  20:20:00     -155.827      -34.642       -4.452       60.446       37.922       25.374     3653.660     1438.104      643.851        1.562        0.287      159.631       25.312        0.025      333.999        3.681      871.736
01/04/2015  20:21:00      -89.444        4.340       -7.128       63.865       46.850       27.734     4078.733     2194.959      769.186        0.755        0.352       89.549       28.256        0.100      334.156        3.942      871.738
01/04/2015  20:22:00      -83.436      -14.102        1.578       60.408       49.225       32.228     3649.092     2423.072     1038.634        0.714        0.356       84.619       29.698        0.123      334.134        3.906      871.736
01/04/2015  20:23:00      -49.763      -13.919       -2.697       59.291       50.128       23.379     3515.367     2512.801      546.599        0.462        0.329       51.672       29.023        0.315      334.144        3.923      871.719
01/04/2015  20:24:00      -70.081      -20.566        1.704       63.749       55.137       27.642     4063.996     3040.093      764.100        0.660        0.393       73.037       30.936        0.179      334.128        3.896      871.709
01/04/2015  20:25:00     -123.514      -13.936       -5.559       65.942       48.314       27.922     4348.286     2334.287      779.639        1.147        0.373      124.298       21.483        0.030      334.095        3.840      871.712
01/04/2015  20:26:00     -153.118      -29.008      -11.593       51.341       41.391       26.740     2635.899     1713.183      715.035        1.474        0.253      155.841       29.129        0.035      334.105        3.858      871.708
01/04/2015  20:27:00     -111.400      -25.918       -0.185       43.110       58.066       28.153     1858.452     3371.610      792.617        0.955        0.301      114.375       24.864        0.047      334.083        3.821      871.705
01/04/2015  20:28:00      -80.447       -7.594       -5.688       53.430       28.948       22.149     2854.728      838.006      490.598        0.537        0.209       80.805       28.367        0.123      334.218        4.044      871.723
01/04/2015  20:29:00      -63.761      -16.532       -4.848       41.034       25.176       18.074     1683.818      633.820      326.677        0.350        0.132       65.869       21.862        0.110      334.139        3.914      871.734
01/04/2015  20:30:00        3.944       12.650       22.031        9.680        9.744        5.172       93.702       94.937       26.747        0.044        0.011       13.251        4.365        0.109      334.061        3.784      871.746
01/04/2015  20:31:00        0.715       -4.292        0.323       11.570       22.602       15.446      133.863      510.846      238.565        0.045        0.044        4.351       18.068       17.245      334.159        3.946      871.752
01/04/2015  20:32:00      -62.056      -29.952       -9.976       25.540       10.456        8.075      652.299      109.320       65.211        0.284        0.041       68.906        6.302        0.008      334.442        4.419      871.751
01/04/2015  20:33:00      -62.761      -13.973       -0.632       15.644       14.085       10.901      244.749      198.382      118.834        0.235        0.028       64.298        9.540        0.022      334.454        4.438      871.752
01/04/2015  20:34:00      -24.265      -18.379        1.233       12.079        9.827        9.821      145.911       96.562       96.452        0.063        0.017       30.440        7.669        0.063      334.266        4.126      871.768
01/04/2015  20:35:00      -29.020      -10.978       -5.885        9.909        9.981        6.795       98.187       99.615       46.172        0.062        0.012       31.027        5.451        0.031      334.385        4.324      871.787
01/04/2015  20:36:00      -68.974      -33.723      -11.815       18.159       10.205        8.777      329.750      104.146       77.037        0.327        0.026       76.777        8.205        0.011      334.371        4.301      871.808
01/04/2015  20:37:00      -87.716      -30.140      -16.867        7.161        5.495        4.594       51.275       30.198       21.108        0.449        0.005       92.750        3.745        0.002      334.214        4.039      871.820
01/04/2015  20:38:00      -85.915      -36.746      -10.061       11.018        8.825       10.590      121.397       77.876      112.149        0.457        0.016       93.443        9.417        0.010      334.293        4.168      871.829
01/04/2015  20:39:00      -65.165      -23.401       -9.627       11.114       11.627        8.185      123.527      135.183       66.998        0.261        0.016       69.239        6.414        0.009      334.284        4.155      871.831
01/04/2015  20:40:00      -80.777      -15.349      -14.993       13.886       12.308        9.069      192.833      151.477       82.239        0.371        0.021       82.223        6.512        0.006      334.429        4.395      871.844
01/04/2015  20:41:00      -52.086       -2.785       -4.938       26.592       13.711       12.009      707.137      187.993      144.224        0.189        0.052       52.161        5.142        0.010      334.542        4.583      871.856
01/04/2015  20:42:00       28.360       23.956        5.366       18.092        9.755       12.757      327.339       95.159      162.731        0.100        0.029       37.124        8.867        0.057      334.380        4.314      871.869
01/04/2015  20:43:00       43.695       38.749       -2.299       12.885       10.294        9.543      166.033      105.975       91.069        0.189        0.018       58.401        6.279        0.012      334.211        4.033      871.873
01/04/2015  20:44:00       38.354       22.416      -10.858       10.679       14.204        9.599      114.048      201.746       92.145        0.125        0.020       44.424        5.045        0.013      334.095        3.840      871.879
01/04/2015  20:45:00       17.141       12.719       -6.296       16.364        7.330        6.895      267.765       53.736       47.543        0.043        0.018       21.344        2.964        0.019      334.188        3.995      871.882
01/04/2015  20:46:00        6.421        6.073      -10.632        7.352        5.952        5.506       54.051       35.422       30.317        0.016        0.006        8.838        2.824        0.102      334.165        3.959      871.889
01/04/2015  20:47:00        4.558       19.150        4.219        5.856        9.757        7.255       34.287       95.204       52.631        0.029        0.009       19.685        4.687        0.057      334.237        4.079      871.909
01/04/2015  20:48:00        0.554       33.131       -3.108        5.693        6.221        5.185       32.411       38.700       26.882        0.060        0.005       33.135        1.677        0.003      334.441        4.416      871.928
01/04/2015  20:49:00       -2.329       27.860        2.439        6.304       11.421        6.122       39.736      130.442       37.483        0.050        0.010       27.957        4.503        0.026      334.336        4.244      871.953
01/04/2015  20:50:00        6.419       20.696        5.425        7.920       13.788        8.814       62.725      190.100       77.679        0.041        0.017       21.669        8.954        0.171      334.273        4.139      871.973
01/04/2015  20:51:00        2.931       57.569       -5.818        5.927       10.766        5.677       35.129      115.901       32.229        0.177        0.009       57.644        5.947        0.011      334.188        3.995      871.987
01/04/2015  20:52:00       15.361       41.186       -4.062        8.644       24.294        7.465       74.717      590.187       55.720        0.133        0.036       43.957        5.846        0.018      334.082        3.821      871.998
01/04/2015  20:53:00       26.753        8.998       -0.685        8.303       11.664        8.496       68.932      136.054       72.178        0.054        0.014       28.225        7.026        0.062      334.016        3.712      872.014
01/04/2015  20:54:00       21.432       14.646        3.715        9.258        9.311        6.456       85.714       86.691       41.686        0.045        0.011       25.958        5.023        0.037      333.978        3.649      872.020
01/04/2015  20:55:00       24.584       17.668        2.634        4.213        4.274        3.405       17.750       18.267       11.592        0.049        0.002       30.274        2.733        0.008      333.948        3.596      872.026
01/04/2015  20:56:00       23.813       25.105        1.607        5.938        4.446        3.145       35.264       19.764        9.892        0.063        0.003       34.602        2.561        0.005      334.020        3.718      872.029
01/04/2015  20:57:00        4.232       33.470       -3.100        4.727        4.618        3.986       22.344       21.326       15.886        0.060        0.003       33.737        2.610        0.006      334.077        3.809      872.031
01/04/2015  20:58:00      -14.072       27.412       -3.185       14.365       12.973        6.422      206.344      168.288       41.247        0.069        0.021       30.813        7.314        0.056      334.028        3.732      872.028
01/04/2015  20:59:00       -9.414        9.760       -7.267       14.124       12.018        7.921      199.500      144.433       62.747        0.032        0.020       13.560        7.436        0.301      334.033        3.740      872.024
01/04/2015  21:00:00      -31.901       -6.744       -9.181       10.147       13.252       10.814      102.959      175.603      116.941        0.077        0.020       32.607        7.727        0.056      333.980        3.652      872.024
01/04/2015  21:01:00      -40.962        3.810      -10.167       22.242       18.082       11.704      494.696      326.968      136.983        0.138        0.048       41.139       12.487        0.092      334.079        3.815      872.015
01/04/2015  21:02:00      -47.513      -10.120       -9.503       24.991       17.950       10.727      624.539      322.207      115.071        0.176        0.053       48.579        8.036        0.027      333.912        3.538      872.030
01/04/2015  21:03:00      -87.717       -9.080       -7.621       25.042       19.828       18.468      627.102      393.165      341.049        0.460        0.068       88.186       15.860        0.032      333.859        3.450      872.054
01/04/2015  21:04:00     -103.155      -16.066      -15.938       20.422       20.206       17.163      417.076      408.296      294.581        0.614        0.056      104.399       12.492        0.014      333.828        3.398      872.076
01/04/2015  21:05:00     -111.522      -13.176      -17.974       26.382       18.520       14.820      696.009      342.986      219.637        0.710        0.063      112.298       12.750        0.013      333.614        3.045      872.113
01/04/2015  21:06:00     -127.861      -21.211      -20.574       18.077       17.851       13.417      326.780      318.673      180.018        0.902        0.041      129.608        6.325        0.002      333.556        2.947      872.146
01/04/2015  21:07:00     -116.257      -22.810      -10.990       35.326       20.814       16.960     1247.928      433.233      287.637        0.806        0.098      118.473       17.852        0.023      333.502        2.858      872.176
01/04/2015  21:08:00     -124.952      -31.759      -14.395       17.790       12.803       11.235      316.486      163.908      126.216        0.872        0.030      128.925        8.189        0.004      333.591        3.007      872.199
01/04/2015  21:09:00     -121.712      -20.305      -11.477       24.229       21.630       19.056      587.022      467.837      363.145        0.839        0.071      123.394       17.162        0.019      333.566        2.964      872.202
01/04/2015  21:10:00     -142.014      -24.200      -15.791       13.955       13.653       12.657      194.730      186.410      160.200        1.077        0.027      144.062        7.450        0.003      333.616        3.047      872.205
01/04/2015  21:11:00     -148.917      -20.851      -10.446       19.560       16.126       14.042      382.587      260.062      197.183        1.178        0.042      150.370       11.004        0.005      333.536        2.915      872.198
01/04/2015  21:12:00     -165.402       -7.937      -14.878       22.644       22.316       18.594      512.766      497.983      345.743        1.450        0.068      165.593       15.157        0.008      333.561        2.957      872.195
01/04/2015  21:13:00     -140.790      -12.231       -6.941       40.200       24.799       21.914     1616.011      614.990      480.216        1.136        0.136      141.320       21.353        0.023      333.452        2.776      872.206
01/04/2015  21:14:00     -120.116        8.456       -7.443       59.370       38.474       29.733     3524.764     1480.219      884.050        1.022        0.294      120.413       34.124        0.080      333.691        3.171      872.220
01/04/2015  21:15:00     -175.533       14.408      -11.838       54.399       39.149       27.894     2959.263     1532.633      778.103        1.821        0.263      176.123       30.256        0.030      333.881        3.486      872.224
01/04/2015  21:16:00     -195.727       15.388      -19.344       46.728       39.630       27.147     2183.522     1570.539      736.983        2.170        0.225      196.331       21.200        0.012      333.946        3.592      872.227
01/04/2015  21:17:00     -126.228      -21.945      -11.143       55.880       42.242       30.705     3122.547     1784.401      942.787        1.119        0.292      128.121       31.619        0.061      333.788        3.332      872.231
01/04/2015  21:18:00     -183.200      -11.972      -20.631       56.242       39.039       31.308     3163.159     1524.032      980.169        1.990        0.283      183.590       32.260        0.031      333.681        3.152      872.237
01/04/2015  21:19:00      -98.211       -3.609      -11.991       52.124       33.904       22.235     2716.902     1149.497      494.383        0.708        0.218       98.278       25.585        0.068      333.854        3.442      872.247
01/04/2015  21:20:00     -150.675       13.739      -12.576       34.660       34.341       26.987     1201.282     1179.318      728.316        1.308        0.155      151.300       20.153        0.018      333.937        3.579      872.258
01/04/2015  21:21:00     -139.317       10.166      -11.671       45.610       42.636       24.617     2080.277     1817.821      606.012        1.208        0.225      139.688       22.383        0.026      334.045        3.758      872.271
01/04/2015  21:22:00     -169.299       16.852      -17.040       33.475       32.533       20.768     1120.552     1058.422      431.319        1.592        0.131      170.136       15.969        0.009      333.946        3.593      872.296
01/04/2015  21:23:00     -125.745        1.489      -16.427       34.080       42.050       23.781     1161.480     1768.218      565.552        0.979        0.175      125.753       19.189        0.023      333.985        3.659      872.308
01/04/2015  21:24:00      -89.970      -26.960       -6.624       40.692       28.469       23.147     1655.837      810.499      535.772        0.593        0.150       93.922       13.993        0.022      333.907        3.530      872.321
01/04/2015  21:25:00     -139.147      -18.396      -15.708       23.111       31.686       17.806      534.100     1003.992      317.061        1.090        0.093      140.358       12.594        0.008      333.836        3.411      872.335
01/04/2015  21:26:00     -155.929      -16.658      -18.199       26.217       28.957       20.396      687.349      838.488      415.998        1.343        0.097      156.816       13.464        0.007      333.748        3.265      872.359
01/04/2015  21:27:00     -159.303       -2.621      -14.456       55.136       39.403       28.936     3040.005     1552.558      837.316        1.551        0.271      159.325       32.387        0.041      333.790        3.334      872.368
01/04/2015  21:28:00     -155.261       32.923      -10.026       55.385       42.963       25.970     3067.460     1845.848      674.430        1.544        0.279      158.714       28.180        0.032      334.075        3.808      872.373
01/04/2015  21:29:00     -140.484       41.014      -14.177       40.528       49.557       26.106     1642.480     2455.903      681.509        1.320        0.239      146.348       20.720        0.020      334.189        3.997      872.379
01/04/2015  21:30:00     -112.211       34.275       -8.495       54.232       35.519       24.336     2941.058     1261.630      592.232        0.932        0.240      117.329       29.044        0.061      334.172        3.969      872.392
01/04/2015  21:31:00     -107.943       21.506       -8.906       38.458       37.551       26.973     1479.017     1410.088      727.520        0.790        0.181      110.065       23.961        0.047      334.127        3.896      872.394
01/04/2015  21:32:00     -138.276       24.111      -16.968       43.083       33.594       23.065     1856.121     1128.554      531.976        1.175        0.176      140.362       17.730        0.016      334.197        4.010      872.395
01/04/2015  21:33:00     -118.540       25.097       -9.748       36.393       38.180       23.756     1324.422     1457.739      564.354        0.906        0.167      121.168       19.762        0.027      334.124        3.889      872.410
01/04/2015  21:34:00     -137.564       39.301        3.595       48.519       40.424       37.540     2354.090     1634.060     1409.270        1.294        0.270      143.067       27.674        0.037      334.271        4.133      872.432
01/04/2015  21:35:00      -59.083       30.597       15.274       56.817       28.707       29.006     3228.122      824.100      841.339        0.478        0.245       66.536       11.490        0.030      334.379        4.314      872.443
01/04/2015  21:36:00       23.936       35.198       16.168       30.448       28.161       27.440      927.104      793.023      752.931        0.227        0.124       42.565       21.542        0.256      334.082        3.821      872.458
01/04/2015  21:37:00       52.484       38.529       -1.606       13.240       13.798       13.481      175.297      190.376      181.726        0.239        0.027       65.108        9.970        0.023      333.917        3.548      872.474
01/04/2015  21:38:00       32.577       36.483       -9.407       18.081       13.140        8.345      326.905      172.660       69.643        0.152        0.028       48.911        6.236        0.016      334.078        3.815      872.482
01/04/2015  21:39:00       22.477       31.435      -10.252       13.440       13.640        6.756      180.633      186.058       45.646        0.101        0.021       38.645        5.447        0.020      334.420        4.382      872.482
01/04/2015  21:40:00       -4.587       18.442       -2.381       14.177       15.019        7.486      200.973      225.561       56.043        0.042        0.024       19.004        4.648        0.060      334.752        4.932      872.484
01/04/2015  21:41:00      -36.989      -32.176       -7.434       12.129       12.026        6.198      147.124      144.627       38.414        0.139        0.017       49.026        4.582        0.009      334.320        4.216      872.481
01/04/2015  21:42:00      -43.044      -25.566       -5.368        7.200       11.270        4.659       51.838      127.017       21.703        0.137        0.010       50.064        4.720        0.009      333.834        3.408      872.490
01/04/2015  21:43:00       -5.194       10.171        3.411       12.083       12.314       10.240      146.001      151.643      104.861        0.027        0.020       11.420        9.296        0.663      334.171        3.968      872.506
01/04/2015  21:44:00       16.689       45.012       -3.585       12.335       17.470       10.095      152.154      305.204      101.909        0.144        0.028       48.007       10.517        0.048      334.132        3.902      872.514
01/04/2015  21:45:00       14.190       18.707       -3.298       11.472       20.166        8.102      131.608      406.670       65.645        0.058        0.030       23.480        9.491        0.163      334.094        3.839      872.514
01/04/2015  21:46:00       28.142        7.339        6.258        9.905        8.511        7.629       98.110       72.437       58.196        0.056        0.011       29.084        5.960        0.042      334.019        3.718      872.519
01/04/2015  21:47:00       20.610      -13.320       -0.364        6.134       10.366        4.183       37.632      107.452       17.496        0.038        0.008       24.539        3.638        0.022      333.822        3.390      872.520
01/04/2015  21:48:00       -3.518      -22.087       -2.873       17.328        8.169        7.658      300.249       66.740       58.645        0.047        0.021       22.365        8.270        0.137      333.870        3.469      872.515
01/04/2015  21:49:00      -31.183      -22.506       -7.214        9.523       15.864        7.534       90.690      251.656       56.769        0.096        0.020       38.457        7.452        0.038      333.767        3.298      872.510
01/04/2015  21:50:00      -46.999      -12.106       -8.447       14.771       14.313        7.666      218.168      204.849       58.762        0.145        0.024       48.533        5.576        0.013      333.689        3.168      872.510
01/04/2015  21:51:00      -61.554      -32.384       -8.178        8.438        7.532        6.366       71.207       56.738       40.524        0.254        0.008       69.553        2.068        0.001      333.571        2.972      872.500
01/04/2015  21:52:00      -84.062      -30.107      -15.773        9.924        7.957        7.238       98.482       63.318       52.394        0.422        0.011       89.291        3.166        0.001      333.513        2.876      872.492
01/04/2015  21:53:00      -86.787      -34.549      -12.702        7.387       10.360        5.079       54.563      107.324       25.797        0.454        0.009       93.411        3.621        0.002      333.504        2.861      872.479
01/04/2015  21:54:00      -75.731      -29.285      -14.160       10.735        8.877        6.135      115.244       78.810       37.642        0.351        0.012       81.196        3.694        0.002      333.477        2.814      872.458
01/04/2015  21:55:00      -80.849      -15.893      -12.871        7.398        7.340        8.786       54.733       53.881       77.201        0.357        0.009       82.396        4.815        0.003      333.532        2.908      872.425
01/04/2015  21:56:00      -59.549      -22.071      -12.315       11.572        6.089        8.393      133.922       37.070       70.437        0.221        0.012       63.508        7.390        0.014      333.566        2.964      872.406
01/04/2015  21:57:00      -71.671      -22.741      -13.804        8.711        6.186        4.603       75.889       38.270       21.190        0.299        0.007       75.192        1.864        0.001      333.662        3.123      872.395
01/04/2015  21:58:00      -69.678      -12.569      -13.015        7.771        5.604        4.282       60.393       31.406       18.339        0.265        0.006       70.802        2.042        0.001      333.642        3.090      872.392
01/04/2015  21:59:00      -42.915      -10.134       -9.955       10.983        8.065        6.889      120.625       65.046       47.464        0.114        0.012       44.095        7.187        0.027      333.791        3.338      872.385
01/04/2015  22:00:00      -41.120       -9.291       -2.885        4.635        8.889        4.019       21.487       79.014       16.149        0.095        0.006       42.156        2.275        0.003      333.957        3.613      872.377
01/04/2015  22:01:00      -49.064       -3.127       -8.288       12.396        8.625        4.799      153.665       74.384       23.033        0.137        0.013       49.163        4.071        0.007      333.788        3.331      872.370
01/04/2015  22:02:00      -53.450       -9.369      -16.121       19.566       10.184        9.678      382.843      103.717       93.660        0.189        0.029       54.265        7.551        0.019      333.778        3.317      872.369
01/04/2015  22:03:00      -85.050      -25.774      -11.011        7.847        6.656        5.972       61.572       44.303       35.666        0.408        0.007       88.870        4.477        0.003      333.460        2.787      872.370
01/04/2015  22:04:00      -89.312      -25.020      -11.156        9.921        9.998        9.804       98.433       99.958       96.127        0.451        0.015       92.751        6.547        0.005      333.478        2.818      872.373
01/04/2015  22:05:00     -110.047      -19.009      -11.869       21.631       14.027       12.741      467.915      196.763      162.320        0.672        0.041      111.676       10.144        0.008      333.453        2.776      872.370
01/04/2015  22:06:00     -125.680      -11.406      -18.266       18.455       16.070       16.937      340.587      258.241      286.856        0.857        0.044      126.197       12.454        0.010      333.472        2.808      872.369
01/04/2015  22:07:00     -135.407      -10.568      -19.539       10.169        9.369       10.178      103.404       87.778      103.586        0.956        0.015      135.819        6.083        0.002      333.571        2.972      872.371
01/04/2015  22:08:00     -112.799        3.484      -21.658       16.405       10.678        8.987      269.133      114.028       80.758        0.683        0.023      112.853        6.661        0.003      333.789        3.335      872.361
01/04/2015  22:09:00      -88.985       -6.738      -18.539       17.449       18.512       10.964      304.465      342.694      120.218        0.454        0.038       89.239        7.251        0.007      333.928        3.565      872.353
01/04/2015  22:10:00     -102.240      -22.029      -16.550        9.494        9.290        6.600       90.144       86.308       43.562        0.572        0.011      104.586        2.516        0.001      333.916        3.548      872.342
01/04/2015  22:11:00      -89.998      -28.041      -15.744       10.145        7.837        7.261      102.920       61.422       52.721        0.468        0.011       94.266        2.674        0.001      333.575        2.980      872.337
01/04/2015  22:12:00     -112.654      -32.781      -15.196        7.932       11.519        7.160       62.916      132.684       51.272        0.712        0.012      117.327        3.943        0.001      333.317        2.552      872.326
01/04/2015  22:13:00     -109.019      -33.494      -19.663       13.314        9.935        7.527      177.253       98.704       56.648        0.686        0.017      114.049        6.343        0.003      333.326        2.568      872.317
01/04/2015  22:14:00      -95.357       -6.375      -12.040       23.607       14.876       16.109      557.278      221.295      259.507        0.516        0.052       95.570       13.869        0.021      333.458        2.785      872.294
01/04/2015  22:15:00     -106.078      -33.457      -10.963       17.420       19.134       14.006      303.473      366.115      196.164        0.668        0.043      111.229       11.750        0.011      333.480        2.821      872.277
01/04/2015  22:16:00     -119.772      -46.410       -1.973       12.421       10.654       10.586      154.287      113.502      112.071        0.844        0.019      128.449        6.787        0.003      333.420        2.721      872.260
01/04/2015  22:17:00      -99.095      -58.700       -6.367       18.718       10.491       13.371      350.382      110.056      178.795        0.697        0.032      115.176       10.280        0.008      333.425        2.731      872.246
01/04/2015  22:18:00      -80.959      -57.246        4.853       27.394       23.498       16.254      750.424      552.160      264.183        0.571        0.078       99.154       18.288        0.034      333.466        2.799      872.235
01/04/2015  22:19:00      -91.119      -72.618       -6.584       17.844       18.162       13.040      318.401      329.861      170.042        0.722        0.041      116.516        9.734        0.007      333.734        3.243      872.237
01/04/2015  22:20:00      -64.397      -42.091        5.654       36.833       17.064       14.894     1356.685      291.163      221.842        0.391        0.093       76.932       18.881        0.060      333.481        2.824      872.255
01/04/2015  22:21:00     -109.041      -50.369       -6.147       12.806       12.713        7.696      164.003      161.612       59.231        0.742        0.019      120.112        5.935        0.002      333.337        2.586      872.270
01/04/2015  22:22:00     -124.898      -31.641      -12.311       15.897       17.834        9.917      252.703      318.034       98.342        0.871        0.033      128.843        7.787        0.004      333.328        2.571      872.280
01/04/2015  22:23:00     -103.489      -33.654       -9.492       22.149       20.105       13.438      490.592      404.224      180.575        0.650        0.054      108.823       11.630        0.011      333.285        2.499      872.291
01/04/2015  22:24:00     -131.053      -31.206      -12.992       15.247       13.815       14.198      232.484      190.844      201.596        0.947        0.031      134.717        7.858        0.003      333.275        2.482      872.290
01/04/2015  22:25:00     -131.005      -24.324      -11.375       29.084       17.221       13.559      845.852      296.561      183.842        0.960        0.066      133.244       13.757        0.011      333.310        2.541      872.297
01/04/2015  22:26:00     -130.778      -29.060       -2.789       29.859       25.118       18.390      891.559      630.916      338.186        0.991        0.093      133.968       17.481        0.017      333.323        2.562      872.297
01/04/2015  22:27:00     -127.180      -34.043       -9.008       27.992       20.401       17.926      783.576      416.192      321.327        0.947        0.076      131.658       15.421        0.014      333.356        2.619      872.292
01/04/2015  22:28:00     -116.969      -25.556       -7.364       29.027       19.741       15.203      842.565      389.714      231.141        0.793        0.073      119.728       15.246        0.016      333.306        2.534      872.286
01/04/2015  22:29:00     -102.866      -20.308       -4.902       20.666       17.587       13.901      427.081      309.297      193.248        0.597        0.046      104.852       10.078        0.009      333.319        2.556      872.289
01/04/2015  22:30:00     -121.985      -18.058      -13.171       16.225       19.117       12.554      263.261      365.441      157.605        0.808        0.039      123.315        7.445        0.004      333.317        2.553      872.294
01/04/2015  22:31:00     -116.853      -20.252       -7.792       31.200       20.457       17.789      973.434      418.477      316.457        0.792        0.085      118.596       15.866        0.018      333.293        2.513      872.306
01/04/2015  22:32:00     -111.453       -6.115       -5.186       39.582       20.228       19.512     1566.709      409.191      380.721        0.742        0.118      111.621       21.104        0.036      333.327        2.568      872.315
01/04/2015  22:33:00     -121.314      -17.696      -10.128       20.591       16.909        9.631      424.002      285.909       92.759        0.797        0.040      122.598        8.522        0.005      333.352        2.611      872.324
01/04/2015  22:34:00     -109.224      -28.888      -21.126       11.652       12.685        8.516      135.775      160.904       72.524        0.679        0.018      112.980        6.223        0.003      333.359        2.621      872.321
01/04/2015  22:35:00     -118.394      -21.538      -12.898       10.847       10.399       11.104      117.653      108.141      123.308        0.750        0.017      120.337        6.580        0.003      333.476        2.815      872.319
01/04/2015  22:36:00     -104.733      -36.361      -12.930       13.395       17.667       11.168      179.418      312.116      124.734        0.654        0.031      110.865       11.609        0.011      333.435        2.747      872.312
01/04/2015  22:37:00      -88.558      -29.191       -2.643       28.302       14.636       13.403      801.024      214.199      179.639        0.495        0.060       93.245       15.012        0.026      333.437        2.751      872.307
01/04/2015  22:38:00      -82.383      -39.089       -3.280       23.549       13.106        7.642      554.538      171.757       58.406        0.456        0.039       91.186        6.920        0.006      333.506        2.864      872.307
01/04/2015  22:39:00      -77.371      -39.165       -6.313        9.716        9.372        9.115       94.399       87.841       83.075        0.391        0.013       86.719        3.765        0.002      333.498        2.852      872.294
01/04/2015  22:40:00      -67.429      -35.198       -8.400        9.449        8.772        7.275       89.287       76.944       52.931        0.304        0.011       76.063        4.665        0.004      333.489        2.837      872.290
01/04/2015  22:41:00      -36.086      -29.026       -6.823       12.425        9.006        7.294      154.371       81.110       53.199        0.124        0.014       46.311        6.681        0.021      333.540        2.921      872.268
01/04/2015  22:42:00      -41.681      -36.859       -8.063        8.509        8.339        5.337       72.410       69.534       28.485        0.167        0.009       55.641        4.241        0.006      333.484        2.826      872.249
01/04/2015  22:43:00      -89.947      -51.271       -8.275       13.750       11.495        7.186      189.062      132.131       51.640        0.558        0.019      103.533        5.506        0.003      333.526        2.898      872.243
01/04/2015  22:44:00      -35.479      -30.689        3.274       14.623       22.005       13.269      213.845      484.206      176.075        0.154        0.044       46.910       11.239        0.057      333.354        2.613      872.253
01/04/2015  22:45:00      -60.581      -18.025      -10.364        5.932        6.920        5.626       35.191       47.880       31.656        0.211        0.006       63.206        2.275        0.001      333.343        2.595      872.261
01/04/2015  22:46:00      -76.314       -5.431      -18.553        6.154        5.205        3.954       37.873       27.094       15.637        0.314        0.004       76.507        0.744        0.000      333.578        2.986      872.253
01/04/2015  22:47:00      -99.717      -15.465      -17.116       11.050        9.986        6.080      122.100       99.719       36.970        0.537        0.013      100.909        4.069        0.002      333.522        2.890      872.249
01/04/2015  22:48:00     -108.310      -30.160      -11.212       19.839       16.459       10.272      393.600      270.906      105.519        0.677        0.039      112.431        7.995        0.005      333.420        2.721      872.242
01/04/2015  22:49:00     -110.993      -23.216      -16.691       15.314       13.264        9.923      234.516      175.939       98.471        0.682        0.025      113.395        6.104        0.003      333.355        2.617      872.238
01/04/2015  22:50:00     -124.442      -13.714      -17.621       19.791       12.384       11.934      391.670      153.352      142.418        0.834        0.034      125.196        4.945        0.002      333.304        2.531      872.232
01/04/2015  22:51:00     -126.375      -26.986      -13.794       32.687       18.427       15.596     1068.459      339.547      243.243        0.927        0.083      129.224       18.437        0.020      333.095        2.187      872.219
01/04/2015  22:52:00     -141.525      -32.942      -12.700       21.369       15.557       13.648      456.641      242.007      186.273        1.108        0.044      145.308        9.907        0.005      333.046        2.106      872.206
01/04/2015  22:53:00     -136.422      -32.356      -16.058       22.063       16.892       14.393      486.797      285.343      207.165        1.045        0.049      140.206       13.288        0.009      332.985        2.004      872.199
01/04/2015  22:54:00     -154.502      -24.085      -22.704       19.579       13.628       12.126      383.320      185.718      147.042        1.284        0.036      156.368       11.428        0.005      333.023        2.068      872.185
01/04/2015  22:55:00     -136.689      -19.666      -18.968       13.975       16.096       17.583      195.291      259.068      309.145        1.010        0.038      138.097        7.527        0.003      332.998        2.023      872.172
01/04/2015  22:56:00     -123.092      -21.451       -5.922       30.746       18.207       17.477      945.327      331.512      305.449        0.861        0.079      124.947       17.614        0.020      332.846        1.775      872.159
01/04/2015  22:57:00     -131.424      -30.782       -9.808       25.741       24.187       16.006      662.592      585.004      256.182        0.991        0.075      134.981       13.115        0.009      332.908        1.876      872.140
01/04/2015  22:58:00     -128.240      -45.839      -10.146       18.567       17.689       12.713      344.752      312.887      161.615        0.973        0.041      136.186        6.449        0.002      332.989        2.010      872.128
01/04/2015  22:59:00     -136.544      -15.927      -15.881       27.739       19.788       18.009      769.471      391.580      324.308        1.032        0.074      137.470       15.438        0.013      333.028        2.077      872.123
01/04/2015  23:00:00     -130.338       -7.053      -12.161       35.257       20.138       18.120     1243.044      405.555      328.325        0.958        0.099      130.529       16.832        0.017      333.011        2.048      872.131
01/04/2015  23:01:00      -67.010      -13.697        1.541       55.913       30.166       27.738     3126.211      909.969      769.379        0.474        0.240       68.395       29.129        0.181      333.063        2.134      872.142
01/04/2015  23:02:00     -106.362        4.191      -11.187       51.166       36.966       25.134     2617.936     1366.455      631.736        0.803        0.231      106.445       20.142        0.036      333.496        2.846      872.148
01/04/2015  23:03:00     -154.016       15.169      -10.979       51.193       41.773       28.799     2620.678     1745.019      829.373        1.463        0.260      154.761       30.102        0.038      333.498        2.852      872.159
01/04/2015  23:04:00     -185.777       53.044      -13.995       38.947       29.583       21.383     1516.905      875.172      457.251        2.019        0.142      193.202       18.221        0.009      333.450        2.772      872.175
01/04/2015  23:05:00     -165.405       31.011      -17.589       33.560       30.859       21.851     1126.271      952.260      477.456        1.559        0.128      168.287       14.885        0.008      333.362        2.628      872.181
01/04/2015  23:06:00     -100.305       -8.439      -10.110       40.338       39.988       24.308     1627.118     1599.010      590.876        0.703        0.191      100.659       23.901        0.056      333.219        2.391      872.193
01/04/2015  23:07:00      -80.464       -3.011        0.774       41.053       46.348       29.737     1685.331     2148.164      884.268        0.560        0.236       80.520       23.564        0.086      333.270        2.474      872.210
01/04/2015  23:08:00      -81.031      -10.143       -6.941       44.336       47.712       32.128     1965.672     2276.454     1032.217        0.599        0.264       81.664       23.801        0.085      333.289        2.506      872.225
01/04/2015  23:09:00      -53.186      -10.234        1.477       34.358       29.900       20.768     1180.464      894.014      431.325        0.272        0.125       54.161       13.759        0.065      333.094        2.184      872.242
01/04/2015  23:10:00      -57.575      -28.063        0.535       32.671       27.972       18.641     1067.412      782.452      347.486        0.315        0.110       64.050        8.305        0.017      332.955        1.955      872.255
01/04/2015  23:11:00      -75.797      -27.142      -17.334       20.062       16.537       11.094      402.486      273.485      123.077        0.379        0.040       80.510        7.594        0.009      332.970        1.980      872.265
01/04/2015  23:12:00      -71.566      -11.096      -16.680       15.003       11.417       11.970      225.082      130.344      143.290        0.301        0.025       72.421        9.262        0.016      333.094        2.184      872.279
01/04/2015  23:13:00      -54.659      -25.962       -7.712       11.958       11.405       10.755      142.989      130.076      115.673        0.205        0.019       60.511        6.941        0.013      333.226        2.400      872.272
01/04/2015  23:14:00      -61.922      -25.222      -12.968       12.491       14.504        9.759      156.020      210.380       95.233        0.255        0.023       66.862        7.690        0.013      333.158        2.290      872.261
01/04/2015  23:15:00      -50.160      -42.476       -9.088       17.434       11.614       10.953      303.951      134.887      119.970        0.248        0.028       65.729        7.031        0.011      333.155        2.284      872.255
01/04/2015  23:16:00      -52.498      -39.913      -12.628       10.755       10.990        8.660      115.674      120.779       75.002        0.241        0.016       65.948        4.828        0.005      333.256        2.451      872.244
01/04/2015  23:17:00      -44.010      -28.994       -8.619       12.844       11.710        7.747      164.967      137.118       60.010        0.161        0.018       52.702        4.478        0.007      333.348        2.606      872.232
01/04/2015  23:18:00      -64.967      -41.795      -12.542        9.459        9.893        7.513       89.470       97.862       56.445        0.318        0.012       77.250        3.851        0.002      333.074        2.151      872.227
01/04/2015  23:19:00      -80.826      -42.366      -17.697       12.043       10.276       10.132      145.033      105.594      102.667        0.450        0.018       91.256        3.439        0.001      332.930        1.915      872.216
01/04/2015  23:20:00     -101.285      -23.626      -18.982       14.160       11.830        9.964      200.492      139.951       99.281        0.581        0.022      104.004        8.820        0.007      332.869        1.812      872.199
01/04/2015  23:21:00     -102.562      -18.510      -17.110       14.665       18.514       10.886      215.067      342.753      118.504        0.592        0.034      104.219       10.332        0.010      332.818        1.729      872.180
01/04/2015  23:22:00     -115.663       -9.838      -20.318       21.970       18.171       15.264      482.691      330.176      232.995        0.747        0.052      116.081       11.646        0.010      332.735        1.591      872.161
01/04/2015  23:23:00     -104.407      -17.065      -17.364       15.025       19.715       14.307      225.747      388.677      204.687        0.616        0.041      105.792       12.132        0.013      332.730        1.584      872.139
01/04/2015  23:24:00      -98.755      -17.743      -18.625       16.519       16.859       12.301      272.866      284.228      151.306        0.556        0.035      100.336       10.231        0.010      332.704        1.541      872.134
01/04/2015  23:25:00     -111.527      -11.188      -18.817       21.858       17.114       13.659      477.780      292.875      186.561        0.694        0.048      112.087       12.270        0.012      332.601        1.370      872.129
01/04/2015  23:26:00     -126.510       -7.108      -19.269       37.995       29.068       21.660     1443.655      844.953      469.152        0.959        0.138      126.709       16.610        0.017      332.663        1.472      872.117
01/04/2015  23:27:00     -103.485      -17.618      -10.198       27.116       34.974       23.455      735.298     1223.199      550.145        0.682        0.125      104.974       15.311        0.021      332.709        1.547      872.107
01/04/2015  23:28:00     -116.048      -24.122      -11.123       47.810       41.872       26.142     2285.800     1753.244      683.405        0.945        0.236      118.529       21.622        0.033      332.756        1.625      872.088
01/04/2015  23:29:00      -93.038      -18.553       -6.516       50.641       54.618       26.455     2564.525     2983.174      699.870        0.764        0.312       94.870       22.962        0.059      332.706        1.544      872.075
01/04/2015  23:30:00     -108.951      -12.312       -0.274       54.192       53.218       31.843     2936.801     2832.184     1013.950        0.940        0.339      109.645       26.211        0.057      332.689        1.515      872.076
01/04/2015  23:31:00     -122.344       11.228       -7.306       59.663       46.861       34.548     3559.629     2195.935     1193.566        1.105        0.347      122.858       35.023        0.081      332.765        1.640      872.065
01/04/2015  23:32:00     -139.197      -19.869      -13.861       55.408       55.996       26.889     3070.042     3135.586      723.038        1.344        0.346      140.608       22.028        0.025      332.654        1.457      872.067
01/04/2015  23:33:00     -185.463        4.326      -13.741       55.241       46.325       32.923     3051.610     2145.983     1083.908        2.044        0.314      185.514       26.907        0.021      332.773        1.652      872.065
01/04/2015  23:34:00     -196.350       25.697      -18.510       55.637       38.137       25.625     3095.530     1454.410      656.625        2.238        0.260      198.024       15.737        0.006      332.834        1.751      872.074
01/04/2015  23:35:00     -193.957       48.698      -11.410       36.341       36.716       21.895     1320.704     1348.064      479.392        2.163        0.157      199.977       15.016        0.006      332.973        1.983      872.088
01/04/2015  23:36:00     -182.936       48.525      -15.638       49.104       32.439       21.504     2411.242     1052.257      462.418        1.999        0.196      189.263       13.793        0.005      333.041        2.095      872.104
01/04/2015  23:37:00     -183.053       23.207       -6.174       55.732       44.202       27.525     3106.087     1953.806      757.607        1.995        0.291      184.519       26.276        0.020      333.014        2.052      872.112
01/04/2015  23:38:00     -153.088       18.413      -14.680       32.339       32.629       18.372     1045.813     1064.627      337.530        1.322        0.122      154.192       17.368        0.013      333.071        2.146      872.114
01/04/2015  23:39:00     -146.258       10.128      -17.325       41.519       24.392       23.440     1723.795      594.960      549.452        1.233        0.143      146.608       18.211        0.015      333.083        2.166      872.111
01/04/2015  23:40:00      -79.101      -18.131       -4.574       37.465       36.494       23.630     1403.661     1331.807      558.380        0.495        0.165       81.152       16.992        0.044      332.989        2.010      872.109
01/04/2015  23:41:00      -92.164      -45.480       -1.101       32.530       24.975       16.651     1058.202      623.754      277.247        0.626        0.098      102.775       15.143        0.022      332.861        1.800      872.117
01/04/2015  23:42:00     -111.926      -36.298      -15.640       20.768       18.217       13.934      431.300      331.874      194.165        0.752        0.048      117.665       11.769        0.010      332.926        1.906      872.118
01/04/2015  23:43:00     -105.649      -29.240       -7.700       23.660       17.055       11.912      559.807      290.882      141.890        0.653        0.050      109.620        8.739        0.006      332.869        1.813      872.124
01/04/2015  23:44:00     -101.629      -37.279       -5.408       18.540       13.454       13.541      343.732      180.997      183.362        0.623        0.035      108.250       11.539        0.011      332.852        1.786      872.123
01/04/2015  23:45:00     -102.086      -36.070       -2.926       14.906       10.568       10.820      222.194      111.686      117.071        0.609        0.023      108.271        8.204        0.006      332.900        1.864      872.119
01/04/2015  23:46:00      -87.049      -23.940       -4.702       18.432       10.416        7.337      339.752      108.494       53.827        0.434        0.025       90.282        6.506        0.005      332.928        1.908      872.114
01/04/2015  23:47:00      -72.854      -26.217       -2.053       18.947       12.309        9.255      359.003      151.504       85.649        0.330        0.030       77.428        7.200        0.009      332.920        1.897      872.108
01/04/2015  23:48:00      -65.603      -33.359        0.888       16.317       12.608        8.063      266.239      158.964       65.013        0.295        0.025       73.598        7.019        0.009      332.915        1.888      872.105
01/04/2015  23:49:00      -57.904      -26.929       -5.609       10.458       11.611        8.816      109.370      134.811       77.721        0.222        0.016       63.860        3.751        0.003      332.968        1.974      872.106
01/04/2015  23:50:00      -72.994      -18.798      -10.604       13.741       13.807        9.344      188.803      190.643       87.314        0.313        0.023       75.375        6.370        0.007      332.953        1.950      872.106
01/04/2015  23:51:00      -71.986      -18.749       -0.336       26.012       28.251       20.395      676.611      798.133      415.965        0.371        0.095       74.388       15.102        0.041      332.966        1.972      872.105
01/04/2015  23:52:00      -78.318      -12.737       -4.201       22.704       24.371       12.517      515.464      593.969      156.685        0.379        0.063       79.347       10.612        0.018      333.034        2.084      872.095
01/04/2015  23:53:00      -64.347      -16.540        8.406       37.154       27.268       20.538     1380.453      743.533      421.816        0.351        0.127       66.439       20.385        0.094      332.934        1.920      872.086
01/04/2015  23:54:00      -35.405       -7.731       -1.056       27.622       15.981       14.804      762.965      255.388      219.168        0.128        0.062       36.239       16.075        0.197      332.943        1.935      872.077
01/04/2015  23:55:00      -19.611      -10.348        5.205       12.410       11.808       10.216      154.016      139.439      104.370        0.046        0.020       22.174        8.597        0.150      332.934        1.921      872.078
01/04/2015  23:56:00      -26.945      -12.796       -2.316        8.295       13.088        9.802       68.805      171.283       96.081        0.062        0.017       29.829        8.432        0.080      333.064        2.134      872.077
01/04/2015  23:57:00      -32.714      -14.981       -1.260        8.982        8.505        7.070       80.683       72.331       49.992        0.075        0.010       35.981        5.004        0.019      333.054        2.116      872.091
01/04/2015  23:58:00      -67.746      -32.381      -10.691       21.993       11.367        8.411      483.679      129.213       70.751        0.322        0.034       75.087        8.397        0.013      332.977        1.989      872.100
01/04/2015  23:59:00      -78.462      -37.955      -11.056       19.421       20.975       12.011      377.161      439.957      144.272        0.434        0.048       87.160        7.489        0.007      332.800        1.700      872.111
